Time,TemperatureF,DewpointF,PressureIn,WindDirection,WindDirectionDegrees,WindSpeedMPH,WindSpeedGustMPH,Humidity,HourlyPrecipIn,Conditions,Clouds,dailyrainin,SolarRadiationWatts/m^2,SoftwareType,DateUTC
2012-12-24 00:00:00,52.8,44.4,30.15,NE,37,0.0,1.0,73,0.00,,---,0.00,0.00,VWS V14.01,2012-12-24 05:00:00,
2012-12-24 00:01:00,52.8,44.0,30.15,NE,37,0.0,0.0,72,0.00,,---,0.00,0.00,VWS V14.01,2012-12-24 05:01:00,
2012-12-24 00:02:00,52.9,44.1,30.15,NE,37,0.0,0.0,72,0.00,,---,0.00,0.00,VWS V14.01,2012-12-24 05:02:00,
2012-12-24 00:03:00,52.9,44.1,30.15,NE,37,0.0,0.0,72,0.00,,---,0.00,0.00,VWS V14.01,2012-12-24 05:03:00,
2012-12-24 00:04:00,52.9,44.1,30.16,NE,37,0.0,0.0,72,0.00,,---,0.00,0.00,VWS V14.01,2012-12-24 05:04:00,
2012-12-24 00:05:00,52.9,44.1,30.16,NE,37,0.0,0.0,72,0.00,,---,0.00,0.00,VWS V14.01,2012-12-24 05:05:00,
2012-12-24 00:06:00,53.0,44.2,30.16,NE,37,0.0,0.0,72,0.00,,---,0.00,0.00,VWS V14.01,2012-12-24 05:06:00,
2012-12-24 00:07:00,53.0,44.2,30.16,NE,37,0.0,0.0,72,0.00,,---,0.00,0.00,VWS V14.01,2012-12-24 05:07:00,
2012-12-24 00:08:00,53.0,44.2,30.16,NE,37,0.0,0.0,72,0.00,,---,0.00,0.00,VWS V14.01,2012-12-24 05:08:00,
2012-12-24 00:09:00,53.0,44.2,30.16,NE,37,0.0,0.0,72,0.00,,---,0.00,0.00,VWS V14.01,2012-12-24 05:09:00,
2012-12-24 00:10:00,53.0,44.2,30.16,NE,37,0.0,0.0,72,0.00,,---,0.00,0.00,VWS V14.01,2012-12-24 05:10:00,
2012-12-24 00:11:00,53.0,43.9,30.16,NE,37,0.0,0.0,71,0.00,,---,0.00,0.00,VWS V14.01,2012-12-24 05:11:00,
2012-12-24 00:12:00,53.0,43.9,30.15,NE,37,1.0,1.0,71,0.00,,---,0.00,0.00,VWS V14.01,2012-12-24 05:12:00,
2012-12-24 00:13:00,53.0,43.9,30.15,NE,37,0.0,1.0,71,0.00,,---,0.00,0.00,VWS V14.01,2012-12-24 05:13:00,
2012-12-24 00:14:00,53.0,43.9,30.15,NE,37,0.0,1.0,71,0.00,,---,0.00,0.00,VWS V14.01,2012-12-24 05:14:00,
2012-12-24 00:15:00,53.1,44.0,30.15,NE,37,0.0,1.0,71,0.00,,---,0.00,0.00,VWS V14.01,2012-12-24 05:15:00,
2012-12-24 00:16:00,53.2,44.0,30.15,NE,37,0.0,1.0,71,0.00,,---,0.00,0.00,VWS V14.01,2012-12-24 05:16:00,
2012-12-24 00:17:00,53.3,44.2,30.15,NE,37,0.0,1.0,71,0.00,,---,0.00,0.00,VWS V14.01,2012-12-24 05:17:00,
2012-12-24 00:18:00,53.3,44.2,30.15,NE,37,0.0,1.0,71,0.00,,---,0.00,0.00,VWS V14.01,2012-12-24 05:18:00,
2012-12-24 00:19:00,53.3,44.2,30.15,NE,37,0.0,1.0,71,0.00,,---,0.00,0.00,VWS V14.01,2012-12-24 05:19:00,
2012-12-24 00:20:00,53.3,44.2,30.15,NE,37,0.0,1.0,71,0.00,,---,0.00,0.00,VWS V14.01,2012-12-24 05:20:00,
2012-12-24 00:21:00,53.3,44.2,30.15,NE,37,0.0,1.0,71,0.00,,---,0.00,0.00,VWS V14.01,2012-12-24 05:21:00,
2012-12-24 00:22:00,53.3,44.2,30.15,NE,37,0.0,1.0,71,0.00,,---,0.00,0.00,VWS V14.01,2012-12-24 05:22:00,
2012-12-24 00:23:00,53.3,44.5,30.15,NE,37,0.0,1.0,72,0.00,,---,0.00,0.00,VWS V14.01,2012-12-24 05:23:00,
2012-12-24 00:24:00,53.2,44.4,30.15,NE,37,0.0,1.0,72,0.00,,---,0.00,0.00,VWS V14.01,2012-12-24 05:24:00,
2012-12-24 00:25:00,53.2,44.4,30.15,NE,37,0.0,1.0,72,0.00,,---,0.00,0.00,VWS V14.01,2012-12-24 05:25:00,
2012-12-24 00:26:00,53.2,44.4,30.15,NE,37,0.0,1.0,72,0.00,,---,0.00,0.00,VWS V14.01,2012-12-24 05:26:00,
2012-12-24 00:27:00,53.2,44.4,30.15,NE,37,0.0,1.0,72,0.00,,---,0.00,0.00,VWS V14.01,2012-12-24 05:27:00,
2012-12-24 00:28:00,53.0,44.2,30.15,NE,37,0.0,1.0,72,0.00,,---,0.00,0.00,VWS V14.01,2012-12-24 05:28:00,
2012-12-24 00:29:00,53.0,44.2,30.15,NE,37,0.0,1.0,72,0.00,,---,0.00,0.00,VWS V14.01,2012-12-24 05:29:00,
2012-12-24 00:30:00,53.0,44.2,30.15,NE,37,0.0,1.0,72,0.00,,---,0.00,0.00,VWS V14.01,2012-12-24 05:30:00,
2012-12-24 00:31:00,53.0,44.2,30.15,NE,37,0.0,1.0,72,0.00,,---,0.00,0.00,VWS V14.01,2012-12-24 05:31:00,
2012-12-24 00:32:00,53.0,44.2,30.15,NE,37,0.0,1.0,72,0.00,,---,0.00,0.00,VWS V14.01,2012-12-24 05:32:00,
2012-12-24 00:33:00,53.0,44.2,30.15,NE,37,0.0,1.0,72,0.00,,---,0.00,0.00,VWS V14.01,2012-12-24 05:33:00,
2012-12-24 00:34:00,53.0,44.2,30.15,NE,37,0.0,1.0,72,0.00,,---,0.00,0.00,VWS V14.01,2012-12-24 05:34:00,
2012-12-24 00:35:00,53.0,44.2,30.15,NE,37,0.0,1.0,72,0.00,,---,0.00,0.00,VWS V14.01,2012-12-24 05:35:00,
2012-12-24 00:36:00,53.0,44.2,30.15,NE,37,0.0,1.0,72,0.00,,---,0.00,0.00,VWS V14.01,2012-12-24 05:36:00,
2012-12-24 00:37:00,53.1,44.3,30.15,NE,37,0.0,1.0,72,0.00,,---,0.00,0.00,VWS V14.01,2012-12-24 05:37:00,
2012-12-24 00:38:00,53.1,44.3,30.14,NE,37,0.0,1.0,72,0.00,,---,0.00,0.00,VWS V14.01,2012-12-24 05:38:00,
2012-12-24 00:39:00,53.2,44.4,30.14,NE,37,0.0,1.0,72,0.00,,---,0.00,0.00,VWS V14.01,2012-12-24 05:39:00,
2012-12-24 00:40:00,53.2,44.8,30.14,NE,37,0.0,1.0,73,0.00,,---,0.00,0.00,VWS V14.01,2012-12-24 05:40:00,
2012-12-24 00:41:00,53.2,44.8,30.14,NE,37,0.0,1.0,73,0.00,,---,0.00,0.00,VWS V14.01,2012-12-24 05:41:00,
2012-12-24 00:42:00,53.2,44.8,30.14,NE,37,0.0,1.0,73,0.00,,---,0.00,0.00,VWS V14.01,2012-12-24 05:42:00,
2012-12-24 00:43:00,53.2,44.8,30.14,NE,37,0.0,1.0,73,0.00,,---,0.00,0.00,VWS V14.01,2012-12-24 05:43:00,
2012-12-24 00:44:00,53.2,44.8,30.14,NE,37,0.0,1.0,73,0.00,,---,0.00,0.00,VWS V14.01,2012-12-24 05:44:00,
2012-12-24 00:45:00,53.2,44.8,30.14,NE,37,0.0,1.0,73,0.00,,---,0.00,0.00,VWS V14.01,2012-12-24 05:45:00,
2012-12-24 00:46:00,53.2,44.8,30.14,NE,37,0.0,1.0,73,0.00,,---,0.00,0.00,VWS V14.01,2012-12-24 05:46:00,
2012-12-24 00:47:00,53.2,44.8,30.14,NE,37,0.0,1.0,73,0.00,,---,0.00,0.00,VWS V14.01,2012-12-24 05:47:00,
2012-12-24 00:48:00,53.2,44.8,30.14,NE,37,0.0,1.0,73,0.00,,---,0.00,0.00,VWS V14.01,2012-12-24 05:48:00,
2012-12-24 00:49:00,53.1,44.7,30.14,NE,37,0.0,1.0,73,0.00,,---,0.00,0.00,VWS V14.01,2012-12-24 05:49:00,
2012-12-24 00:50:00,53.0,44.6,30.14,NE,37,0.0,1.0,73,0.00,,---,0.00,0.00,VWS V14.01,2012-12-24 05:50:00,
2012-12-24 00:51:00,53.0,44.6,30.14,NE,37,0.0,1.0,73,0.00,,---,0.00,0.00,VWS V14.01,2012-12-24 05:51:00,
2012-12-24 00:52:00,53.0,44.6,30.14,NE,37,0.0,1.0,73,0.00,,---,0.00,0.00,VWS V14.01,2012-12-24 05:52:00,
2012-12-24 00:53:00,52.9,44.5,30.14,NE,37,0.0,1.0,73,0.00,,---,0.00,0.00,VWS V14.01,2012-12-24 05:53:00,
2012-12-24 00:54:00,52.8,44.0,30.14,NE,37,0.0,1.0,72,0.00,,---,0.00,0.00,VWS V14.01,2012-12-24 05:54:00,
2012-12-24 00:55:00,52.8,44.0,30.14,NE,37,0.0,1.0,72,0.00,,---,0.00,0.00,VWS V14.01,2012-12-24 05:55:00,
2012-12-24 00:56:00,52.8,44.0,30.14,NE,37,0.0,1.0,72,0.00,,---,0.00,0.00,VWS V14.01,2012-12-24 05:56:00,
2012-12-24 00:57:00,52.7,43.9,30.14,NE,37,0.0,1.0,72,0.00,,---,0.00,0.00,VWS V14.01,2012-12-24 05:57:00,
2012-12-24 00:58:00,52.7,43.9,30.14,NE,37,0.0,1.0,72,0.00,,---,0.00,0.00,VWS V14.01,2012-12-24 05:58:00,
2012-12-24 00:59:00,52.6,43.8,30.14,NE,37,0.0,1.0,72,0.00,,---,0.00,0.00,VWS V14.01,2012-12-24 05:59:00,
2012-12-24 01:00:00,52.6,43.5,30.14,NE,37,0.0,1.0,71,0.00,,---,0.00,0.00,VWS V14.01,2012-12-24 06:00:00,
2012-12-24 01:01:00,52.5,43.4,30.14,NE,37,0.0,0.0,71,0.00,,---,0.00,0.00,VWS V14.01,2012-12-24 06:01:00,
2012-12-24 01:02:00,52.5,43.4,30.14,NE,37,0.0,0.0,71,0.00,,---,0.00,0.00,VWS V14.01,2012-12-24 06:02:00,
2012-12-24 01:03:00,52.5,43.8,30.13,NE,37,0.0,0.0,72,0.00,,---,0.00,0.00,VWS V14.01,2012-12-24 06:03:00,
2012-12-24 01:04:00,52.4,43.7,30.13,NE,37,0.0,0.0,72,0.00,,---,0.00,0.00,VWS V14.01,2012-12-24 06:04:00,
2012-12-24 01:05:00,52.4,43.7,30.13,NE,37,0.0,0.0,72,0.00,,---,0.00,0.00,VWS V14.01,2012-12-24 06:05:00,
2012-12-24 01:06:00,52.3,43.5,30.13,NE,37,0.0,0.0,72,0.00,,---,0.00,0.00,VWS V14.01,2012-12-24 06:06:00,
2012-12-24 01:07:00,52.3,43.5,30.14,NE,37,0.0,0.0,72,0.00,,---,0.00,0.00,VWS V14.01,2012-12-24 06:07:00,
2012-12-24 01:08:00,52.2,43.5,30.14,NE,37,0.0,0.0,72,0.00,,---,0.00,0.00,VWS V14.01,2012-12-24 06:08:00,
2012-12-24 01:09:00,52.2,43.5,30.14,NE,37,0.0,0.0,72,0.00,,---,0.00,0.00,VWS V14.01,2012-12-24 06:09:00,
2012-12-24 01:10:00,52.1,43.4,30.14,NE,37,0.0,0.0,72,0.00,,---,0.00,0.00,VWS V14.01,2012-12-24 06:10:00,
2012-12-24 01:11:00,52.0,43.3,30.14,NE,37,0.0,0.0,72,0.00,,---,0.00,0.00,VWS V14.01,2012-12-24 06:11:00,
2012-12-24 01:12:00,51.9,43.2,30.14,NE,37,0.0,0.0,72,0.00,,---,0.00,0.00,VWS V14.01,2012-12-24 06:12:00,
2012-12-24 01:13:00,51.8,42.7,30.14,NE,37,0.0,0.0,71,0.00,,---,0.00,0.00,VWS V14.01,2012-12-24 06:13:00,
2012-12-24 01:14:00,51.7,42.6,30.14,NE,37,0.0,0.0,71,0.00,,---,0.00,0.00,VWS V14.01,2012-12-24 06:14:00,
2012-12-24 01:15:00,51.7,42.2,30.14,NE,37,0.0,0.0,70,0.00,,---,0.00,0.00,VWS V14.01,2012-12-24 06:15:00,
2012-12-24 01:16:00,51.6,42.2,30.14,NE,37,0.0,0.0,70,0.00,,---,0.00,0.00,VWS V14.01,2012-12-24 06:16:00,
2012-12-24 01:17:00,51.5,41.7,30.14,NE,37,0.0,0.0,69,0.00,,---,0.00,0.00,VWS V14.01,2012-12-24 06:17:00,
2012-12-24 01:18:00,51.5,41.3,30.14,NE,37,0.0,0.0,68,0.00,,---,0.00,0.00,VWS V14.01,2012-12-24 06:18:00,
2012-12-24 01:19:00,51.5,41.3,30.14,NE,37,0.0,0.0,68,0.00,,---,0.00,0.00,VWS V14.01,2012-12-24 06:19:00,
2012-12-24 01:20:00,51.5,40.9,30.14,NE,37,0.0,0.0,67,0.00,,---,0.00,0.00,VWS V14.01,2012-12-24 06:20:00,
2012-12-24 01:21:00,51.6,41.0,30.14,NE,37,0.0,0.0,67,0.00,,---,0.00,0.00,VWS V14.01,2012-12-24 06:21:00,
2012-12-24 01:22:00,51.5,41.3,30.14,NE,37,0.0,0.0,68,0.00,,---,0.00,0.00,VWS V14.01,2012-12-24 06:22:00,
2012-12-24 01:23:00,51.5,41.3,30.14,NE,37,0.0,0.0,68,0.00,,---,0.00,0.00,VWS V14.01,2012-12-24 06:23:00,
2012-12-24 01:24:00,51.5,41.7,30.14,NE,37,0.0,0.0,69,0.00,,---,0.00,0.00,VWS V14.01,2012-12-24 06:24:00,
2012-12-24 01:25:00,51.5,42.0,30.14,NE,37,0.0,0.0,70,0.00,,---,0.00,0.00,VWS V14.01,2012-12-24 06:25:00,
2012-12-24 01:26:00,51.5,42.0,30.14,NE,37,0.0,0.0,70,0.00,,---,0.00,0.00,VWS V14.01,2012-12-24 06:26:00,
2012-12-24 01:27:00,51.5,42.0,30.14,NE,37,0.0,0.0,70,0.00,,---,0.00,0.00,VWS V14.01,2012-12-24 06:27:00,
2012-12-24 01:28:00,51.4,42.3,30.14,NE,37,0.0,0.0,71,0.00,,---,0.00,0.00,VWS V14.01,2012-12-24 06:28:00,
2012-12-24 01:29:00,51.4,42.7,30.14,NE,37,0.0,0.0,72,0.00,,---,0.00,0.00,VWS V14.01,2012-12-24 06:29:00,
2012-12-24 01:30:00,51.3,43.0,30.14,NE,37,0.0,0.0,73,0.00,,---,0.00,0.00,VWS V14.01,2012-12-24 06:30:00,
2012-12-24 01:31:00,51.3,42.6,30.14,NE,37,0.0,0.0,72,0.00,,---,0.00,0.00,VWS V14.01,2012-12-24 06:31:00,
2012-12-24 01:32:00,51.2,42.5,30.14,NE,37,0.0,0.0,72,0.00,,---,0.00,0.00,VWS V14.01,2012-12-24 06:32:00,
2012-12-24 01:33:00,51.1,42.0,30.14,NE,37,0.0,0.0,71,0.00,,---,0.00,0.00,VWS V14.01,2012-12-24 06:33:00,
2012-12-24 01:34:00,51.1,42.0,30.14,NE,37,0.0,0.0,71,0.00,,---,0.00,0.00,VWS V14.01,2012-12-24 06:34:00,
2012-12-24 01:35:00,51.0,41.9,30.14,NE,37,0.0,0.0,71,0.00,,---,0.00,0.00,VWS V14.01,2012-12-24 06:35:00,
2012-12-24 01:36:00,50.9,41.5,30.14,NE,37,0.0,0.0,70,0.00,,---,0.00,0.00,VWS V14.01,2012-12-24 06:36:00,
2012-12-24 01:37:00,50.9,41.1,30.14,NE,37,0.0,0.0,69,0.00,,---,0.00,0.00,VWS V14.01,2012-12-24 06:37:00,
2012-12-24 01:38:00,50.9,41.5,30.14,NE,37,0.0,0.0,70,0.00,,---,0.00,0.00,VWS V14.01,2012-12-24 06:38:00,
2012-12-24 01:39:00,50.9,41.8,30.14,NE,37,0.0,0.0,71,0.00,,---,0.00,0.00,VWS V14.01,2012-12-24 06:39:00,
2012-12-24 01:40:00,50.9,41.8,30.14,NE,37,0.0,0.0,71,0.00,,---,0.00,0.00,VWS V14.01,2012-12-24 06:40:00,
2012-12-24 01:41:00,50.9,42.2,30.14,NE,37,0.0,0.0,72,0.00,,---,0.00,0.00,VWS V14.01,2012-12-24 06:41:00,
2012-12-24 01:42:00,50.9,42.6,30.14,NE,37,0.0,0.0,73,0.00,,---,0.00,0.00,VWS V14.01,2012-12-24 06:42:00,
2012-12-24 01:43:00,50.8,42.5,30.14,NE,37,0.0,0.0,73,0.00,,---,0.00,0.00,VWS V14.01,2012-12-24 06:43:00,
2012-12-24 01:44:00,50.8,42.8,30.14,NE,37,0.0,0.0,74,0.00,,---,0.00,0.00,VWS V14.01,2012-12-24 06:44:00,
2012-12-24 01:45:00,50.8,43.5,30.14,NE,37,0.0,0.0,76,0.00,,---,0.00,0.00,VWS V14.01,2012-12-24 06:45:00,
2012-12-24 01:46:00,50.8,43.9,30.14,NE,37,0.0,0.0,77,0.00,,---,0.00,0.00,VWS V14.01,2012-12-24 06:46:00,
2012-12-24 01:47:00,50.8,43.5,30.14,NE,37,0.0,0.0,76,0.00,,---,0.00,0.00,VWS V14.01,2012-12-24 06:47:00,
2012-12-24 01:48:00,50.7,43.1,30.14,NE,37,0.0,0.0,75,0.00,,---,0.00,0.00,VWS V14.01,2012-12-24 06:48:00,
2012-12-24 01:49:00,50.6,43.3,30.14,NE,37,0.0,0.0,76,0.00,,---,0.00,0.00,VWS V14.01,2012-12-24 06:49:00,
2012-12-24 01:50:00,50.6,43.3,30.14,NE,37,0.0,0.0,76,0.00,,---,0.00,0.00,VWS V14.01,2012-12-24 06:50:00,
2012-12-24 01:51:00,50.6,43.3,30.14,NE,37,0.0,0.0,76,0.00,,---,0.00,0.00,VWS V14.01,2012-12-24 06:51:00,
2012-12-24 01:52:00,50.5,42.9,30.14,NE,37,0.0,0.0,75,0.00,,---,0.00,0.00,VWS V14.01,2012-12-24 06:52:00,
2012-12-24 01:53:00,50.5,42.9,30.14,NE,37,0.0,0.0,75,0.00,,---,0.00,0.00,VWS V14.01,2012-12-24 06:53:00,
2012-12-24 01:54:00,50.5,42.9,30.14,NE,37,0.0,0.0,75,0.00,,---,0.00,0.00,VWS V14.01,2012-12-24 06:54:00,
2012-12-24 01:55:00,50.5,42.9,30.14,NE,37,0.0,0.0,75,0.00,,---,0.00,0.00,VWS V14.01,2012-12-24 06:55:00,
2012-12-24 01:56:00,50.5,43.2,30.14,NE,37,0.0,0.0,76,0.00,,---,0.00,0.00,VWS V14.01,2012-12-24 06:56:00,
2012-12-24 01:57:00,50.5,43.2,30.14,NE,37,0.0,0.0,76,0.00,,---,0.00,0.00,VWS V14.01,2012-12-24 06:57:00,
2012-12-24 01:58:00,50.5,43.6,30.13,NE,37,0.0,0.0,77,0.00,,---,0.00,0.00,VWS V14.01,2012-12-24 06:58:00,
2012-12-24 01:59:00,50.4,43.5,30.13,NE,37,0.0,0.0,77,0.00,,---,0.00,0.00,VWS V14.01,2012-12-24 06:59:00,
2012-12-24 02:00:00,50.4,43.1,30.13,NE,37,0.0,0.0,76,0.00,,---,0.00,0.00,VWS V14.01,2012-12-24 07:00:00,
2012-12-24 02:01:00,50.4,43.1,30.13,NE,37,0.0,0.0,76,0.00,,---,0.00,0.00,VWS V14.01,2012-12-24 07:01:00,
2012-12-24 02:02:00,50.3,43.4,30.13,NE,37,0.0,0.0,77,0.00,,---,0.00,0.00,VWS V14.01,2012-12-24 07:02:00,
2012-12-24 02:03:00,50.3,44.0,30.13,NE,37,0.0,0.0,79,0.00,,---,0.00,0.00,VWS V14.01,2012-12-24 07:03:00,
2012-12-24 02:04:00,50.2,44.0,30.13,NE,37,0.0,0.0,79,0.00,,---,0.00,0.00,VWS V14.01,2012-12-24 07:04:00,
2012-12-24 02:05:00,50.1,43.5,30.13,NE,37,0.0,0.0,78,0.00,,---,0.00,0.00,VWS V14.01,2012-12-24 07:05:00,
2012-12-24 02:06:00,50.0,43.4,30.13,NE,37,0.0,0.0,78,0.00,,---,0.00,0.00,VWS V14.01,2012-12-24 07:06:00,
2012-12-24 02:07:00,50.0,42.7,30.13,NE,37,0.0,0.0,76,0.00,,---,0.00,0.00,VWS V14.01,2012-12-24 07:07:00,
2012-12-24 02:08:00,50.0,42.0,30.13,NE,37,0.0,0.0,74,0.00,,---,0.00,0.00,VWS V14.01,2012-12-24 07:08:00,
2012-12-24 02:09:00,49.9,42.0,30.13,NE,37,0.0,0.0,74,0.00,,---,0.00,0.00,VWS V14.01,2012-12-24 07:09:00,
2012-12-24 02:10:00,49.9,42.0,30.13,NE,37,0.0,0.0,74,0.00,,---,0.00,0.00,VWS V14.01,2012-12-24 07:10:00,
2012-12-24 02:11:00,49.9,42.0,30.13,NE,37,0.0,0.0,74,0.00,,---,0.00,0.00,VWS V14.01,2012-12-24 07:11:00,
2012-12-24 02:12:00,49.8,41.9,30.13,NE,37,0.0,0.0,74,0.00,,---,0.00,0.00,VWS V14.01,2012-12-24 07:12:00,
2012-12-24 02:13:00,49.7,41.8,30.13,NE,37,0.0,0.0,74,0.00,,---,0.00,0.00,VWS V14.01,2012-12-24 07:13:00,
2012-12-24 02:14:00,49.6,41.7,30.13,NE,37,0.0,0.0,74,0.00,,---,0.00,0.00,VWS V14.01,2012-12-24 07:14:00,
2012-12-24 02:15:00,49.6,41.7,30.13,NE,37,0.0,0.0,74,0.00,,---,0.00,0.00,VWS V14.01,2012-12-24 07:15:00,
2012-12-24 02:16:00,49.6,41.7,30.13,NE,37,0.0,0.0,74,0.00,,---,0.00,0.00,VWS V14.01,2012-12-24 07:16:00,
2012-12-24 02:17:00,49.6,42.0,30.13,NE,37,0.0,0.0,75,0.00,,---,0.00,0.00,VWS V14.01,2012-12-24 07:17:00,
2012-12-24 02:18:00,49.6,42.4,30.13,NE,37,0.0,0.0,76,0.00,,---,0.00,0.00,VWS V14.01,2012-12-24 07:18:00,
2012-12-24 02:19:00,49.5,41.9,30.13,NE,37,0.0,0.0,75,0.00,,---,0.00,0.00,VWS V14.01,2012-12-24 07:19:00,
2012-12-24 02:20:00,49.5,41.6,30.13,NE,37,0.0,0.0,74,0.00,,---,0.00,0.00,VWS V14.01,2012-12-24 07:20:00,
2012-12-24 02:21:00,49.5,41.6,30.13,NE,37,0.0,0.0,74,0.00,,---,0.00,0.00,VWS V14.01,2012-12-24 07:21:00,
2012-12-24 02:22:00,49.5,41.6,30.13,NE,37,0.0,0.0,74,0.00,,---,0.00,0.00,VWS V14.01,2012-12-24 07:22:00,
2012-12-24 02:23:00,49.5,41.6,30.13,NE,37,0.0,0.0,74,0.00,,---,0.00,0.00,VWS V14.01,2012-12-24 07:23:00,
2012-12-24 02:24:00,49.4,41.5,30.13,NE,37,0.0,0.0,74,0.00,,---,0.00,0.00,VWS V14.01,2012-12-24 07:24:00,
2012-12-24 02:25:00,49.4,41.5,30.13,NE,37,0.0,0.0,74,0.00,,---,0.00,0.00,VWS V14.01,2012-12-24 07:25:00,
2012-12-24 02:26:00,49.4,41.1,30.13,NE,37,0.0,0.0,73,0.00,,---,0.00,0.00,VWS V14.01,2012-12-24 07:26:00,
2012-12-24 02:27:00,49.5,41.2,30.13,NE,37,0.0,0.0,73,0.00,,---,0.00,0.00,VWS V14.01,2012-12-24 07:27:00,
2012-12-24 02:28:00,49.5,41.2,30.13,NE,37,0.0,0.0,73,0.00,,---,0.00,0.00,VWS V14.01,2012-12-24 07:28:00,
2012-12-24 02:29:00,49.6,41.3,30.13,NE,37,0.0,0.0,73,0.00,,---,0.00,0.00,VWS V14.01,2012-12-24 07:29:00,
2012-12-24 02:30:00,49.7,41.8,30.13,NE,37,0.0,0.0,74,0.00,,---,0.00,0.00,VWS V14.01,2012-12-24 07:30:00,
2012-12-24 02:31:00,49.7,42.1,30.13,NE,37,0.0,0.0,75,0.00,,---,0.00,0.00,VWS V14.01,2012-12-24 07:31:00,
2012-12-24 02:32:00,49.6,42.0,30.13,NE,37,0.0,0.0,75,0.00,,---,0.00,0.00,VWS V14.01,2012-12-24 07:32:00,
2012-12-24 02:33:00,49.6,42.0,30.13,NE,37,0.0,0.0,75,0.00,,---,0.00,0.00,VWS V14.01,2012-12-24 07:33:00,
2012-12-24 02:34:00,49.6,42.0,30.13,NE,37,0.0,0.0,75,0.00,,---,0.00,0.00,VWS V14.01,2012-12-24 07:34:00,
2012-12-24 02:35:00,49.6,42.0,30.13,NE,37,0.0,0.0,75,0.00,,---,0.00,0.00,VWS V14.01,2012-12-24 07:35:00,
2012-12-24 02:36:00,49.6,41.7,30.13,NE,37,0.0,0.0,74,0.00,,---,0.00,0.00,VWS V14.01,2012-12-24 07:36:00,
2012-12-24 02:37:00,49.7,41.8,30.13,NE,37,0.0,0.0,74,0.00,,---,0.00,0.00,VWS V14.01,2012-12-24 07:37:00,
2012-12-24 02:38:00,49.7,41.8,30.13,NE,37,0.0,0.0,74,0.00,,---,0.00,0.00,VWS V14.01,2012-12-24 07:38:00,
2012-12-24 02:39:00,49.7,41.4,30.13,NE,37,0.0,0.0,73,0.00,,---,0.00,0.00,VWS V14.01,2012-12-24 07:39:00,
2012-12-24 02:40:00,49.7,41.4,30.13,NE,37,0.0,0.0,73,0.00,,---,0.00,0.00,VWS V14.01,2012-12-24 07:40:00,
2012-12-24 02:41:00,49.7,41.4,30.12,NE,37,0.0,0.0,73,0.00,,---,0.00,0.00,VWS V14.01,2012-12-24 07:41:00,
2012-12-24 02:42:00,49.7,41.4,30.13,NE,37,0.0,0.0,73,0.00,,---,0.00,0.00,VWS V14.01,2012-12-24 07:42:00,
2012-12-24 02:43:00,49.7,41.4,30.12,NE,37,0.0,0.0,73,0.00,,---,0.00,0.00,VWS V14.01,2012-12-24 07:43:00,
2012-12-24 02:44:00,49.8,41.2,30.12,NE,37,0.0,0.0,72,0.00,,---,0.00,0.00,VWS V14.01,2012-12-24 07:44:00,
2012-12-24 02:45:00,49.8,41.5,30.12,NE,37,0.0,0.0,73,0.00,,---,0.00,0.00,VWS V14.01,2012-12-24 07:45:00,
2012-12-24 02:46:00,49.9,41.6,30.12,NE,37,0.0,0.0,73,0.00,,---,0.00,0.00,VWS V14.01,2012-12-24 07:46:00,
2012-12-24 02:47:00,49.9,42.0,30.12,NE,37,0.0,0.0,74,0.00,,---,0.00,0.00,VWS V14.01,2012-12-24 07:47:00,
2012-12-24 02:48:00,49.8,42.5,30.12,NE,37,0.0,0.0,76,0.00,,---,0.00,0.00,VWS V14.01,2012-12-24 07:48:00,
2012-12-24 02:49:00,49.7,42.5,30.12,NE,37,0.0,0.0,76,0.00,,---,0.00,0.00,VWS V14.01,2012-12-24 07:49:00,
2012-12-24 02:50:00,49.7,42.5,30.12,NE,37,0.0,0.0,76,0.00,,---,0.00,0.00,VWS V14.01,2012-12-24 07:50:00,
2012-12-24 02:51:00,49.6,42.7,30.13,NE,37,0.0,0.0,77,0.00,,---,0.00,0.00,VWS V14.01,2012-12-24 07:51:00,
2012-12-24 02:52:00,49.5,42.3,30.12,NE,37,0.0,0.0,76,0.00,,---,0.00,0.00,VWS V14.01,2012-12-24 07:52:00,
2012-12-24 02:53:00,49.5,42.3,30.13,NE,37,0.0,0.0,76,0.00,,---,0.00,0.00,VWS V14.01,2012-12-24 07:53:00,
2012-12-24 02:54:00,49.4,42.2,30.13,NE,37,0.0,0.0,76,0.00,,---,0.00,0.00,VWS V14.01,2012-12-24 07:54:00,
2012-12-24 02:55:00,49.4,41.8,30.13,NE,37,0.0,0.0,75,0.00,,---,0.00,0.00,VWS V14.01,2012-12-24 07:55:00,
2012-12-24 02:56:00,49.5,41.6,30.13,NE,37,0.0,0.0,74,0.00,,---,0.00,0.00,VWS V14.01,2012-12-24 07:56:00,
2012-12-24 02:57:00,49.5,41.9,30.13,NE,37,0.0,0.0,75,0.00,,---,0.00,0.00,VWS V14.01,2012-12-24 07:57:00,
2012-12-24 02:58:00,49.6,41.7,30.12,NE,37,0.0,0.0,74,0.00,,---,0.00,0.00,VWS V14.01,2012-12-24 07:58:00,
2012-12-24 02:59:00,49.6,41.7,30.13,NE,37,0.0,0.0,74,0.00,,---,0.00,0.00,VWS V14.01,2012-12-24 07:59:00,
2012-12-24 03:00:00,49.6,41.7,30.13,NE,37,0.0,0.0,74,0.00,,---,0.00,0.00,VWS V14.01,2012-12-24 08:00:00,
2012-12-24 03:01:00,49.6,41.7,30.12,NE,37,0.0,0.0,74,0.00,,---,0.00,0.00,VWS V14.01,2012-12-24 08:01:00,
2012-12-24 03:02:00,49.5,41.6,30.12,NE,37,0.0,0.0,74,0.00,,---,0.00,0.00,VWS V14.01,2012-12-24 08:02:00,
2012-12-24 03:03:00,49.6,42.0,30.12,NE,37,0.0,0.0,75,0.00,,---,0.00,0.00,VWS V14.01,2012-12-24 08:03:00,
2012-12-24 03:04:00,49.6,42.0,30.12,NE,37,0.0,0.0,75,0.00,,---,0.00,0.00,VWS V14.01,2012-12-24 08:04:00,
2012-12-24 03:05:00,49.6,42.0,30.12,NE,37,0.0,0.0,75,0.00,,---,0.00,0.00,VWS V14.01,2012-12-24 08:05:00,
2012-12-24 03:06:00,49.6,41.7,30.12,NE,37,0.0,0.0,74,0.00,,---,0.00,0.00,VWS V14.01,2012-12-24 08:06:00,
2012-12-24 03:07:00,49.6,41.7,30.12,NE,37,0.0,0.0,74,0.00,,---,0.00,0.00,VWS V14.01,2012-12-24 08:07:00,
2012-12-24 03:08:00,49.6,41.7,30.12,NE,37,0.0,0.0,74,0.00,,---,0.00,0.00,VWS V14.01,2012-12-24 08:08:00,
2012-12-24 03:09:00,49.6,41.7,30.12,NE,37,0.0,0.0,74,0.00,,---,0.00,0.00,VWS V14.01,2012-12-24 08:09:00,
2012-12-24 03:10:00,49.6,42.0,30.11,NE,37,0.0,0.0,75,0.00,,---,0.00,0.00,VWS V14.01,2012-12-24 08:10:00,
2012-12-24 03:11:00,49.6,42.4,30.11,NE,37,0.0,0.0,76,0.00,,---,0.00,0.00,VWS V14.01,2012-12-24 08:11:00,
2012-12-24 03:12:00,49.5,42.3,30.11,NE,37,0.0,0.0,76,0.00,,---,0.00,0.00,VWS V14.01,2012-12-24 08:12:00,
2012-12-24 03:13:00,49.5,41.9,30.11,NE,37,0.0,0.0,75,0.00,,---,0.00,0.00,VWS V14.01,2012-12-24 08:13:00,
2012-12-24 03:14:00,49.5,41.9,30.11,NE,37,0.0,0.0,75,0.00,,---,0.00,0.00,VWS V14.01,2012-12-24 08:14:00,
2012-12-24 03:15:00,49.5,41.9,30.11,NE,37,0.0,0.0,75,0.00,,---,0.00,0.00,VWS V14.01,2012-12-24 08:15:00,
2012-12-24 03:16:00,49.5,41.6,30.11,NE,37,0.0,0.0,74,0.00,,---,0.00,0.00,VWS V14.01,2012-12-24 08:16:00,
2012-12-24 03:17:00,49.4,41.5,30.11,NE,37,0.0,0.0,74,0.00,,---,0.00,0.00,VWS V14.01,2012-12-24 08:17:00,
2012-12-24 03:18:00,49.4,41.5,30.11,NE,37,0.0,0.0,74,0.00,,---,0.00,0.00,VWS V14.01,2012-12-24 08:18:00,
2012-12-24 03:19:00,49.4,41.5,30.11,NE,37,0.0,0.0,74,0.00,,---,0.00,0.00,VWS V14.01,2012-12-24 08:19:00,
2012-12-24 03:20:00,49.4,41.5,30.11,NE,37,0.0,0.0,74,0.00,,---,0.00,0.00,VWS V14.01,2012-12-24 08:20:00,
2012-12-24 03:21:00,49.3,41.7,30.11,NE,37,0.0,0.0,75,0.00,,---,0.00,0.00,VWS V14.01,2012-12-24 08:21:00,
2012-12-24 03:22:00,49.2,42.0,30.11,NE,37,0.0,0.0,76,0.00,,---,0.00,0.00,VWS V14.01,2012-12-24 08:22:00,
2012-12-24 03:23:00,49.2,42.0,30.11,NE,37,0.0,0.0,76,0.00,,---,0.00,0.00,VWS V14.01,2012-12-24 08:23:00,
2012-12-24 03:24:00,49.2,42.0,30.11,NE,37,0.0,0.0,76,0.00,,---,0.00,0.00,VWS V14.01,2012-12-24 08:24:00,
2012-12-24 03:25:00,49.2,41.6,30.11,NE,37,0.0,0.0,75,0.00,,---,0.00,0.00,VWS V14.01,2012-12-24 08:25:00,
2012-12-24 03:26:00,49.2,41.6,30.11,NE,37,0.0,0.0,75,0.00,,---,0.00,0.00,VWS V14.01,2012-12-24 08:26:00,
2012-12-24 03:27:00,49.2,41.6,30.11,NE,37,0.0,0.0,75,0.00,,---,0.00,0.00,VWS V14.01,2012-12-24 08:27:00,
2012-12-24 03:28:00,49.2,41.6,30.11,NE,37,0.0,0.0,75,0.00,,---,0.00,0.00,VWS V14.01,2012-12-24 08:28:00,
2012-12-24 03:29:00,49.2,41.6,30.11,NE,37,0.0,0.0,75,0.00,,---,0.00,0.00,VWS V14.01,2012-12-24 08:29:00,
2012-12-24 03:30:00,49.2,41.6,30.11,NE,37,0.0,0.0,75,0.00,,---,0.00,0.00,VWS V14.01,2012-12-24 08:30:00,
2012-12-24 03:31:00,49.2,41.6,30.11,NE,37,0.0,0.0,75,0.00,,---,0.00,0.00,VWS V14.01,2012-12-24 08:31:00,
2012-12-24 03:32:00,49.2,41.6,30.11,NE,37,0.0,0.0,75,0.00,,---,0.00,0.00,VWS V14.01,2012-12-24 08:32:00,
2012-12-24 03:33:00,49.2,41.6,30.11,NE,37,0.0,0.0,75,0.00,,---,0.00,0.00,VWS V14.01,2012-12-24 08:33:00,
2012-12-24 03:34:00,49.2,41.6,30.11,NE,37,0.0,0.0,75,0.00,,---,0.00,0.00,VWS V14.01,2012-12-24 08:34:00,
2012-12-24 03:35:00,49.2,41.6,30.11,NE,37,0.0,0.0,75,0.00,,---,0.00,0.00,VWS V14.01,2012-12-24 08:35:00,
2012-12-24 03:36:00,49.2,42.0,30.11,NE,37,0.0,0.0,76,0.00,,---,0.00,0.00,VWS V14.01,2012-12-24 08:36:00,
2012-12-24 03:37:00,49.2,41.6,30.11,NE,37,0.0,0.0,75,0.00,,---,0.00,0.00,VWS V14.01,2012-12-24 08:37:00,
2012-12-24 03:38:00,49.2,41.6,30.11,NE,37,0.0,0.0,75,0.00,,---,0.00,0.00,VWS V14.01,2012-12-24 08:38:00,
2012-12-24 03:39:00,49.3,41.7,30.11,NE,37,0.0,0.0,75,0.00,,---,0.00,0.00,VWS V14.01,2012-12-24 08:39:00,
2012-12-24 03:40:00,49.4,41.8,30.11,NE,37,0.0,0.0,75,0.00,,---,0.00,0.00,VWS V14.01,2012-12-24 08:40:00,
2012-12-24 03:41:00,49.4,41.5,30.11,NE,37,0.0,0.0,74,0.00,,---,0.00,0.00,VWS V14.01,2012-12-24 08:41:00,
2012-12-24 03:42:00,49.4,41.5,30.11,NE,37,0.0,0.0,74,0.00,,---,0.00,0.00,VWS V14.01,2012-12-24 08:42:00,
2012-12-24 03:43:00,49.5,41.6,30.11,NE,37,0.0,0.0,74,0.00,,---,0.00,0.00,VWS V14.01,2012-12-24 08:43:00,
2012-12-24 03:44:00,49.6,42.0,30.11,NE,37,0.0,0.0,75,0.00,,---,0.00,0.00,VWS V14.01,2012-12-24 08:44:00,
2012-12-24 03:45:00,49.7,42.1,30.11,NE,37,0.0,0.0,75,0.00,,---,0.00,0.00,VWS V14.01,2012-12-24 08:45:00,
2012-12-24 03:46:00,49.8,42.2,30.11,NE,37,0.0,0.0,75,0.00,,---,0.00,0.00,VWS V14.01,2012-12-24 08:46:00,
2012-12-24 03:47:00,49.9,42.7,30.11,NE,37,0.0,0.0,76,0.00,,---,0.00,0.00,VWS V14.01,2012-12-24 08:47:00,
2012-12-24 03:48:00,50.0,42.7,30.11,NE,37,0.0,0.0,76,0.00,,---,0.00,0.00,VWS V14.01,2012-12-24 08:48:00,
2012-12-24 03:49:00,50.1,43.2,30.11,NE,37,0.0,0.0,77,0.00,,---,0.00,0.00,VWS V14.01,2012-12-24 08:49:00,
2012-12-24 03:50:00,50.1,43.2,30.11,NE,37,0.0,0.0,77,0.00,,---,0.00,0.00,VWS V14.01,2012-12-24 08:50:00,
2012-12-24 03:51:00,50.2,43.3,30.11,NE,37,0.0,0.0,77,0.00,,---,0.00,0.00,VWS V14.01,2012-12-24 08:51:00,
2012-12-24 03:52:00,50.3,43.4,30.11,NE,37,0.0,0.0,77,0.00,,---,0.00,0.00,VWS V14.01,2012-12-24 08:52:00,
2012-12-24 03:53:00,50.3,43.4,30.11,NE,37,0.0,0.0,77,0.00,,---,0.00,0.00,VWS V14.01,2012-12-24 08:53:00,
2012-12-24 03:54:00,50.3,43.4,30.11,NE,37,0.0,0.0,77,0.00,,---,0.00,0.00,VWS V14.01,2012-12-24 08:54:00,
2012-12-24 03:55:00,50.4,43.5,30.11,NE,37,0.0,0.0,77,0.00,,---,0.00,0.00,VWS V14.01,2012-12-24 08:55:00,
2012-12-24 03:56:00,50.4,43.5,30.11,NE,37,0.0,0.0,77,0.00,,---,0.00,0.00,VWS V14.01,2012-12-24 08:56:00,
2012-12-24 03:57:00,50.5,43.6,30.11,NE,37,0.0,0.0,77,0.00,,---,0.00,0.00,VWS V14.01,2012-12-24 08:57:00,
2012-12-24 03:58:00,50.5,43.6,30.11,NE,37,0.0,0.0,77,0.00,,---,0.00,0.00,VWS V14.01,2012-12-24 08:58:00,
2012-12-24 03:59:00,50.5,43.6,30.11,NE,37,0.0,0.0,77,0.00,,---,0.00,0.00,VWS V14.01,2012-12-24 08:59:00,
2012-12-24 04:00:00,50.5,43.6,30.11,NE,37,0.0,0.0,77,0.00,,---,0.00,0.00,VWS V14.01,2012-12-24 09:00:00,
2012-12-24 04:01:00,50.6,43.7,30.11,NE,37,0.0,0.0,77,0.00,,---,0.00,0.00,VWS V14.01,2012-12-24 09:01:00,
2012-12-24 04:02:00,50.6,43.7,30.11,NE,37,0.0,0.0,77,0.00,,---,0.00,0.00,VWS V14.01,2012-12-24 09:02:00,
2012-12-24 04:03:00,50.6,43.7,30.11,NE,37,0.0,0.0,77,0.00,,---,0.00,0.00,VWS V14.01,2012-12-24 09:03:00,
2012-12-24 04:04:00,50.6,43.7,30.11,NE,37,0.0,0.0,77,0.00,,---,0.00,0.00,VWS V14.01,2012-12-24 09:04:00,
2012-12-24 04:05:00,50.6,43.7,30.11,NE,37,0.0,0.0,77,0.00,,---,0.00,0.00,VWS V14.01,2012-12-24 09:05:00,
2012-12-24 04:06:00,50.6,43.7,30.11,NE,37,0.0,0.0,77,0.00,,---,0.00,0.00,VWS V14.01,2012-12-24 09:06:00,
2012-12-24 04:07:00,50.6,43.7,30.11,NE,37,0.0,0.0,77,0.00,,---,0.00,0.00,VWS V14.01,2012-12-24 09:07:00,
2012-12-24 04:08:00,50.7,44.1,30.11,NE,37,0.0,0.0,78,0.00,,---,0.00,0.00,VWS V14.01,2012-12-24 09:08:00,
2012-12-24 04:09:00,50.8,44.5,30.11,NE,37,0.0,0.0,79,0.00,,---,0.00,0.00,VWS V14.01,2012-12-24 09:09:00,
2012-12-24 04:10:00,50.8,44.9,30.11,NE,37,0.0,0.0,80,0.00,,---,0.00,0.00,VWS V14.01,2012-12-24 09:10:00,
2012-12-24 04:11:00,50.9,45.0,30.11,NE,37,0.0,0.0,80,0.00,,---,0.00,0.00,VWS V14.01,2012-12-24 09:11:00,
2012-12-24 04:12:00,51.0,44.7,30.11,NE,37,0.0,0.0,79,0.00,,---,0.00,0.00,VWS V14.01,2012-12-24 09:12:00,
2012-12-24 04:13:00,51.0,44.7,30.11,NE,37,0.0,0.0,79,0.00,,---,0.00,0.00,VWS V14.01,2012-12-24 09:13:00,
2012-12-24 04:14:00,51.1,44.8,30.11,NE,37,0.0,0.0,79,0.00,,---,0.00,0.00,VWS V14.01,2012-12-24 09:14:00,
2012-12-24 04:15:00,51.2,44.9,30.11,NE,37,0.0,0.0,79,0.00,,---,0.00,0.00,VWS V14.01,2012-12-24 09:15:00,
2012-12-24 04:16:00,51.2,44.6,30.11,NE,37,0.0,0.0,78,0.00,,---,0.00,0.00,VWS V14.01,2012-12-24 09:16:00,
2012-12-24 04:17:00,51.2,44.2,30.11,NE,37,0.0,0.0,77,0.00,,---,0.00,0.00,VWS V14.01,2012-12-24 09:17:00,
2012-12-24 04:18:00,51.2,44.2,30.11,NE,37,0.0,0.0,77,0.00,,---,0.00,0.00,VWS V14.01,2012-12-24 09:18:00,
2012-12-24 04:19:00,51.2,43.9,30.11,NE,37,0.0,0.0,76,0.00,,---,0.00,0.00,VWS V14.01,2012-12-24 09:19:00,
2012-12-24 04:20:00,51.2,43.9,30.11,NE,37,0.0,0.0,76,0.00,,---,0.00,0.00,VWS V14.01,2012-12-24 09:20:00,
2012-12-24 04:21:00,51.2,43.6,30.11,NE,37,0.0,0.0,75,0.00,,---,0.00,0.00,VWS V14.01,2012-12-24 09:21:00,
2012-12-24 04:22:00,51.2,43.6,30.11,NE,37,0.0,0.0,75,0.00,,---,0.00,0.00,VWS V14.01,2012-12-24 09:22:00,
2012-12-24 04:23:00,51.2,43.6,30.11,NE,37,0.0,0.0,75,0.00,,---,0.00,0.00,VWS V14.01,2012-12-24 09:23:00,
2012-12-24 04:24:00,51.2,43.9,30.11,NE,37,0.0,0.0,76,0.00,,---,0.00,0.00,VWS V14.01,2012-12-24 09:24:00,
2012-12-24 04:25:00,51.2,43.9,30.11,NE,37,0.0,0.0,76,0.00,,---,0.00,0.00,VWS V14.01,2012-12-24 09:25:00,
2012-12-24 04:26:00,51.2,43.9,30.11,NE,37,0.0,0.0,76,0.00,,---,0.00,0.00,VWS V14.01,2012-12-24 09:26:00,
2012-12-24 04:27:00,51.2,43.9,30.11,NE,37,0.0,0.0,76,0.00,,---,0.00,0.00,VWS V14.01,2012-12-24 09:27:00,
2012-12-24 04:28:00,51.2,43.9,30.11,NE,37,0.0,0.0,76,0.00,,---,0.00,0.00,VWS V14.01,2012-12-24 09:28:00,
2012-12-24 04:29:00,51.1,43.8,30.11,NE,37,0.0,0.0,76,0.00,,---,0.00,0.00,VWS V14.01,2012-12-24 09:29:00,
2012-12-24 04:30:00,51.0,43.7,30.11,NE,37,0.0,0.0,76,0.00,,---,0.00,0.00,VWS V14.01,2012-12-24 09:30:00,
2012-12-24 04:31:00,51.0,43.7,30.11,NE,37,0.0,0.0,76,0.00,,---,0.00,0.00,VWS V14.01,2012-12-24 09:31:00,
2012-12-24 04:32:00,50.9,43.6,30.11,NE,37,0.0,0.0,76,0.00,,---,0.00,0.00,VWS V14.01,2012-12-24 09:32:00,
2012-12-24 04:33:00,50.8,43.5,30.11,NE,37,0.0,0.0,76,0.00,,---,0.00,0.00,VWS V14.01,2012-12-24 09:33:00,
2012-12-24 04:34:00,50.8,43.9,30.11,NE,37,0.0,0.0,77,0.00,,---,0.00,0.00,VWS V14.01,2012-12-24 09:34:00,
2012-12-24 04:35:00,50.7,43.8,30.11,NE,37,0.0,0.0,77,0.00,,---,0.00,0.00,VWS V14.01,2012-12-24 09:35:00,
2012-12-24 04:36:00,50.6,43.7,30.11,NE,37,0.0,0.0,77,0.00,,---,0.00,0.00,VWS V14.01,2012-12-24 09:36:00,
2012-12-24 04:37:00,50.6,44.0,30.10,NE,37,0.0,0.0,78,0.00,,---,0.00,0.00,VWS V14.01,2012-12-24 09:37:00,
2012-12-24 04:38:00,50.5,43.9,30.11,NE,37,0.0,0.0,78,0.00,,---,0.00,0.00,VWS V14.01,2012-12-24 09:38:00,
2012-12-24 04:39:00,50.4,43.8,30.11,NE,37,0.0,0.0,78,0.00,,---,0.00,0.00,VWS V14.01,2012-12-24 09:39:00,
2012-12-24 04:40:00,50.3,43.7,30.11,NE,37,0.0,0.0,78,0.00,,---,0.00,0.00,VWS V14.01,2012-12-24 09:40:00,
2012-12-24 04:41:00,50.3,43.7,30.11,NE,37,0.0,0.0,78,0.00,,---,0.00,0.00,VWS V14.01,2012-12-24 09:41:00,
2012-12-24 04:42:00,50.2,43.6,30.10,NE,37,0.0,0.0,78,0.00,,---,0.00,0.00,VWS V14.01,2012-12-24 09:42:00,
2012-12-24 04:43:00,50.2,43.3,30.10,NE,37,0.0,0.0,77,0.00,,---,0.00,0.00,VWS V14.01,2012-12-24 09:43:00,
2012-12-24 04:44:00,50.1,43.2,30.10,NE,37,0.0,0.0,77,0.00,,---,0.00,0.00,VWS V14.01,2012-12-24 09:44:00,
2012-12-24 04:45:00,50.1,43.2,30.10,NE,37,0.0,0.0,77,0.00,,---,0.00,0.00,VWS V14.01,2012-12-24 09:45:00,
2012-12-24 04:46:00,50.1,43.2,30.10,NE,37,0.0,0.0,77,0.00,,---,0.00,0.00,VWS V14.01,2012-12-24 09:46:00,
2012-12-24 04:47:00,50.0,42.7,30.10,NE,37,0.0,0.0,76,0.00,,---,0.00,0.00,VWS V14.01,2012-12-24 09:47:00,
2012-12-24 04:48:00,49.9,42.7,30.10,NE,37,0.0,0.0,76,0.00,,---,0.00,0.00,VWS V14.01,2012-12-24 09:48:00,
2012-12-24 04:49:00,49.9,42.7,30.10,NE,37,0.0,0.0,76,0.00,,---,0.00,0.00,VWS V14.01,2012-12-24 09:49:00,
2012-12-24 04:50:00,49.9,42.7,30.10,NE,37,0.0,0.0,76,0.00,,---,0.00,0.00,VWS V14.01,2012-12-24 09:50:00,
2012-12-24 04:51:00,49.8,42.9,30.10,NE,37,0.0,0.0,77,0.00,,---,0.00,0.00,VWS V14.01,2012-12-24 09:51:00,
2012-12-24 04:52:00,49.8,42.9,30.10,NE,37,0.0,0.0,77,0.00,,---,0.00,0.00,VWS V14.01,2012-12-24 09:52:00,
2012-12-24 04:53:00,49.7,42.8,30.10,NE,37,0.0,0.0,77,0.00,,---,0.00,0.00,VWS V14.01,2012-12-24 09:53:00,
2012-12-24 04:54:00,49.7,42.8,30.10,NE,37,0.0,0.0,77,0.00,,---,0.00,0.00,VWS V14.01,2012-12-24 09:54:00,
2012-12-24 04:55:00,49.6,42.7,30.10,NE,37,0.0,0.0,77,0.00,,---,0.00,0.00,VWS V14.01,2012-12-24 09:55:00,
2012-12-24 04:56:00,49.6,42.7,30.10,NE,37,0.0,0.0,77,0.00,,---,0.00,0.00,VWS V14.01,2012-12-24 09:56:00,
2012-12-24 04:57:00,49.5,42.6,30.10,NE,37,0.0,0.0,77,0.00,,---,0.00,0.00,VWS V14.01,2012-12-24 09:57:00,
2012-12-24 04:58:00,49.5,42.9,30.10,NE,37,0.0,0.0,78,0.00,,---,0.00,0.00,VWS V14.01,2012-12-24 09:58:00,
2012-12-24 04:59:00,49.5,42.9,30.10,NE,37,0.0,0.0,78,0.00,,---,0.00,0.00,VWS V14.01,2012-12-24 09:59:00,
2012-12-24 05:00:00,49.4,42.8,30.10,NE,37,0.0,0.0,78,0.00,,---,0.00,0.00,VWS V14.01,2012-12-24 10:00:00,
2012-12-24 05:01:00,49.4,43.2,30.10,NE,37,0.0,0.0,79,0.00,,---,0.00,0.00,VWS V14.01,2012-12-24 10:01:00,
2012-12-24 05:02:00,49.3,43.4,30.10,NE,37,0.0,0.0,80,0.00,,---,0.00,0.00,VWS V14.01,2012-12-24 10:02:00,
2012-12-24 05:03:00,49.3,43.4,30.10,NE,37,0.0,0.0,80,0.00,,---,0.00,0.00,VWS V14.01,2012-12-24 10:03:00,
2012-12-24 05:04:00,49.2,43.3,30.11,NE,37,0.0,0.0,80,0.00,,---,0.00,0.00,VWS V14.01,2012-12-24 10:04:00,
2012-12-24 05:05:00,49.2,43.3,30.11,NE,37,0.0,0.0,80,0.00,,---,0.00,0.00,VWS V14.01,2012-12-24 10:05:00,
2012-12-24 05:06:00,49.2,43.3,30.11,NE,37,0.0,0.0,80,0.00,,---,0.00,0.00,VWS V14.01,2012-12-24 10:06:00,
2012-12-24 05:07:00,49.1,43.2,30.11,NE,37,0.0,0.0,80,0.00,,---,0.00,0.00,VWS V14.01,2012-12-24 10:07:00,
2012-12-24 05:08:00,49.1,43.2,30.11,NE,37,0.0,0.0,80,0.00,,---,0.00,0.00,VWS V14.01,2012-12-24 10:08:00,
2012-12-24 05:09:00,49.1,43.5,30.11,NE,37,0.0,0.0,81,0.00,,---,0.00,0.00,VWS V14.01,2012-12-24 10:09:00,
2012-12-24 05:10:00,49.1,43.5,30.11,NE,37,0.0,0.0,81,0.00,,---,0.00,0.00,VWS V14.01,2012-12-24 10:10:00,
2012-12-24 05:11:00,49.1,43.5,30.11,NE,37,0.0,0.0,81,0.00,,---,0.00,0.00,VWS V14.01,2012-12-24 10:11:00,
2012-12-24 05:12:00,49.1,43.5,30.11,NE,37,0.0,0.0,81,0.00,,---,0.00,0.00,VWS V14.01,2012-12-24 10:12:00,
2012-12-24 05:13:00,49.1,43.5,30.11,NE,37,0.0,0.0,81,0.00,,---,0.00,0.00,VWS V14.01,2012-12-24 10:13:00,
2012-12-24 05:14:00,49.2,43.6,30.11,NE,37,0.0,0.0,81,0.00,,---,0.00,0.00,VWS V14.01,2012-12-24 10:14:00,
2012-12-24 05:15:00,49.2,43.6,30.11,NE,37,0.0,0.0,81,0.00,,---,0.00,0.00,VWS V14.01,2012-12-24 10:15:00,
2012-12-24 05:16:00,49.3,43.7,30.11,NE,37,0.0,0.0,81,0.00,,---,0.00,0.00,VWS V14.01,2012-12-24 10:16:00,
2012-12-24 05:17:00,49.4,43.8,30.11,NE,37,0.0,0.0,81,0.00,,---,0.00,0.00,VWS V14.01,2012-12-24 10:17:00,
2012-12-24 05:18:00,49.4,43.8,30.11,NE,37,0.0,0.0,81,0.00,,---,0.00,0.00,VWS V14.01,2012-12-24 10:18:00,
2012-12-24 05:19:00,49.5,43.9,30.11,NE,37,0.0,0.0,81,0.00,,---,0.00,0.00,VWS V14.01,2012-12-24 10:19:00,
2012-12-24 05:20:00,49.6,44.3,30.11,NE,37,0.0,0.0,82,0.00,,---,0.00,0.00,VWS V14.01,2012-12-24 10:20:00,
2012-12-24 05:21:00,49.6,44.3,30.12,NE,37,0.0,0.0,82,0.00,,---,0.00,0.00,VWS V14.01,2012-12-24 10:21:00,
2012-12-24 05:22:00,49.7,44.4,30.11,NE,37,0.0,0.0,82,0.00,,---,0.00,0.00,VWS V14.01,2012-12-24 10:22:00,
2012-12-24 05:23:00,49.8,44.5,30.12,NE,37,0.0,0.0,82,0.00,,---,0.00,0.00,VWS V14.01,2012-12-24 10:23:00,
2012-12-24 05:24:00,49.9,44.6,30.11,NE,37,0.0,0.0,82,0.00,,---,0.00,0.00,VWS V14.01,2012-12-24 10:24:00,
2012-12-24 05:25:00,49.9,44.6,30.12,NE,37,0.0,0.0,82,0.00,,---,0.00,0.00,VWS V14.01,2012-12-24 10:25:00,
2012-12-24 05:26:00,49.9,44.6,30.12,NE,37,0.0,0.0,82,0.00,,---,0.00,0.00,VWS V14.01,2012-12-24 10:26:00,
2012-12-24 05:27:00,49.9,44.6,30.12,NE,37,0.0,0.0,82,0.00,,---,0.00,0.00,VWS V14.01,2012-12-24 10:27:00,
2012-12-24 05:28:00,50.0,45.0,30.12,NE,37,0.0,0.0,83,0.00,,---,0.00,0.00,VWS V14.01,2012-12-24 10:28:00,
2012-12-24 05:29:00,50.0,45.0,30.12,NE,37,0.0,0.0,83,0.00,,---,0.00,0.00,VWS V14.01,2012-12-24 10:29:00,
2012-12-24 05:30:00,50.1,44.8,30.12,NE,37,0.0,0.0,82,0.00,,---,0.00,0.00,VWS V14.01,2012-12-24 10:30:00,
2012-12-24 05:31:00,50.1,44.8,30.12,NE,37,0.0,0.0,82,0.00,,---,0.00,0.00,VWS V14.01,2012-12-24 10:31:00,
2012-12-24 05:32:00,50.1,44.8,30.12,NE,37,0.0,0.0,82,0.00,,---,0.00,0.00,VWS V14.01,2012-12-24 10:32:00,
2012-12-24 05:33:00,50.2,44.9,30.12,NE,37,0.0,0.0,82,0.00,,---,0.00,0.00,VWS V14.01,2012-12-24 10:33:00,
2012-12-24 05:34:00,50.2,44.9,30.12,NE,37,0.0,0.0,82,0.00,,---,0.00,0.00,VWS V14.01,2012-12-24 10:34:00,
2012-12-24 05:35:00,50.3,45.3,30.12,NE,37,0.0,0.0,83,0.00,,---,0.00,0.00,VWS V14.01,2012-12-24 10:35:00,
2012-12-24 05:36:00,50.3,45.3,30.12,NE,37,0.0,0.0,83,0.00,,---,0.00,0.00,VWS V14.01,2012-12-24 10:36:00,
2012-12-24 05:37:00,50.2,45.2,30.12,NE,37,0.0,0.0,83,0.00,,---,0.00,0.00,VWS V14.01,2012-12-24 10:37:00,
2012-12-24 05:38:00,50.2,45.2,30.12,NE,37,0.0,0.0,83,0.00,,---,0.00,0.00,VWS V14.01,2012-12-24 10:38:00,
2012-12-24 05:39:00,50.2,45.2,30.12,NE,37,0.0,0.0,83,0.00,,---,0.00,0.00,VWS V14.01,2012-12-24 10:39:00,
2012-12-24 05:40:00,50.2,45.2,30.12,NE,37,0.0,0.0,83,0.00,,---,0.00,0.00,VWS V14.01,2012-12-24 10:40:00,
2012-12-24 05:41:00,50.3,45.3,30.12,NE,37,0.0,0.0,83,0.00,,---,0.00,0.00,VWS V14.01,2012-12-24 10:41:00,
2012-12-24 05:42:00,50.3,45.3,30.12,NE,37,0.0,0.0,83,0.00,,---,0.00,0.00,VWS V14.01,2012-12-24 10:42:00,
2012-12-24 05:43:00,50.3,45.3,30.12,NE,37,0.0,0.0,83,0.00,,---,0.00,0.00,VWS V14.01,2012-12-24 10:43:00,
2012-12-24 05:44:00,50.3,45.3,30.12,NE,37,0.0,0.0,83,0.00,,---,0.00,0.00,VWS V14.01,2012-12-24 10:44:00,
2012-12-24 05:45:00,50.3,45.3,30.12,NE,37,0.0,0.0,83,0.00,,---,0.00,0.00,VWS V14.01,2012-12-24 10:45:00,
2012-12-24 05:46:00,50.4,45.4,30.12,NE,37,0.0,0.0,83,0.00,,---,0.00,0.00,VWS V14.01,2012-12-24 10:46:00,
2012-12-24 05:47:00,50.4,45.4,30.12,NE,37,0.0,0.0,83,0.00,,---,0.00,0.00,VWS V14.01,2012-12-24 10:47:00,
2012-12-24 05:48:00,50.4,45.4,30.12,NE,37,0.0,0.0,83,0.00,,---,0.00,0.00,VWS V14.01,2012-12-24 10:48:00,
2012-12-24 05:49:00,50.5,45.5,30.12,NE,37,0.0,0.0,83,0.00,,---,0.00,0.00,VWS V14.01,2012-12-24 10:49:00,
2012-12-24 05:50:00,50.5,45.5,30.12,NE,37,0.0,0.0,83,0.00,,---,0.00,0.00,VWS V14.01,2012-12-24 10:50:00,
2012-12-24 05:51:00,50.5,45.2,30.12,NE,37,0.0,0.0,82,0.00,,---,0.00,0.00,VWS V14.01,2012-12-24 10:51:00,
2012-12-24 05:52:00,50.5,45.2,30.12,NE,37,0.0,0.0,82,0.00,,---,0.00,0.00,VWS V14.01,2012-12-24 10:52:00,
2012-12-24 05:53:00,50.6,45.3,30.12,NE,37,0.0,0.0,82,0.00,,---,0.00,0.00,VWS V14.01,2012-12-24 10:53:00,
2012-12-24 05:54:00,50.6,45.3,30.12,NE,37,0.0,0.0,82,0.00,,---,0.00,0.00,VWS V14.01,2012-12-24 10:54:00,
2012-12-24 05:55:00,50.6,45.6,30.12,NE,37,1.0,1.0,83,0.00,,---,0.00,0.00,VWS V14.01,2012-12-24 10:55:00,
2012-12-24 05:56:00,50.6,45.6,30.12,NE,37,0.0,1.0,83,0.00,,---,0.00,0.00,VWS V14.01,2012-12-24 10:56:00,
2012-12-24 05:57:00,50.6,45.6,30.12,NE,37,0.0,1.0,83,0.00,,---,0.00,0.00,VWS V14.01,2012-12-24 10:57:00,
2012-12-24 05:58:00,50.6,45.6,30.13,NE,37,0.0,1.0,83,0.00,,---,0.00,0.00,VWS V14.01,2012-12-24 10:58:00,
2012-12-24 05:59:00,50.6,45.3,30.12,NE,37,0.0,1.0,82,0.00,,---,0.00,0.00,VWS V14.01,2012-12-24 10:59:00,
2012-12-24 06:00:00,50.7,45.4,30.12,NE,37,0.0,1.0,82,0.00,,---,0.00,0.00,VWS V14.01,2012-12-24 11:00:00,
2012-12-24 06:01:00,50.7,45.4,30.12,NE,37,0.0,0.0,82,0.00,,---,0.00,0.00,VWS V14.01,2012-12-24 11:01:00,
2012-12-24 06:02:00,50.7,45.4,30.12,NE,37,0.0,0.0,82,0.00,,---,0.00,0.00,VWS V14.01,2012-12-24 11:02:00,
2012-12-24 06:03:00,50.7,45.4,30.12,NE,37,0.0,0.0,82,0.00,,---,0.00,0.00,VWS V14.01,2012-12-24 11:03:00,
2012-12-24 06:04:00,50.7,45.4,30.12,NE,37,0.0,0.0,82,0.00,,---,0.00,0.00,VWS V14.01,2012-12-24 11:04:00,
2012-12-24 06:05:00,50.7,45.4,30.12,NE,37,0.0,0.0,82,0.00,,---,0.00,0.00,VWS V14.01,2012-12-24 11:05:00,
2012-12-24 06:06:00,50.6,45.6,30.12,NE,37,0.0,0.0,83,0.00,,---,0.00,0.00,VWS V14.01,2012-12-24 11:06:00,
2012-12-24 06:07:00,50.6,45.6,30.12,NE,37,0.0,0.0,83,0.00,,---,0.00,0.00,VWS V14.01,2012-12-24 11:07:00,
2012-12-24 06:08:00,50.5,45.5,30.12,NE,37,0.0,0.0,83,0.00,,---,0.00,0.00,VWS V14.01,2012-12-24 11:08:00,
2012-12-24 06:09:00,50.5,45.5,30.12,NE,37,0.0,0.0,83,0.00,,---,0.00,0.00,VWS V14.01,2012-12-24 11:09:00,
2012-12-24 06:10:00,50.4,45.4,30.12,NE,37,0.0,0.0,83,0.00,,---,0.00,0.00,VWS V14.01,2012-12-24 11:10:00,
2012-12-24 06:11:00,50.4,45.8,30.12,NE,37,0.0,0.0,84,0.00,,---,0.00,0.00,VWS V14.01,2012-12-24 11:11:00,
2012-12-24 06:12:00,50.3,45.7,30.12,NE,37,0.0,0.0,84,0.00,,---,0.00,0.00,VWS V14.01,2012-12-24 11:12:00,
2012-12-24 06:13:00,50.2,45.6,30.11,NE,37,0.0,0.0,84,0.00,,---,0.00,0.00,VWS V14.01,2012-12-24 11:13:00,
2012-12-24 06:14:00,50.2,45.6,30.11,NE,37,0.0,0.0,84,0.00,,---,0.00,0.00,VWS V14.01,2012-12-24 11:14:00,
2012-12-24 06:15:00,50.1,45.5,30.11,NE,37,0.0,0.0,84,0.00,,---,0.00,0.00,VWS V14.01,2012-12-24 11:15:00,
2012-12-24 06:16:00,50.1,45.5,30.11,NE,37,0.0,0.0,84,0.00,,---,0.00,0.00,VWS V14.01,2012-12-24 11:16:00,
2012-12-24 06:17:00,50.1,45.5,30.11,NE,37,0.0,0.0,84,0.00,,---,0.00,0.00,VWS V14.01,2012-12-24 11:17:00,
2012-12-24 06:18:00,50.0,45.7,30.12,NE,37,0.0,0.0,85,0.00,,---,0.00,0.00,VWS V14.01,2012-12-24 11:18:00,
2012-12-24 06:19:00,50.0,45.7,30.12,NE,37,0.0,0.0,85,0.00,,---,0.00,0.00,VWS V14.01,2012-12-24 11:19:00,
2012-12-24 06:20:00,49.9,45.6,30.12,NE,37,0.0,0.0,85,0.00,,---,0.00,0.00,VWS V14.01,2012-12-24 11:20:00,
2012-12-24 06:21:00,49.7,45.4,30.12,NE,37,0.0,0.0,85,0.00,,---,0.00,0.00,VWS V14.01,2012-12-24 11:21:00,
2012-12-24 06:22:00,49.7,45.4,30.12,NE,37,0.0,0.0,85,0.00,,---,0.00,0.00,VWS V14.01,2012-12-24 11:22:00,
2012-12-24 06:23:00,49.6,45.3,30.12,NE,37,0.0,0.0,85,0.00,,---,0.00,0.00,VWS V14.01,2012-12-24 11:23:00,
2012-12-24 06:24:00,49.5,45.2,30.12,NE,37,0.0,0.0,85,0.00,,---,0.00,0.00,VWS V14.01,2012-12-24 11:24:00,
2012-12-24 06:25:00,49.5,45.2,30.12,NE,37,0.0,0.0,85,0.00,,---,0.00,0.00,VWS V14.01,2012-12-24 11:25:00,
2012-12-24 06:26:00,49.4,45.1,30.12,NE,37,0.0,0.0,85,0.00,,---,0.00,0.00,VWS V14.01,2012-12-24 11:26:00,
2012-12-24 06:27:00,49.4,45.4,30.12,NE,37,0.0,0.0,86,0.00,,---,0.00,0.00,VWS V14.01,2012-12-24 11:27:00,
2012-12-24 06:28:00,49.3,45.0,30.12,NE,37,0.0,0.0,85,0.00,,---,0.00,0.00,VWS V14.01,2012-12-24 11:28:00,
2012-12-24 06:29:00,49.3,45.0,30.12,NE,37,0.0,0.0,85,0.00,,---,0.00,0.00,VWS V14.01,2012-12-24 11:29:00,
2012-12-24 06:30:00,49.3,45.0,30.12,NE,37,0.0,0.0,85,0.00,,---,0.00,0.00,VWS V14.01,2012-12-24 11:30:00,
2012-12-24 06:31:00,49.3,45.0,30.12,NE,37,0.0,0.0,85,0.00,,---,0.00,0.00,VWS V14.01,2012-12-24 11:31:00,
2012-12-24 06:32:00,49.2,44.9,30.12,NE,37,0.0,0.0,85,0.00,,---,0.00,0.00,VWS V14.01,2012-12-24 11:32:00,
2012-12-24 06:33:00,49.2,44.9,30.12,NE,37,0.0,0.0,85,0.00,,---,0.00,0.00,VWS V14.01,2012-12-24 11:33:00,
2012-12-24 06:34:00,49.2,44.9,30.12,NE,37,0.0,0.0,85,0.00,,---,0.00,0.00,VWS V14.01,2012-12-24 11:34:00,
2012-12-24 06:35:00,49.2,44.9,30.12,NE,37,0.0,0.0,85,0.00,,---,0.00,0.00,VWS V14.01,2012-12-24 11:35:00,
2012-12-24 06:36:00,49.2,44.9,30.12,NE,37,0.0,0.0,85,0.00,,---,0.00,0.00,VWS V14.01,2012-12-24 11:36:00,
2012-12-24 06:37:00,49.2,44.9,30.12,NE,37,0.0,0.0,85,0.00,,---,0.00,0.00,VWS V14.01,2012-12-24 11:37:00,
2012-12-24 06:38:00,49.2,44.9,30.12,NE,37,0.0,0.0,85,0.00,,---,0.00,0.00,VWS V14.01,2012-12-24 11:38:00,
2012-12-24 06:39:00,49.2,44.9,30.12,NE,37,0.0,0.0,85,0.00,,---,0.00,0.00,VWS V14.01,2012-12-24 11:39:00,
2012-12-24 06:40:00,49.2,44.9,30.12,NE,37,0.0,0.0,85,0.00,,---,0.00,0.00,VWS V14.01,2012-12-24 11:40:00,
2012-12-24 06:41:00,49.2,44.9,30.12,NE,37,0.0,0.0,85,0.00,,---,0.00,0.00,VWS V14.01,2012-12-24 11:41:00,
2012-12-24 06:42:00,49.2,44.9,30.12,NE,37,0.0,0.0,85,0.00,,---,0.00,0.00,VWS V14.01,2012-12-24 11:42:00,
2012-12-24 06:43:00,49.2,44.9,30.12,NE,37,0.0,0.0,85,0.00,,---,0.00,0.00,VWS V14.01,2012-12-24 11:43:00,
2012-12-24 06:44:00,49.3,45.3,30.12,NE,37,0.0,0.0,86,0.00,,---,0.00,0.00,VWS V14.01,2012-12-24 11:44:00,
2012-12-24 06:45:00,49.3,45.3,30.12,NE,37,0.0,0.0,86,0.00,,---,0.00,0.00,VWS V14.01,2012-12-24 11:45:00,
2012-12-24 06:46:00,49.3,45.3,30.11,NE,37,0.0,0.0,86,0.00,,---,0.00,0.00,VWS V14.01,2012-12-24 11:46:00,
2012-12-24 06:47:00,49.3,45.3,30.11,NE,37,0.0,0.0,86,0.00,,---,0.00,0.00,VWS V14.01,2012-12-24 11:47:00,
2012-12-24 06:48:00,49.3,45.3,30.11,NE,37,0.0,0.0,86,0.00,,---,0.00,0.00,VWS V14.01,2012-12-24 11:48:00,
2012-12-24 06:49:00,49.2,45.2,30.11,NE,37,0.0,0.0,86,0.00,,---,0.00,0.00,VWS V14.01,2012-12-24 11:49:00,
2012-12-24 06:50:00,49.1,45.1,30.11,NE,37,0.0,0.0,86,0.00,,---,0.00,0.00,VWS V14.01,2012-12-24 11:50:00,
2012-12-24 06:51:00,49.1,45.1,30.11,NE,37,0.0,0.0,86,0.00,,---,0.00,0.00,VWS V14.01,2012-12-24 11:51:00,
2012-12-24 06:52:00,49.1,45.1,30.12,NE,37,0.0,0.0,86,0.00,,---,0.00,0.00,VWS V14.01,2012-12-24 11:52:00,
2012-12-24 06:53:00,49.0,45.0,30.12,NE,37,0.0,0.0,86,0.00,,---,0.00,0.00,VWS V14.01,2012-12-24 11:53:00,
2012-12-24 06:54:00,49.0,45.0,30.12,NE,37,0.0,0.0,86,0.00,,---,0.00,0.00,VWS V14.01,2012-12-24 11:54:00,
2012-12-24 06:55:00,49.0,45.0,30.12,NE,37,0.0,0.0,86,0.00,,---,0.00,0.00,VWS V14.01,2012-12-24 11:55:00,
2012-12-24 06:56:00,49.0,45.0,30.12,NE,37,0.0,0.0,86,0.00,,---,0.00,0.00,VWS V14.01,2012-12-24 11:56:00,
2012-12-24 06:57:00,49.0,45.0,30.12,NE,37,0.0,0.0,86,0.00,,---,0.00,0.00,VWS V14.01,2012-12-24 11:57:00,
2012-12-24 06:58:00,49.0,45.0,30.12,NE,37,0.0,0.0,86,0.00,,---,0.00,0.00,VWS V14.01,2012-12-24 11:58:00,
2012-12-24 06:59:00,49.1,45.4,30.12,NE,37,0.0,0.0,87,0.00,,---,0.00,0.00,VWS V14.01,2012-12-24 11:59:00,
2012-12-24 07:00:00,49.1,45.4,30.11,NE,37,0.0,0.0,87,0.00,,---,0.00,0.00,VWS V14.01,2012-12-24 12:00:00,
2012-12-24 07:01:00,49.2,45.5,30.11,NE,37,0.0,0.0,87,0.00,,---,0.00,0.00,VWS V14.01,2012-12-24 12:01:00,
2012-12-24 07:02:00,49.2,45.5,30.11,NE,37,0.0,0.0,87,0.00,,---,0.00,0.00,VWS V14.01,2012-12-24 12:02:00,
2012-12-24 07:03:00,49.2,45.5,30.11,NE,37,0.0,0.0,87,0.00,,---,0.00,0.00,VWS V14.01,2012-12-24 12:03:00,
2012-12-24 07:04:00,49.2,45.5,30.11,NE,37,0.0,0.0,87,0.00,,---,0.00,0.00,VWS V14.01,2012-12-24 12:04:00,
2012-12-24 07:05:00,49.1,45.4,30.11,NE,37,0.0,0.0,87,0.00,,---,0.00,0.00,VWS V14.01,2012-12-24 12:05:00,
2012-12-24 07:06:00,49.1,45.4,30.12,NE,37,0.0,0.0,87,0.00,,---,0.00,0.00,VWS V14.01,2012-12-24 12:06:00,
2012-12-24 07:07:00,49.1,45.4,30.11,NE,37,0.0,0.0,87,0.00,,---,0.00,5.00,VWS V14.01,2012-12-24 12:07:00,
2012-12-24 07:08:00,49.1,45.4,30.12,NE,37,0.0,0.0,87,0.00,,---,0.00,5.00,VWS V14.01,2012-12-24 12:08:00,
2012-12-24 07:09:00,49.1,45.4,30.12,NE,37,0.0,0.0,87,0.00,,---,0.00,5.00,VWS V14.01,2012-12-24 12:09:00,
2012-12-24 07:10:00,49.1,45.4,30.12,NE,37,0.0,0.0,87,0.00,,---,0.00,7.00,VWS V14.01,2012-12-24 12:10:00,
2012-12-24 07:11:00,49.1,45.4,30.12,NE,37,0.0,0.0,87,0.00,,---,0.00,7.00,VWS V14.01,2012-12-24 12:11:00,
2012-12-24 07:12:00,49.1,45.4,30.12,NE,37,0.0,0.0,87,0.00,,---,0.00,7.00,VWS V14.01,2012-12-24 12:12:00,
2012-12-24 07:13:00,49.2,45.5,30.12,NE,37,0.0,0.0,87,0.00,,---,0.00,9.00,VWS V14.01,2012-12-24 12:13:00,
2012-12-24 07:14:00,49.2,45.5,30.13,NE,37,0.0,0.0,87,0.00,,---,0.00,9.00,VWS V14.01,2012-12-24 12:14:00,
2012-12-24 07:15:00,49.2,45.5,30.12,NE,37,0.0,0.0,87,0.00,,---,0.00,11.00,VWS V14.01,2012-12-24 12:15:00,
2012-12-24 07:16:00,49.3,45.6,30.12,NE,37,0.0,0.0,87,0.00,,---,0.00,12.00,VWS V14.01,2012-12-24 12:16:00,
2012-12-24 07:17:00,49.4,45.4,30.12,NE,37,0.0,0.0,86,0.00,,---,0.00,14.00,VWS V14.01,2012-12-24 12:17:00,
2012-12-24 07:18:00,49.4,45.7,30.13,NE,37,0.0,0.0,87,0.00,,---,0.00,14.00,VWS V14.01,2012-12-24 12:18:00,
2012-12-24 07:19:00,49.5,45.5,30.12,NE,37,0.0,0.0,86,0.00,,---,0.00,16.00,VWS V14.01,2012-12-24 12:19:00,
2012-12-24 07:20:00,49.6,45.6,30.12,NE,37,0.0,0.0,86,0.00,,---,0.00,16.00,VWS V14.01,2012-12-24 12:20:00,
2012-12-24 07:21:00,49.7,45.7,30.12,NE,37,0.0,0.0,86,0.00,,---,0.00,18.00,VWS V14.01,2012-12-24 12:21:00,
2012-12-24 07:22:00,49.7,45.7,30.13,NE,37,0.0,0.0,86,0.00,,---,0.00,21.00,VWS V14.01,2012-12-24 12:22:00,
2012-12-24 07:23:00,49.9,45.9,30.13,NE,37,0.0,0.0,86,0.00,,---,0.00,23.00,VWS V14.01,2012-12-24 12:23:00,
2012-12-24 07:24:00,50.0,46.0,30.13,NE,37,0.0,0.0,86,0.00,,---,0.00,25.00,VWS V14.01,2012-12-24 12:24:00,
2012-12-24 07:25:00,50.0,46.0,30.13,NE,37,0.0,0.0,86,0.00,,---,0.00,26.00,VWS V14.01,2012-12-24 12:25:00,
2012-12-24 07:26:00,50.1,46.1,30.13,NE,37,0.0,0.0,86,0.00,,---,0.00,30.00,VWS V14.01,2012-12-24 12:26:00,
2012-12-24 07:27:00,50.2,46.2,30.13,NE,37,0.0,0.0,86,0.00,,---,0.00,30.00,VWS V14.01,2012-12-24 12:27:00,
2012-12-24 07:28:00,50.2,46.2,30.13,NE,37,0.0,0.0,86,0.00,,---,0.00,35.00,VWS V14.01,2012-12-24 12:28:00,
2012-12-24 07:29:00,50.2,45.9,30.13,NE,37,0.0,0.0,85,0.00,,---,0.00,39.00,VWS V14.01,2012-12-24 12:29:00,
2012-12-24 07:30:00,50.3,46.0,30.13,NE,37,0.0,0.0,85,0.00,,---,0.00,40.00,VWS V14.01,2012-12-24 12:30:00,
2012-12-24 07:31:00,50.4,46.1,30.13,NE,37,0.0,0.0,85,0.00,,---,0.00,44.00,VWS V14.01,2012-12-24 12:31:00,
2012-12-24 07:32:00,50.5,46.2,30.13,NE,37,0.0,0.0,85,0.00,,---,0.00,46.00,VWS V14.01,2012-12-24 12:32:00,
2012-12-24 07:33:00,50.6,46.3,30.13,NE,37,0.0,0.0,85,0.00,,---,0.00,49.00,VWS V14.01,2012-12-24 12:33:00,
2012-12-24 07:34:00,50.7,46.4,30.13,NE,37,0.0,0.0,85,0.00,,---,0.00,47.00,VWS V14.01,2012-12-24 12:34:00,
2012-12-24 07:35:00,50.8,46.5,30.13,NE,37,0.0,0.0,85,0.00,,---,0.00,46.00,VWS V14.01,2012-12-24 12:35:00,
2012-12-24 07:36:00,51.0,46.7,30.12,NE,37,0.0,0.0,85,0.00,,---,0.00,44.00,VWS V14.01,2012-12-24 12:36:00,
2012-12-24 07:37:00,51.0,46.7,30.12,NE,37,0.0,0.0,85,0.00,,---,0.00,44.00,VWS V14.01,2012-12-24 12:37:00,
2012-12-24 07:38:00,51.2,46.8,30.12,NE,37,0.0,0.0,85,0.00,,---,0.00,44.00,VWS V14.01,2012-12-24 12:38:00,
2012-12-24 07:39:00,51.2,46.8,30.12,NE,37,0.0,0.0,85,0.00,,---,0.00,44.00,VWS V14.01,2012-12-24 12:39:00,
2012-12-24 07:40:00,51.2,46.8,30.12,NE,37,0.0,0.0,85,0.00,,---,0.00,46.00,VWS V14.01,2012-12-24 12:40:00,
2012-12-24 07:41:00,51.3,47.0,30.12,NE,37,0.0,0.0,85,0.00,,---,0.00,46.00,VWS V14.01,2012-12-24 12:41:00,
2012-12-24 07:42:00,51.4,47.0,30.12,NE,37,0.0,0.0,85,0.00,,---,0.00,46.00,VWS V14.01,2012-12-24 12:42:00,
2012-12-24 07:43:00,51.4,46.7,30.12,NE,37,0.0,0.0,84,0.00,,---,0.00,47.00,VWS V14.01,2012-12-24 12:43:00,
2012-12-24 07:44:00,51.4,46.7,30.12,NE,37,0.0,0.0,84,0.00,,---,0.00,47.00,VWS V14.01,2012-12-24 12:44:00,
2012-12-24 07:45:00,51.5,46.8,30.12,NE,37,0.0,0.0,84,0.00,,---,0.00,47.00,VWS V14.01,2012-12-24 12:45:00,
2012-12-24 07:46:00,51.5,46.8,30.12,NE,37,0.0,0.0,84,0.00,,---,0.00,56.00,VWS V14.01,2012-12-24 12:46:00,
2012-12-24 07:47:00,51.7,47.0,30.12,NE,37,0.0,0.0,84,0.00,,---,0.00,53.00,VWS V14.01,2012-12-24 12:47:00,
2012-12-24 07:48:00,51.8,47.4,30.12,NE,37,0.0,0.0,85,0.00,,---,0.00,53.00,VWS V14.01,2012-12-24 12:48:00,
2012-12-24 07:49:00,51.8,47.4,30.12,NE,37,0.0,0.0,85,0.00,,---,0.00,54.00,VWS V14.01,2012-12-24 12:49:00,
2012-12-24 07:50:00,51.9,47.5,30.12,NE,37,0.0,0.0,85,0.00,,---,0.00,76.00,VWS V14.01,2012-12-24 12:50:00,
2012-12-24 07:51:00,51.9,47.2,30.12,NE,37,0.0,0.0,84,0.00,,---,0.00,67.00,VWS V14.01,2012-12-24 12:51:00,
2012-12-24 07:52:00,51.9,47.2,30.12,NE,37,0.0,0.0,84,0.00,,---,0.00,65.00,VWS V14.01,2012-12-24 12:52:00,
2012-12-24 07:53:00,52.0,47.3,30.12,NE,37,0.0,0.0,84,0.00,,---,0.00,65.00,VWS V14.01,2012-12-24 12:53:00,
2012-12-24 07:54:00,52.1,47.4,30.12,NE,37,0.0,0.0,84,0.00,,---,0.00,70.00,VWS V14.01,2012-12-24 12:54:00,
2012-12-24 07:55:00,52.2,47.5,30.12,NE,37,0.0,0.0,84,0.00,,---,0.00,70.00,VWS V14.01,2012-12-24 12:55:00,
2012-12-24 07:56:00,52.3,47.6,30.12,NE,37,0.0,0.0,84,0.00,,---,0.00,70.00,VWS V14.01,2012-12-24 12:56:00,
2012-12-24 07:57:00,52.4,47.7,30.12,NE,37,0.0,0.0,84,0.00,,---,0.00,67.00,VWS V14.01,2012-12-24 12:57:00,
2012-12-24 07:58:00,52.5,47.5,30.12,NE,37,0.0,0.0,83,0.00,,---,0.00,63.00,VWS V14.01,2012-12-24 12:58:00,
2012-12-24 07:59:00,52.5,47.8,30.12,NE,37,0.0,0.0,84,0.00,,---,0.00,63.00,VWS V14.01,2012-12-24 12:59:00,
2012-12-24 08:00:00,52.6,47.6,30.12,NE,37,0.0,0.0,83,0.00,,---,0.00,65.00,VWS V14.01,2012-12-24 13:00:00,
2012-12-24 08:01:00,52.7,47.7,30.12,NE,37,0.0,0.0,83,0.00,,---,0.00,65.00,VWS V14.01,2012-12-24 13:01:00,
2012-12-24 08:02:00,52.8,47.8,30.12,NE,37,0.0,0.0,83,0.00,,---,0.00,65.00,VWS V14.01,2012-12-24 13:02:00,
2012-12-24 08:03:00,52.8,47.8,30.12,NE,37,0.0,0.0,83,0.00,,---,0.00,67.00,VWS V14.01,2012-12-24 13:03:00,
2012-12-24 08:04:00,52.9,47.6,30.11,NE,37,0.0,0.0,82,0.00,,---,0.00,70.00,VWS V14.01,2012-12-24 13:04:00,
2012-12-24 08:05:00,53.0,47.7,30.11,NE,37,0.0,0.0,82,0.00,,---,0.00,93.00,VWS V14.01,2012-12-24 13:05:00,
2012-12-24 08:06:00,53.1,48.1,30.11,NE,37,0.0,0.0,83,0.00,,---,0.00,69.00,VWS V14.01,2012-12-24 13:06:00,
2012-12-24 08:07:00,53.2,48.2,30.11,NE,37,0.0,1.0,83,0.00,,---,0.00,69.00,VWS V14.01,2012-12-24 13:07:00,
2012-12-24 08:08:00,53.3,48.6,30.11,NE,37,0.0,1.0,84,0.00,,---,0.00,69.00,VWS V14.01,2012-12-24 13:08:00,
2012-12-24 08:09:00,53.5,48.5,30.11,NE,37,0.0,1.0,83,0.00,,---,0.00,67.00,VWS V14.01,2012-12-24 13:09:00,
2012-12-24 08:10:00,53.7,48.7,30.11,NE,37,0.0,1.0,83,0.00,,---,0.00,65.00,VWS V14.01,2012-12-24 13:10:00,
2012-12-24 08:11:00,53.7,49.0,30.11,NE,37,0.0,1.0,84,0.00,,---,0.00,65.00,VWS V14.01,2012-12-24 13:11:00,
2012-12-24 08:12:00,53.7,49.0,30.11,NE,37,0.0,1.0,84,0.00,,---,0.00,63.00,VWS V14.01,2012-12-24 13:12:00,
2012-12-24 08:13:00,53.7,48.7,30.11,NE,37,0.0,1.0,83,0.00,,---,0.00,63.00,VWS V14.01,2012-12-24 13:13:00,
2012-12-24 08:14:00,53.8,48.8,30.12,NE,37,0.0,1.0,83,0.00,,---,0.00,63.00,VWS V14.01,2012-12-24 13:14:00,
2012-12-24 08:15:00,53.9,48.9,30.12,NE,37,0.0,1.0,83,0.00,,---,0.00,63.00,VWS V14.01,2012-12-24 13:15:00,
2012-12-24 08:16:00,53.9,48.9,30.12,NE,37,0.0,1.0,83,0.00,,---,0.00,65.00,VWS V14.01,2012-12-24 13:16:00,
2012-12-24 08:17:00,54.0,49.0,30.12,NE,37,0.0,1.0,83,0.00,,---,0.00,65.00,VWS V14.01,2012-12-24 13:17:00,
2012-12-24 08:18:00,54.0,49.3,30.12,NE,37,0.0,1.0,84,0.00,,---,0.00,67.00,VWS V14.01,2012-12-24 13:18:00,
2012-12-24 08:19:00,54.1,49.4,30.12,NE,37,0.0,1.0,84,0.00,,---,0.00,69.00,VWS V14.01,2012-12-24 13:19:00,
2012-12-24 08:20:00,54.1,49.4,30.12,NE,37,0.0,1.0,84,0.00,,---,0.00,70.00,VWS V14.01,2012-12-24 13:20:00,
2012-12-24 08:21:00,54.1,49.4,30.12,NE,37,0.0,1.0,84,0.00,,---,0.00,72.00,VWS V14.01,2012-12-24 13:21:00,
2012-12-24 08:22:00,54.1,49.4,30.11,NE,37,0.0,1.0,84,0.00,,---,0.00,72.00,VWS V14.01,2012-12-24 13:22:00,
2012-12-24 08:23:00,54.1,49.4,30.11,NE,41,0.0,1.0,84,0.00,,---,0.00,74.00,VWS V14.01,2012-12-24 13:23:00,
2012-12-24 08:24:00,54.2,49.2,30.11,NE,41,0.0,1.0,83,0.00,,---,0.00,76.00,VWS V14.01,2012-12-24 13:24:00,
2012-12-24 08:25:00,54.3,49.3,30.11,NE,41,0.0,1.0,83,0.00,,---,0.00,77.00,VWS V14.01,2012-12-24 13:25:00,
2012-12-24 08:26:00,54.4,49.0,30.11,NE,41,0.0,1.0,82,0.00,,---,0.00,81.00,VWS V14.01,2012-12-24 13:26:00,
2012-12-24 08:27:00,54.5,49.1,30.11,NE,41,0.0,1.0,82,0.00,,---,0.00,84.00,VWS V14.01,2012-12-24 13:27:00,
2012-12-24 08:28:00,54.6,49.2,30.11,NE,41,0.0,1.0,82,0.00,,---,0.00,93.00,VWS V14.01,2012-12-24 13:28:00,
2012-12-24 08:29:00,54.6,49.2,30.11,NE,41,0.0,1.0,82,0.00,,---,0.00,102.00,VWS V14.01,2012-12-24 13:29:00,
2012-12-24 08:30:00,54.7,49.3,30.12,NE,41,0.0,1.0,82,0.00,,---,0.00,113.00,VWS V14.01,2012-12-24 13:30:00,
2012-12-24 08:31:00,54.9,49.5,30.12,NE,41,0.0,1.0,82,0.00,,---,0.00,127.00,VWS V14.01,2012-12-24 13:31:00,
2012-12-24 08:32:00,55.1,50.0,30.12,NE,41,0.0,1.0,83,0.00,,---,0.00,127.00,VWS V14.01,2012-12-24 13:32:00,
2012-12-24 08:33:00,55.2,50.1,30.12,NE,41,0.0,1.0,83,0.00,,---,0.00,144.00,VWS V14.01,2012-12-24 13:33:00,
2012-12-24 08:34:00,55.4,50.0,30.12,NE,41,0.0,1.0,82,0.00,,---,0.00,149.00,VWS V14.01,2012-12-24 13:34:00,
2012-12-24 08:35:00,55.6,49.5,30.12,NE,41,0.0,1.0,80,0.00,,---,0.00,146.00,VWS V14.01,2012-12-24 13:35:00,
2012-12-24 08:36:00,55.8,49.7,30.12,NE,41,0.0,1.0,80,0.00,,---,0.00,144.00,VWS V14.01,2012-12-24 13:36:00,
2012-12-24 08:37:00,56.0,50.3,30.12,NE,41,0.0,1.0,81,0.00,,---,0.00,153.00,VWS V14.01,2012-12-24 13:37:00,
2012-12-24 08:38:00,56.3,50.5,30.12,NE,41,0.0,1.0,81,0.00,,---,0.00,153.00,VWS V14.01,2012-12-24 13:38:00,
2012-12-24 08:39:00,56.5,50.8,30.12,NE,41,0.0,1.0,81,0.00,,---,0.00,142.00,VWS V14.01,2012-12-24 13:39:00,
2012-12-24 08:40:00,56.7,50.9,30.12,NE,41,0.0,1.0,81,0.00,,---,0.00,135.00,VWS V14.01,2012-12-24 13:40:00,
2012-12-24 08:41:00,56.9,50.1,30.12,NE,41,0.0,1.0,78,0.00,,---,0.00,135.00,VWS V14.01,2012-12-24 13:41:00,
2012-12-24 08:42:00,57.1,50.3,30.12,NE,41,0.0,1.0,78,0.00,,---,0.00,116.00,VWS V14.01,2012-12-24 13:42:00,
2012-12-24 08:43:00,57.3,50.2,30.12,NE,41,0.0,1.0,77,0.00,,---,0.00,109.00,VWS V14.01,2012-12-24 13:43:00,
2012-12-24 08:44:00,57.5,51.4,30.12,South,191,1.0,2.0,80,0.00,,---,0.00,109.00,VWS V14.01,2012-12-24 13:44:00,
2012-12-24 08:45:00,57.6,50.8,30.12,South,191,1.0,2.0,78,0.00,,---,0.00,109.00,VWS V14.01,2012-12-24 13:45:00,
2012-12-24 08:46:00,57.7,50.5,30.12,South,191,0.0,2.0,77,0.00,,---,0.00,111.00,VWS V14.01,2012-12-24 13:46:00,
2012-12-24 08:47:00,57.8,49.9,30.13,South,191,1.0,2.0,75,0.00,,---,0.00,114.00,VWS V14.01,2012-12-24 13:47:00,
2012-12-24 08:48:00,58.0,50.1,30.13,South,191,1.0,2.0,75,0.00,,---,0.00,118.00,VWS V14.01,2012-12-24 13:48:00,
2012-12-24 08:49:00,58.1,49.9,30.13,SSW,193,2.0,3.0,74,0.00,,---,0.00,127.00,VWS V14.01,2012-12-24 13:49:00,
2012-12-24 08:50:00,58.1,49.9,30.12,SSW,192,1.0,3.0,74,0.00,,---,0.00,132.00,VWS V14.01,2012-12-24 13:50:00,
2012-12-24 08:51:00,58.2,50.0,30.12,SSW,192,1.0,3.0,74,0.00,,---,0.00,137.00,VWS V14.01,2012-12-24 13:51:00,
2012-12-24 08:52:00,58.3,50.1,30.12,SSW,192,1.0,3.0,74,0.00,,---,0.00,141.00,VWS V14.01,2012-12-24 13:52:00,
2012-12-24 08:53:00,58.3,50.1,30.12,SSW,192,2.0,3.0,74,0.00,,---,0.00,142.00,VWS V14.01,2012-12-24 13:53:00,
2012-12-24 08:54:00,58.4,50.2,30.12,SSW,192,0.0,3.0,74,0.00,,---,0.00,142.00,VWS V14.01,2012-12-24 13:54:00,
2012-12-24 08:55:00,58.5,49.9,30.12,SSW,192,1.0,3.0,73,0.00,,---,0.00,141.00,VWS V14.01,2012-12-24 13:55:00,
2012-12-24 08:56:00,58.6,50.0,30.12,SSW,192,0.0,3.0,73,0.00,,---,0.00,141.00,VWS V14.01,2012-12-24 13:56:00,
2012-12-24 08:57:00,58.6,50.0,30.12,SSW,192,0.0,3.0,73,0.00,,---,0.00,139.00,VWS V14.01,2012-12-24 13:57:00,
2012-12-24 08:58:00,58.7,50.5,30.12,SSW,192,2.0,3.0,74,0.00,,---,0.00,134.00,VWS V14.01,2012-12-24 13:58:00,
2012-12-24 08:59:00,58.8,50.5,30.12,SSW,192,1.0,3.0,74,0.00,,---,0.00,125.00,VWS V14.01,2012-12-24 13:59:00,
2012-12-24 09:00:00,59.0,50.7,30.12,SSW,192,2.0,3.0,74,0.00,,---,0.00,118.00,VWS V14.01,2012-12-24 14:00:00,
2012-12-24 09:01:00,59.0,50.4,30.13,SSW,192,2.0,3.0,73,0.00,,---,0.00,109.00,VWS V14.01,2012-12-24 14:01:00,
2012-12-24 09:02:00,59.0,50.0,30.12,SSW,192,1.0,3.0,72,0.00,,---,0.00,107.00,VWS V14.01,2012-12-24 14:02:00,
2012-12-24 09:03:00,59.1,50.1,30.13,SSW,192,2.0,3.0,72,0.00,,---,0.00,107.00,VWS V14.01,2012-12-24 14:03:00,
2012-12-24 09:04:00,59.1,50.1,30.13,SSW,192,2.0,3.0,72,0.00,,---,0.00,111.00,VWS V14.01,2012-12-24 14:04:00,
2012-12-24 09:05:00,59.2,50.6,30.13,SSW,192,1.0,3.0,73,0.00,,---,0.00,114.00,VWS V14.01,2012-12-24 14:05:00,
2012-12-24 09:06:00,59.2,50.2,30.13,SSW,192,1.0,3.0,72,0.00,,---,0.00,123.00,VWS V14.01,2012-12-24 14:06:00,
2012-12-24 09:07:00,59.2,50.6,30.12,SSW,192,0.0,3.0,73,0.00,,---,0.00,127.00,VWS V14.01,2012-12-24 14:07:00,
2012-12-24 09:08:00,59.3,50.7,30.13,SSW,192,1.0,3.0,73,0.00,,---,0.00,132.00,VWS V14.01,2012-12-24 14:08:00,
2012-12-24 09:09:00,59.3,50.7,30.13,SSW,192,0.0,3.0,73,0.00,,---,0.00,135.00,VWS V14.01,2012-12-24 14:09:00,
2012-12-24 09:10:00,59.4,50.8,30.13,SSW,192,0.0,3.0,73,0.00,,---,0.00,139.00,VWS V14.01,2012-12-24 14:10:00,
2012-12-24 09:11:00,59.5,50.8,30.13,SSW,192,0.0,3.0,73,0.00,,---,0.00,141.00,VWS V14.01,2012-12-24 14:11:00,
2012-12-24 09:12:00,59.5,51.2,30.13,SSW,192,1.0,3.0,74,0.00,,---,0.00,142.00,VWS V14.01,2012-12-24 14:12:00,
2012-12-24 09:13:00,59.6,51.0,30.13,SSW,192,0.0,3.0,73,0.00,,---,0.00,144.00,VWS V14.01,2012-12-24 14:13:00,
2012-12-24 09:14:00,59.8,51.1,30.13,SSW,192,2.0,3.0,73,0.00,,---,0.00,144.00,VWS V14.01,2012-12-24 14:14:00,
2012-12-24 09:15:00,59.9,51.6,30.13,SSW,192,2.0,3.0,74,0.00,,---,0.00,144.00,VWS V14.01,2012-12-24 14:15:00,
2012-12-24 09:16:00,59.9,51.2,30.13,SSW,192,2.0,3.0,73,0.00,,---,0.00,142.00,VWS V14.01,2012-12-24 14:16:00,
2012-12-24 09:17:00,60.0,51.3,30.13,SSW,192,2.0,3.0,73,0.00,,---,0.00,142.00,VWS V14.01,2012-12-24 14:17:00,
2012-12-24 09:18:00,60.1,51.4,30.13,SSW,192,1.0,3.0,73,0.00,,---,0.00,142.00,VWS V14.01,2012-12-24 14:18:00,
2012-12-24 09:19:00,60.2,51.5,30.13,SSW,192,1.0,3.0,73,0.00,,---,0.00,142.00,VWS V14.01,2012-12-24 14:19:00,
2012-12-24 09:20:00,60.2,51.2,30.13,South,176,3.0,3.0,72,0.00,,---,0.00,142.00,VWS V14.01,2012-12-24 14:20:00,
2012-12-24 09:21:00,60.3,51.2,30.13,South,189,5.0,5.0,72,0.00,,---,0.00,144.00,VWS V14.01,2012-12-24 14:21:00,
2012-12-24 09:22:00,60.4,51.0,30.13,South,174,4.0,5.0,71,0.00,,---,0.00,144.00,VWS V14.01,2012-12-24 14:22:00,
2012-12-24 09:23:00,60.4,51.0,30.13,South,173,1.0,5.0,71,0.00,,---,0.00,144.00,VWS V14.01,2012-12-24 14:23:00,
2012-12-24 09:24:00,60.4,51.3,30.13,South,174,2.0,5.0,72,0.00,,---,0.00,146.00,VWS V14.01,2012-12-24 14:24:00,
2012-12-24 09:25:00,60.5,51.1,30.13,South,176,3.0,5.0,71,0.00,,---,0.00,151.00,VWS V14.01,2012-12-24 14:25:00,
2012-12-24 09:26:00,60.5,51.4,30.13,SSW,198,1.0,5.0,72,0.00,,---,0.00,153.00,VWS V14.01,2012-12-24 14:26:00,
2012-12-24 09:27:00,60.6,51.5,30.13,South,173,3.0,5.0,72,0.00,,---,0.00,151.00,VWS V14.01,2012-12-24 14:27:00,
2012-12-24 09:28:00,60.6,51.2,30.13,South,183,1.0,5.0,71,0.00,,---,0.00,142.00,VWS V14.01,2012-12-24 14:28:00,
2012-12-24 09:29:00,60.7,51.2,30.13,South,183,3.0,5.0,71,0.00,,---,0.00,134.00,VWS V14.01,2012-12-24 14:29:00,
2012-12-24 09:30:00,60.7,51.2,30.13,SSW,193,1.0,5.0,71,0.00,,---,0.00,123.00,VWS V14.01,2012-12-24 14:30:00,
2012-12-24 09:31:00,60.8,51.3,30.13,South,170,2.0,5.0,71,0.00,,---,0.00,105.00,VWS V14.01,2012-12-24 14:31:00,
2012-12-24 09:32:00,60.8,51.3,30.12,South,183,3.0,5.0,71,0.00,,---,0.00,98.00,VWS V14.01,2012-12-24 14:32:00,
2012-12-24 09:33:00,60.8,51.3,30.12,South,182,2.0,5.0,71,0.00,,---,0.00,90.00,VWS V14.01,2012-12-24 14:33:00,
2012-12-24 09:34:00,60.8,51.3,30.12,SSW,208,2.0,5.0,71,0.00,,---,0.00,83.00,VWS V14.01,2012-12-24 14:34:00,
2012-12-24 09:35:00,60.9,51.5,30.12,SSW,208,1.0,5.0,71,0.00,,---,0.00,77.00,VWS V14.01,2012-12-24 14:35:00,
2012-12-24 09:36:00,60.9,51.5,30.13,South,185,3.0,5.0,71,0.00,,---,0.00,76.00,VWS V14.01,2012-12-24 14:36:00,
2012-12-24 09:37:00,60.9,51.5,30.12,SSE,164,4.0,5.0,71,0.00,,---,0.00,76.00,VWS V14.01,2012-12-24 14:37:00,
2012-12-24 09:38:00,60.9,51.5,30.12,South,188,2.0,5.0,71,0.00,,---,0.00,77.00,VWS V14.01,2012-12-24 14:38:00,
2012-12-24 09:39:00,60.9,51.5,30.13,South,173,3.0,5.0,71,0.00,,---,0.00,76.00,VWS V14.01,2012-12-24 14:39:00,
2012-12-24 09:40:00,60.9,51.5,30.12,South,180,3.0,5.0,71,0.00,,---,0.00,76.00,VWS V14.01,2012-12-24 14:40:00,
2012-12-24 09:41:00,60.9,51.5,30.12,SSW,194,3.0,5.0,71,0.00,,---,0.00,72.00,VWS V14.01,2012-12-24 14:41:00,
2012-12-24 09:42:00,60.9,51.5,30.12,SSW,198,2.0,5.0,71,0.00,,---,0.00,69.00,VWS V14.01,2012-12-24 14:42:00,
2012-12-24 09:43:00,60.9,51.5,30.12,SSW,192,2.0,5.0,71,0.00,,---,0.00,69.00,VWS V14.01,2012-12-24 14:43:00,
2012-12-24 09:44:00,60.9,51.5,30.12,SW,217,4.0,5.0,71,0.00,,---,0.00,69.00,VWS V14.01,2012-12-24 14:44:00,
2012-12-24 09:45:00,60.9,51.5,30.12,SSW,198,3.0,5.0,71,0.00,,---,0.00,72.00,VWS V14.01,2012-12-24 14:45:00,
2012-12-24 09:46:00,60.9,51.5,30.12,South,178,2.0,5.0,71,0.00,,---,0.00,76.00,VWS V14.01,2012-12-24 14:46:00,
2012-12-24 09:47:00,60.9,51.5,30.12,South,178,2.0,5.0,71,0.00,,---,0.00,81.00,VWS V14.01,2012-12-24 14:47:00,
2012-12-24 09:48:00,60.9,51.5,30.12,SSW,198,2.0,5.0,71,0.00,,---,0.00,88.00,VWS V14.01,2012-12-24 14:48:00,
2012-12-24 09:49:00,60.9,51.5,30.12,SSW,192,2.0,5.0,71,0.00,,---,0.00,91.00,VWS V14.01,2012-12-24 14:49:00,
2012-12-24 09:50:00,61.0,51.5,30.12,SSW,198,1.0,5.0,71,0.00,,---,0.00,93.00,VWS V14.01,2012-12-24 14:50:00,
2012-12-24 09:51:00,61.0,51.9,30.12,SSE,166,2.0,5.0,72,0.00,,---,0.00,95.00,VWS V14.01,2012-12-24 14:51:00,
2012-12-24 09:52:00,61.0,51.9,30.12,South,177,3.0,5.0,72,0.00,,---,0.00,98.00,VWS V14.01,2012-12-24 14:52:00,
2012-12-24 09:53:00,61.1,52.0,30.12,South,178,3.0,5.0,72,0.00,,---,0.00,105.00,VWS V14.01,2012-12-24 14:53:00,
2012-12-24 09:54:00,61.1,52.0,30.12,SSW,198,2.0,5.0,72,0.00,,---,0.00,118.00,VWS V14.01,2012-12-24 14:54:00,
2012-12-24 09:55:00,61.2,52.1,30.12,South,185,2.0,5.0,72,0.00,,---,0.00,123.00,VWS V14.01,2012-12-24 14:55:00,
2012-12-24 09:56:00,61.2,52.1,30.12,South,172,4.0,5.0,72,0.00,,---,0.00,128.00,VWS V14.01,2012-12-24 14:56:00,
2012-12-24 09:57:00,61.3,52.2,30.12,South,184,2.0,5.0,72,0.00,,---,0.00,135.00,VWS V14.01,2012-12-24 14:57:00,
2012-12-24 09:58:00,61.4,52.3,30.12,South,181,3.0,5.0,72,0.00,,---,0.00,141.00,VWS V14.01,2012-12-24 14:58:00,
2012-12-24 09:59:00,61.5,52.4,30.12,SSE,165,3.0,5.0,72,0.00,,---,0.00,144.00,VWS V14.01,2012-12-24 14:59:00,
2012-12-24 10:00:00,61.6,52.5,30.12,SSW,208,1.0,5.0,72,0.00,,---,0.00,155.00,VWS V14.01,2012-12-24 15:00:00,
2012-12-24 10:01:00,61.7,52.6,30.12,SSW,203,2.0,4.0,72,0.00,,---,0.00,160.00,VWS V14.01,2012-12-24 15:01:00,
2012-12-24 10:02:00,61.8,52.3,30.12,South,189,2.0,4.0,71,0.00,,---,0.00,165.00,VWS V14.01,2012-12-24 15:02:00,
2012-12-24 10:03:00,61.9,52.4,30.12,SW,214,3.0,5.0,71,0.00,,---,0.00,171.00,VWS V14.01,2012-12-24 15:03:00,
2012-12-24 10:04:00,62.0,52.5,30.12,South,174,3.0,5.0,71,0.00,,---,0.00,176.00,VWS V14.01,2012-12-24 15:04:00,
2012-12-24 10:05:00,62.1,52.6,30.12,SSW,198,3.0,5.0,71,0.00,,---,0.00,176.00,VWS V14.01,2012-12-24 15:05:00,
2012-12-24 10:06:00,62.2,52.3,30.12,SE,145,2.0,5.0,70,0.00,,---,0.00,197.00,VWS V14.01,2012-12-24 15:06:00,
2012-12-24 10:07:00,62.2,52.7,30.12,SSW,208,5.0,5.0,71,0.00,,---,0.00,202.00,VWS V14.01,2012-12-24 15:07:00,
2012-12-24 10:08:00,62.3,52.4,30.12,SSW,198,2.0,5.0,70,0.00,,---,0.00,202.00,VWS V14.01,2012-12-24 15:08:00,
2012-12-24 10:09:00,62.4,52.5,30.12,SSW,203,4.0,5.0,70,0.00,,---,0.00,204.00,VWS V14.01,2012-12-24 15:09:00,
2012-12-24 10:10:00,62.5,53.0,30.12,SSW,213,2.0,5.0,71,0.00,,---,0.00,202.00,VWS V14.01,2012-12-24 15:10:00,
2012-12-24 10:11:00,62.6,52.7,30.12,South,189,3.0,5.0,70,0.00,,---,0.00,199.00,VWS V14.01,2012-12-24 15:11:00,
2012-12-24 10:12:00,62.7,52.8,30.12,South,189,4.0,5.0,70,0.00,,---,0.00,199.00,VWS V14.01,2012-12-24 15:12:00,
2012-12-24 10:13:00,62.8,52.9,30.12,South,174,4.0,5.0,70,0.00,,---,0.00,193.00,VWS V14.01,2012-12-24 15:13:00,
2012-12-24 10:14:00,62.9,53.0,30.12,SW,220,1.0,5.0,70,0.00,,---,0.00,192.00,VWS V14.01,2012-12-24 15:14:00,
2012-12-24 10:15:00,63.0,53.5,30.12,SW,214,2.0,5.0,71,0.00,,---,0.00,188.00,VWS V14.01,2012-12-24 15:15:00,
2012-12-24 10:16:00,63.1,53.2,30.12,SW,214,2.0,5.0,70,0.00,,---,0.00,190.00,VWS V14.01,2012-12-24 15:16:00,
2012-12-24 10:17:00,63.2,53.3,30.12,SSE,166,2.0,5.0,70,0.00,,---,0.00,195.00,VWS V14.01,2012-12-24 15:17:00,
2012-12-24 10:18:00,63.3,53.4,30.12,South,185,3.0,5.0,70,0.00,,---,0.00,200.00,VWS V14.01,2012-12-24 15:18:00,
2012-12-24 10:19:00,63.4,53.5,30.12,South,176,3.0,5.0,70,0.00,,---,0.00,207.00,VWS V14.01,2012-12-24 15:19:00,
2012-12-24 10:20:00,63.4,53.5,30.12,SSW,198,3.0,5.0,70,0.00,,---,0.00,213.00,VWS V14.01,2012-12-24 15:20:00,
2012-12-24 10:21:00,63.5,53.5,30.12,South,172,2.0,5.0,70,0.00,,---,0.00,216.00,VWS V14.01,2012-12-24 15:21:00,
2012-12-24 10:22:00,63.6,53.7,30.11,South,172,3.0,5.0,70,0.00,,---,0.00,216.00,VWS V14.01,2012-12-24 15:22:00,
2012-12-24 10:23:00,63.7,53.3,30.11,South,187,2.0,5.0,69,0.00,,---,0.00,213.00,VWS V14.01,2012-12-24 15:23:00,
2012-12-24 10:24:00,63.8,53.5,30.12,South,180,2.0,5.0,69,0.00,,---,0.00,206.00,VWS V14.01,2012-12-24 15:24:00,
2012-12-24 10:25:00,63.8,53.5,30.12,South,188,4.0,5.0,69,0.00,,---,0.00,204.00,VWS V14.01,2012-12-24 15:25:00,
2012-12-24 10:26:00,63.8,53.5,30.12,SW,224,4.0,5.0,69,0.00,,---,0.00,202.00,VWS V14.01,2012-12-24 15:26:00,
2012-12-24 10:27:00,63.9,53.5,30.12,SSW,203,3.0,5.0,69,0.00,,---,0.00,202.00,VWS V14.01,2012-12-24 15:27:00,
2012-12-24 10:28:00,64.0,54.0,30.12,South,183,4.0,5.0,70,0.00,,---,0.00,202.00,VWS V14.01,2012-12-24 15:28:00,
2012-12-24 10:29:00,64.1,54.1,30.12,SSW,208,4.0,5.0,70,0.00,,---,0.00,200.00,VWS V14.01,2012-12-24 15:29:00,
2012-12-24 10:30:00,64.2,53.8,30.12,SSW,198,5.0,5.0,69,0.00,,---,0.00,199.00,VWS V14.01,2012-12-24 15:30:00,
2012-12-24 10:31:00,64.3,53.9,30.12,SW,214,6.0,6.0,69,0.00,,---,0.00,199.00,VWS V14.01,2012-12-24 15:31:00,
2012-12-24 10:32:00,64.3,53.9,30.12,SSE,167,4.0,6.0,69,0.00,,---,0.00,197.00,VWS V14.01,2012-12-24 15:32:00,
2012-12-24 10:33:00,64.4,54.0,30.12,South,179,5.0,6.0,69,0.00,,---,0.00,197.00,VWS V14.01,2012-12-24 15:33:00,
2012-12-24 10:34:00,64.5,53.7,30.11,SW,219,1.0,6.0,68,0.00,,---,0.00,197.00,VWS V14.01,2012-12-24 15:34:00,
2012-12-24 10:35:00,64.6,54.2,30.12,SSW,192,4.0,6.0,69,0.00,,---,0.00,202.00,VWS V14.01,2012-12-24 15:35:00,
2012-12-24 10:36:00,64.7,53.9,30.11,SSW,198,7.0,7.0,68,0.00,,---,0.00,207.00,VWS V14.01,2012-12-24 15:36:00,
2012-12-24 10:37:00,64.8,54.0,30.11,SW,227,4.0,7.0,68,0.00,,---,0.00,211.00,VWS V14.01,2012-12-24 15:37:00,
2012-12-24 10:38:00,64.8,54.0,30.11,South,184,6.0,7.0,68,0.00,,---,0.00,211.00,VWS V14.01,2012-12-24 15:38:00,
2012-12-24 10:39:00,64.9,54.1,30.11,SSW,198,6.0,7.0,68,0.00,,---,0.00,200.00,VWS V14.01,2012-12-24 15:39:00,
2012-12-24 10:40:00,64.9,54.1,30.11,WSW,239,3.0,7.0,68,0.00,,---,0.00,195.00,VWS V14.01,2012-12-24 15:40:00,
2012-12-24 10:41:00,65.1,54.3,30.11,South,180,2.0,8.0,68,0.00,,---,0.00,190.00,VWS V14.01,2012-12-24 15:41:00,
2012-12-24 10:42:00,65.1,54.3,30.11,SSW,203,5.0,8.0,68,0.00,,---,0.00,185.00,VWS V14.01,2012-12-24 15:42:00,
2012-12-24 10:43:00,65.2,54.4,30.11,SSE,166,3.0,8.0,68,0.00,,---,0.00,179.00,VWS V14.01,2012-12-24 15:43:00,
2012-12-24 10:44:00,65.2,54.4,30.11,SW,225,2.0,8.0,68,0.00,,---,0.00,172.00,VWS V14.01,2012-12-24 15:44:00,
2012-12-24 10:45:00,65.3,54.5,30.11,SW,214,2.0,8.0,68,0.00,,---,0.00,165.00,VWS V14.01,2012-12-24 15:45:00,
2012-12-24 10:46:00,65.4,54.2,30.11,SW,220,2.0,8.0,67,0.00,,---,0.00,155.00,VWS V14.01,2012-12-24 15:46:00,
2012-12-24 10:47:00,65.5,54.3,30.11,SW,220,3.0,8.0,67,0.00,,---,0.00,151.00,VWS V14.01,2012-12-24 15:47:00,
2012-12-24 10:48:00,65.6,54.4,30.11,SSW,198,1.0,8.0,67,0.00,,---,0.00,151.00,VWS V14.01,2012-12-24 15:48:00,
2012-12-24 10:49:00,65.6,54.4,30.11,SSW,208,2.0,8.0,67,0.00,,---,0.00,151.00,VWS V14.01,2012-12-24 15:49:00,
2012-12-24 10:50:00,65.7,54.5,30.11,SSW,208,1.0,8.0,67,0.00,,---,0.00,162.00,VWS V14.01,2012-12-24 15:50:00,
2012-12-24 10:51:00,65.7,54.9,30.11,SSW,198,4.0,8.0,68,0.00,,---,0.00,171.00,VWS V14.01,2012-12-24 15:51:00,
2012-12-24 10:52:00,65.8,54.5,30.11,WSW,245,5.0,8.0,67,0.00,,---,0.00,171.00,VWS V14.01,2012-12-24 15:52:00,
2012-12-24 10:53:00,65.8,54.5,30.11,WSW,237,3.0,8.0,67,0.00,,---,0.00,190.00,VWS V14.01,2012-12-24 15:53:00,
2012-12-24 10:54:00,65.9,54.2,30.11,SW,225,4.0,8.0,66,0.00,,---,0.00,199.00,VWS V14.01,2012-12-24 15:54:00,
2012-12-24 10:55:00,66.0,54.7,30.11,South,181,3.0,8.0,67,0.00,,---,0.00,206.00,VWS V14.01,2012-12-24 15:55:00,
2012-12-24 10:56:00,66.1,54.4,30.11,SW,216,3.0,8.0,66,0.00,,---,0.00,214.00,VWS V14.01,2012-12-24 15:56:00,
2012-12-24 10:57:00,66.1,54.4,30.11,SW,214,4.0,8.0,66,0.00,,---,0.00,223.00,VWS V14.01,2012-12-24 15:57:00,
2012-12-24 10:58:00,66.2,54.5,30.11,West,259,3.0,8.0,66,0.00,,---,0.00,243.00,VWS V14.01,2012-12-24 15:58:00,
2012-12-24 10:59:00,66.4,54.3,30.11,SW,226,5.0,8.0,65,0.00,,---,0.00,248.00,VWS V14.01,2012-12-24 15:59:00,
2012-12-24 11:00:00,66.5,54.4,30.11,WSW,244,7.0,8.0,65,0.00,,---,0.00,251.00,VWS V14.01,2012-12-24 16:00:00,
2012-12-24 11:01:00,66.6,54.5,30.11,SW,220,5.0,7.0,65,0.00,,---,0.00,262.00,VWS V14.01,2012-12-24 16:01:00,
2012-12-24 11:02:00,66.7,54.6,30.11,SSW,198,5.0,7.0,65,0.00,,---,0.00,257.00,VWS V14.01,2012-12-24 16:02:00,
2012-12-24 11:03:00,66.8,54.2,30.11,South,185,3.0,8.0,64,0.00,,---,0.00,244.00,VWS V14.01,2012-12-24 16:03:00,
2012-12-24 11:04:00,66.8,54.2,30.11,SW,220,4.0,8.0,64,0.00,,---,0.00,218.00,VWS V14.01,2012-12-24 16:04:00,
2012-12-24 11:05:00,66.9,54.3,30.11,West,260,4.0,8.0,64,0.00,,---,0.00,204.00,VWS V14.01,2012-12-24 16:05:00,
2012-12-24 11:06:00,67.0,54.4,30.11,WSW,246,4.0,8.0,64,0.00,,---,0.00,190.00,VWS V14.01,2012-12-24 16:06:00,
2012-12-24 11:07:00,67.0,54.4,30.11,South,190,6.0,8.0,64,0.00,,---,0.00,190.00,VWS V14.01,2012-12-24 16:07:00,
2012-12-24 11:08:00,67.0,54.0,30.11,SW,220,2.0,8.0,63,0.00,,---,0.00,174.00,VWS V14.01,2012-12-24 16:08:00,
2012-12-24 11:09:00,67.0,54.0,30.11,SW,228,4.0,8.0,63,0.00,,---,0.00,169.00,VWS V14.01,2012-12-24 16:09:00,
2012-12-24 11:10:00,66.9,53.9,30.11,SSW,208,3.0,8.0,63,0.00,,---,0.00,155.00,VWS V14.01,2012-12-24 16:10:00,
2012-12-24 11:11:00,66.9,53.9,30.11,South,181,1.0,8.0,63,0.00,,---,0.00,146.00,VWS V14.01,2012-12-24 16:11:00,
2012-12-24 11:12:00,66.8,53.8,30.11,SSW,198,7.0,9.0,63,0.00,,---,0.00,135.00,VWS V14.01,2012-12-24 16:12:00,
2012-12-24 11:13:00,66.8,53.8,30.11,SSW,203,2.0,9.0,63,0.00,,---,0.00,123.00,VWS V14.01,2012-12-24 16:13:00,
2012-12-24 11:14:00,66.7,53.7,30.11,South,191,2.0,9.0,63,0.00,,---,0.00,114.00,VWS V14.01,2012-12-24 16:14:00,
2012-12-24 11:15:00,66.7,53.7,30.11,SW,224,2.0,9.0,63,0.00,,---,0.00,105.00,VWS V14.01,2012-12-24 16:15:00,
2012-12-24 11:16:00,66.7,53.7,30.11,SW,235,3.0,9.0,63,0.00,,---,0.00,98.00,VWS V14.01,2012-12-24 16:16:00,
2012-12-24 11:17:00,66.7,53.7,30.11,SW,236,6.0,9.0,63,0.00,,---,0.00,98.00,VWS V14.01,2012-12-24 16:17:00,
2012-12-24 11:18:00,66.7,53.7,30.11,SW,236,6.0,9.0,63,0.00,,---,0.00,98.00,VWS V14.01,2012-12-24 16:18:00,
2012-12-24 11:19:00,66.5,53.1,30.11,SW,214,3.0,9.0,62,0.00,,---,0.00,98.00,VWS V14.01,2012-12-24 16:19:00,
2012-12-24 11:20:00,66.5,53.5,30.11,WSW,245,4.0,9.0,63,0.00,,---,0.00,100.00,VWS V14.01,2012-12-24 16:20:00,
2012-12-24 11:21:00,66.4,53.4,30.11,SW,224,5.0,9.0,63,0.00,,---,0.00,102.00,VWS V14.01,2012-12-24 16:21:00,
2012-12-24 11:22:00,66.4,53.4,30.11,SW,215,4.0,9.0,63,0.00,,---,0.00,107.00,VWS V14.01,2012-12-24 16:22:00,
2012-12-24 11:23:00,66.3,53.3,30.11,SW,230,2.0,9.0,63,0.00,,---,0.00,111.00,VWS V14.01,2012-12-24 16:23:00,
2012-12-24 11:24:00,66.3,53.8,30.11,SW,222,4.0,9.0,64,0.00,,---,0.00,113.00,VWS V14.01,2012-12-24 16:24:00,
2012-12-24 11:25:00,66.3,53.8,30.11,WSW,240,8.0,9.0,64,0.00,,---,0.00,114.00,VWS V14.01,2012-12-24 16:25:00,
2012-12-24 11:26:00,66.2,53.7,30.12,SSW,203,3.0,9.0,64,0.00,,---,0.00,114.00,VWS V14.01,2012-12-24 16:26:00,
2012-12-24 11:27:00,66.2,53.7,30.12,South,191,4.0,9.0,64,0.00,,---,0.00,114.00,VWS V14.01,2012-12-24 16:27:00,
2012-12-24 11:28:00,66.2,53.7,30.11,WSW,246,4.0,9.0,64,0.00,,---,0.00,114.00,VWS V14.01,2012-12-24 16:28:00,
2012-12-24 11:29:00,66.2,53.7,30.11,SW,228,4.0,9.0,64,0.00,,---,0.00,113.00,VWS V14.01,2012-12-24 16:29:00,
2012-12-24 11:30:00,66.2,53.7,30.11,SSW,198,4.0,9.0,64,0.00,,---,0.00,113.00,VWS V14.01,2012-12-24 16:30:00,
2012-12-24 11:31:00,66.1,53.6,30.11,South,191,6.0,9.0,64,0.00,,---,0.00,114.00,VWS V14.01,2012-12-24 16:31:00,
2012-12-24 11:32:00,66.1,53.6,30.11,SSW,198,5.0,9.0,64,0.00,,---,0.00,118.00,VWS V14.01,2012-12-24 16:32:00,
2012-12-24 11:33:00,66.1,53.2,30.10,SSW,208,6.0,9.0,63,0.00,,---,0.00,118.00,VWS V14.01,2012-12-24 16:33:00,
2012-12-24 11:34:00,66.1,53.2,30.10,SW,222,6.0,9.0,63,0.00,,---,0.00,142.00,VWS V14.01,2012-12-24 16:34:00,
2012-12-24 11:35:00,66.1,53.2,30.10,South,170,4.0,9.0,63,0.00,,---,0.00,142.00,VWS V14.01,2012-12-24 16:35:00,
2012-12-24 11:36:00,66.1,53.6,30.10,SW,235,2.0,9.0,64,0.00,,---,0.00,142.00,VWS V14.01,2012-12-24 16:36:00,
2012-12-24 11:37:00,66.2,53.7,30.10,South,182,4.0,9.0,64,0.00,,---,0.00,179.00,VWS V14.01,2012-12-24 16:37:00,
2012-12-24 11:38:00,66.2,53.7,30.10,South,189,9.0,9.0,64,0.00,,---,0.00,190.00,VWS V14.01,2012-12-24 16:38:00,
2012-12-24 11:39:00,66.3,53.8,30.10,South,190,7.0,12.0,64,0.00,,---,0.00,195.00,VWS V14.01,2012-12-24 16:39:00,
2012-12-24 11:40:00,66.3,53.8,30.10,SSW,208,4.0,12.0,64,0.00,,---,0.00,197.00,VWS V14.01,2012-12-24 16:40:00,
2012-12-24 11:41:00,66.3,53.8,30.09,SSW,198,6.0,12.0,64,0.00,,---,0.00,193.00,VWS V14.01,2012-12-24 16:41:00,
2012-12-24 11:42:00,66.3,54.2,30.09,SE,141,3.0,12.0,65,0.00,,---,0.00,190.00,VWS V14.01,2012-12-24 16:42:00,
2012-12-24 11:43:00,66.4,54.3,30.09,SW,229,3.0,12.0,65,0.00,,---,0.00,186.00,VWS V14.01,2012-12-24 16:43:00,
2012-12-24 11:44:00,66.4,54.3,30.09,SW,235,2.0,12.0,65,0.00,,---,0.00,183.00,VWS V14.01,2012-12-24 16:44:00,
2012-12-24 11:45:00,66.5,54.4,30.09,SSW,193,4.0,12.0,65,0.00,,---,0.00,171.00,VWS V14.01,2012-12-24 16:45:00,
2012-12-24 11:46:00,66.5,54.4,30.09,SSW,208,3.0,12.0,65,0.00,,---,0.00,171.00,VWS V14.01,2012-12-24 16:46:00,
2012-12-24 11:47:00,66.5,54.4,30.09,SSE,166,4.0,12.0,65,0.00,,---,0.00,165.00,VWS V14.01,2012-12-24 16:47:00,
2012-12-24 11:48:00,66.5,54.4,30.09,South,174,5.0,12.0,65,0.00,,---,0.00,169.00,VWS V14.01,2012-12-24 16:48:00,
2012-12-24 11:49:00,66.5,54.4,30.09,South,177,4.0,12.0,65,0.00,,---,0.00,178.00,VWS V14.01,2012-12-24 16:49:00,
2012-12-24 11:50:00,66.5,54.4,30.09,SSE,162,1.0,12.0,65,0.00,,---,0.00,188.00,VWS V14.01,2012-12-24 16:50:00,
2012-12-24 11:51:00,66.5,54.4,30.09,SW,214,6.0,12.0,65,0.00,,---,0.00,202.00,VWS V14.01,2012-12-24 16:51:00,
2012-12-24 11:52:00,66.6,54.1,30.09,SSW,203,5.0,12.0,64,0.00,,---,0.00,207.00,VWS V14.01,2012-12-24 16:52:00,
2012-12-24 11:53:00,66.6,54.1,30.09,SSW,208,3.0,12.0,64,0.00,,---,0.00,207.00,VWS V14.01,2012-12-24 16:53:00,
2012-12-24 11:54:00,66.6,54.1,30.09,SSW,198,7.0,12.0,64,0.00,,---,0.00,220.00,VWS V14.01,2012-12-24 16:54:00,
2012-12-24 11:55:00,66.6,54.1,30.09,WSW,247,4.0,12.0,64,0.00,,---,0.00,227.00,VWS V14.01,2012-12-24 16:55:00,
2012-12-24 11:56:00,66.7,54.2,30.09,WSW,247,2.0,12.0,64,0.00,,---,0.00,232.00,VWS V14.01,2012-12-24 16:56:00,
2012-12-24 11:57:00,66.7,54.2,30.09,WSW,250,2.0,12.0,64,0.00,,---,0.00,237.00,VWS V14.01,2012-12-24 16:57:00,
2012-12-24 11:58:00,66.7,54.6,30.09,South,191,3.0,12.0,65,0.00,,---,0.00,236.00,VWS V14.01,2012-12-24 16:58:00,
2012-12-24 11:59:00,66.8,54.2,30.09,South,176,8.0,12.0,64,0.00,,---,0.00,230.00,VWS V14.01,2012-12-24 16:59:00,
2012-12-24 12:00:00,66.8,54.2,30.09,WSW,245,5.0,12.0,64,0.00,,---,0.00,221.00,VWS V14.01,2012-12-24 17:00:00,
2012-12-24 12:01:00,66.9,53.9,30.09,SSW,198,3.0,5.0,63,0.00,,---,0.00,213.00,VWS V14.01,2012-12-24 17:01:00,
2012-12-24 12:02:00,67.0,54.4,30.09,SSW,198,8.0,8.0,64,0.00,,---,0.00,204.00,VWS V14.01,2012-12-24 17:02:00,
2012-12-24 12:03:00,67.0,54.0,30.09,WSW,257,5.0,8.0,63,0.00,,---,0.00,195.00,VWS V14.01,2012-12-24 17:03:00,
2012-12-24 12:04:00,67.0,54.0,30.09,WSW,239,5.0,8.0,63,0.00,,---,0.00,195.00,VWS V14.01,2012-12-24 17:04:00,
2012-12-24 12:05:00,67.0,54.0,30.09,SW,230,5.0,12.0,63,0.00,,---,0.00,197.00,VWS V14.01,2012-12-24 17:05:00,
2012-12-24 12:06:00,67.0,54.0,30.09,WSW,242,5.0,12.0,63,0.00,,---,0.00,197.00,VWS V14.01,2012-12-24 17:06:00,
2012-12-24 12:07:00,67.0,54.0,30.09,SSW,192,7.0,12.0,63,0.00,,---,0.00,197.00,VWS V14.01,2012-12-24 17:07:00,
2012-12-24 12:08:00,67.0,54.0,30.09,SW,222,4.0,12.0,63,0.00,,---,0.00,195.00,VWS V14.01,2012-12-24 17:08:00,
2012-12-24 12:09:00,66.9,53.9,30.09,South,170,3.0,12.0,63,0.00,,---,0.00,190.00,VWS V14.01,2012-12-24 17:09:00,
2012-12-24 12:10:00,67.0,54.0,30.09,SSW,208,6.0,12.0,63,0.00,,---,0.00,186.00,VWS V14.01,2012-12-24 17:10:00,
2012-12-24 12:11:00,67.0,54.0,30.09,South,183,4.0,12.0,63,0.00,,---,0.00,185.00,VWS V14.01,2012-12-24 17:11:00,
2012-12-24 12:12:00,67.0,54.0,30.09,SW,227,5.0,12.0,63,0.00,,---,0.00,183.00,VWS V14.01,2012-12-24 17:12:00,
2012-12-24 12:13:00,67.0,54.0,30.08,SSW,208,10.0,12.0,63,0.00,,---,0.00,185.00,VWS V14.01,2012-12-24 17:13:00,
2012-12-24 12:14:00,66.9,53.9,30.08,SW,232,4.0,12.0,63,0.00,,---,0.00,185.00,VWS V14.01,2012-12-24 17:14:00,
2012-12-24 12:15:00,66.9,53.9,30.08,WSW,245,4.0,12.0,63,0.00,,---,0.00,190.00,VWS V14.01,2012-12-24 17:15:00,
2012-12-24 12:16:00,66.9,53.9,30.08,SW,236,4.0,12.0,63,0.00,,---,0.00,190.00,VWS V14.01,2012-12-24 17:16:00,
2012-12-24 12:17:00,66.9,53.9,30.08,SSW,203,5.0,12.0,63,0.00,,---,0.00,192.00,VWS V14.01,2012-12-24 17:17:00,
2012-12-24 12:18:00,66.9,53.9,30.08,WSW,247,5.0,12.0,63,0.00,,---,0.00,192.00,VWS V14.01,2012-12-24 17:18:00,
2012-12-24 12:19:00,66.9,53.9,30.08,SSW,212,5.0,12.0,63,0.00,,---,0.00,192.00,VWS V14.01,2012-12-24 17:19:00,
2012-12-24 12:20:00,66.9,53.9,30.08,SW,229,5.0,12.0,63,0.00,,---,0.00,202.00,VWS V14.01,2012-12-24 17:20:00,
2012-12-24 12:21:00,66.9,53.9,30.07,SSW,194,7.0,12.0,63,0.00,,---,0.00,204.00,VWS V14.01,2012-12-24 17:21:00,
2012-12-24 12:22:00,66.8,53.8,30.07,South,176,6.0,12.0,63,0.00,,---,0.00,206.00,VWS V14.01,2012-12-24 17:22:00,
2012-12-24 12:23:00,66.8,53.8,30.07,South,182,7.0,12.0,63,0.00,,---,0.00,207.00,VWS V14.01,2012-12-24 17:23:00,
2012-12-24 12:24:00,66.9,53.9,30.07,SSW,192,10.0,12.0,63,0.00,,---,0.00,207.00,VWS V14.01,2012-12-24 17:24:00,
2012-12-24 12:25:00,66.8,53.8,30.07,SSW,198,4.0,12.0,63,0.00,,---,0.00,207.00,VWS V14.01,2012-12-24 17:25:00,
2012-12-24 12:26:00,66.8,53.8,30.07,SW,214,4.0,12.0,63,0.00,,---,0.00,206.00,VWS V14.01,2012-12-24 17:26:00,
2012-12-24 12:27:00,66.9,53.9,30.07,South,187,1.0,12.0,63,0.00,,---,0.00,190.00,VWS V14.01,2012-12-24 17:27:00,
2012-12-24 12:28:00,66.9,53.9,30.07,WSW,253,6.0,12.0,63,0.00,,---,0.00,178.00,VWS V14.01,2012-12-24 17:28:00,
2012-12-24 12:29:00,66.9,53.9,30.07,SW,233,3.0,12.0,63,0.00,,---,0.00,165.00,VWS V14.01,2012-12-24 17:29:00,
2012-12-24 12:30:00,66.9,54.3,30.07,South,187,8.0,12.0,64,0.00,,---,0.00,155.00,VWS V14.01,2012-12-24 17:30:00,
2012-12-24 12:31:00,67.0,54.0,30.07,SSW,212,4.0,12.0,63,0.00,,---,0.00,141.00,VWS V14.01,2012-12-24 17:31:00,
2012-12-24 12:32:00,66.9,53.9,30.07,WSW,243,4.0,12.0,63,0.00,,---,0.00,135.00,VWS V14.01,2012-12-24 17:32:00,
2012-12-24 12:33:00,66.9,54.3,30.07,South,187,7.0,12.0,64,0.00,,---,0.00,130.00,VWS V14.01,2012-12-24 17:33:00,
2012-12-24 12:34:00,66.8,54.2,30.07,SSW,208,4.0,12.0,64,0.00,,---,0.00,128.00,VWS V14.01,2012-12-24 17:34:00,
2012-12-24 12:35:00,66.7,54.2,30.06,SSW,203,4.0,12.0,64,0.00,,---,0.00,127.00,VWS V14.01,2012-12-24 17:35:00,
2012-12-24 12:36:00,66.7,54.2,30.06,South,182,5.0,12.0,64,0.00,,---,0.00,127.00,VWS V14.01,2012-12-24 17:36:00,
2012-12-24 12:37:00,66.7,54.2,30.06,South,189,11.0,12.0,64,0.00,,---,0.00,125.00,VWS V14.01,2012-12-24 17:37:00,
2012-12-24 12:38:00,66.6,54.5,30.06,WSW,243,5.0,12.0,65,0.00,,---,0.00,125.00,VWS V14.01,2012-12-24 17:38:00,
2012-12-24 12:39:00,66.6,54.1,30.06,SSW,193,7.0,12.0,64,0.00,,---,0.00,121.00,VWS V14.01,2012-12-24 17:39:00,
2012-12-24 12:40:00,66.5,54.4,30.06,SW,223,5.0,12.0,65,0.00,,---,0.00,118.00,VWS V14.01,2012-12-24 17:40:00,
2012-12-24 12:41:00,66.5,54.4,30.06,SSW,212,3.0,12.0,65,0.00,,---,0.00,114.00,VWS V14.01,2012-12-24 17:41:00,
2012-12-24 12:42:00,66.4,54.3,30.06,SSW,198,4.0,12.0,65,0.00,,---,0.00,116.00,VWS V14.01,2012-12-24 17:42:00,
2012-12-24 12:43:00,66.4,54.3,30.06,SSE,161,5.0,12.0,65,0.00,,---,0.00,121.00,VWS V14.01,2012-12-24 17:43:00,
2012-12-24 12:44:00,66.4,54.3,30.06,SSW,203,5.0,12.0,65,0.00,,---,0.00,128.00,VWS V14.01,2012-12-24 17:44:00,
2012-12-24 12:45:00,66.4,54.3,30.06,SSW,203,4.0,12.0,65,0.00,,---,0.00,146.00,VWS V14.01,2012-12-24 17:45:00,
2012-12-24 12:46:00,66.4,54.3,30.06,SW,221,7.0,12.0,65,0.00,,---,0.00,155.00,VWS V14.01,2012-12-24 17:46:00,
2012-12-24 12:47:00,66.4,54.7,30.06,SSW,198,3.0,12.0,66,0.00,,---,0.00,162.00,VWS V14.01,2012-12-24 17:47:00,
2012-12-24 12:48:00,66.5,54.8,30.06,South,187,5.0,12.0,66,0.00,,---,0.00,172.00,VWS V14.01,2012-12-24 17:48:00,
2012-12-24 12:49:00,66.6,54.9,30.06,WSW,249,3.0,12.0,66,0.00,,---,0.00,183.00,VWS V14.01,2012-12-24 17:49:00,
2012-12-24 12:50:00,66.6,54.9,30.06,SW,234,4.0,12.0,66,0.00,,---,0.00,202.00,VWS V14.01,2012-12-24 17:50:00,
2012-12-24 12:51:00,66.6,54.9,30.06,SSW,203,3.0,12.0,66,0.00,,---,0.00,206.00,VWS V14.01,2012-12-24 17:51:00,
2012-12-24 12:52:00,66.7,55.0,30.06,SW,233,7.0,12.0,66,0.00,,---,0.00,207.00,VWS V14.01,2012-12-24 17:52:00,
2012-12-24 12:53:00,66.7,55.4,30.07,WSW,245,6.0,12.0,67,0.00,,---,0.00,211.00,VWS V14.01,2012-12-24 17:53:00,
2012-12-24 12:54:00,66.7,55.4,30.07,SW,215,2.0,12.0,67,0.00,,---,0.00,213.00,VWS V14.01,2012-12-24 17:54:00,
2012-12-24 12:55:00,66.7,55.4,30.07,SW,229,5.0,12.0,67,0.00,,---,0.00,209.00,VWS V14.01,2012-12-24 17:55:00,
2012-12-24 12:56:00,66.7,55.8,30.07,SSW,208,4.0,12.0,68,0.00,,---,0.00,195.00,VWS V14.01,2012-12-24 17:56:00,
2012-12-24 12:57:00,66.6,55.7,30.07,SW,222,2.0,12.0,68,0.00,,---,0.00,186.00,VWS V14.01,2012-12-24 17:57:00,
2012-12-24 12:58:00,66.6,55.7,30.07,SW,215,1.0,12.0,68,0.00,,---,0.00,178.00,VWS V14.01,2012-12-24 17:58:00,
2012-12-24 12:59:00,66.5,55.6,30.07,SW,235,2.0,12.0,68,0.00,,---,0.00,169.00,VWS V14.01,2012-12-24 17:59:00,
2012-12-24 13:00:00,66.4,55.5,30.07,SW,223,4.0,12.0,68,0.00,,---,0.00,169.00,VWS V14.01,2012-12-24 18:00:00,
2012-12-24 13:01:00,66.4,55.5,30.07,WSW,239,3.0,6.0,68,0.00,,---,0.00,151.00,VWS V14.01,2012-12-24 18:01:00,
2012-12-24 13:02:00,66.3,55.8,30.07,West,262,3.0,6.0,69,0.00,,---,0.00,149.00,VWS V14.01,2012-12-24 18:02:00,
2012-12-24 13:03:00,66.3,55.4,30.07,WSW,247,2.0,6.0,68,0.00,,---,0.00,148.00,VWS V14.01,2012-12-24 18:03:00,
2012-12-24 13:04:00,66.3,55.8,30.07,WSW,255,5.0,6.0,69,0.00,,---,0.00,148.00,VWS V14.01,2012-12-24 18:04:00,
2012-12-24 13:05:00,66.3,55.4,30.07,WSW,243,2.0,7.0,68,0.00,,---,0.00,148.00,VWS V14.01,2012-12-24 18:05:00,
2012-12-24 13:06:00,66.3,55.4,30.07,West,270,3.0,7.0,68,0.00,,---,0.00,149.00,VWS V14.01,2012-12-24 18:06:00,
2012-12-24 13:07:00,66.2,55.3,30.07,SSW,203,3.0,7.0,68,0.00,,---,0.00,155.00,VWS V14.01,2012-12-24 18:07:00,
2012-12-24 13:08:00,66.2,55.3,30.07,SW,232,3.0,7.0,68,0.00,,---,0.00,156.00,VWS V14.01,2012-12-24 18:08:00,
2012-12-24 13:09:00,66.2,55.3,30.06,WSW,237,3.0,7.0,68,0.00,,---,0.00,156.00,VWS V14.01,2012-12-24 18:09:00,
2012-12-24 13:10:00,66.2,55.3,30.06,WNW,301,1.0,7.0,68,0.00,,---,0.00,158.00,VWS V14.01,2012-12-24 18:10:00,
2012-12-24 13:11:00,66.2,55.3,30.06,SW,235,3.0,7.0,68,0.00,,---,0.00,158.00,VWS V14.01,2012-12-24 18:11:00,
2012-12-24 13:12:00,66.3,55.4,30.06,WSW,246,3.0,7.0,68,0.00,,---,0.00,156.00,VWS V14.01,2012-12-24 18:12:00,
2012-12-24 13:13:00,66.3,55.4,30.07,WSW,243,3.0,7.0,68,0.00,,---,0.00,151.00,VWS V14.01,2012-12-24 18:13:00,
2012-12-24 13:14:00,66.3,55.8,30.07,West,260,2.0,7.0,69,0.00,,---,0.00,148.00,VWS V14.01,2012-12-24 18:14:00,
2012-12-24 13:15:00,66.3,55.4,30.07,WSW,242,1.0,7.0,68,0.00,,---,0.00,144.00,VWS V14.01,2012-12-24 18:15:00,
2012-12-24 13:16:00,66.4,55.9,30.07,WSW,237,3.0,7.0,69,0.00,,---,0.00,141.00,VWS V14.01,2012-12-24 18:16:00,
2012-12-24 13:17:00,66.5,56.4,30.06,SW,217,8.0,8.0,70,0.00,,---,0.00,135.00,VWS V14.01,2012-12-24 18:17:00,
2012-12-24 13:18:00,66.5,56.0,30.07,SW,235,2.0,8.0,69,0.00,,---,0.00,128.00,VWS V14.01,2012-12-24 18:18:00,
2012-12-24 13:19:00,66.5,56.0,30.06,West,268,0.0,8.0,69,0.00,,---,0.00,127.00,VWS V14.01,2012-12-24 18:19:00,
2012-12-24 13:20:00,66.4,56.3,30.06,WSW,249,0.0,8.0,70,0.00,,---,0.00,125.00,VWS V14.01,2012-12-24 18:20:00,
2012-12-24 13:21:00,66.4,56.3,30.06,SSW,213,2.0,8.0,70,0.00,,---,0.00,127.00,VWS V14.01,2012-12-24 18:21:00,
2012-12-24 13:22:00,66.3,56.2,30.06,SSW,193,4.0,8.0,70,0.00,,---,0.00,128.00,VWS V14.01,2012-12-24 18:22:00,
2012-12-24 13:23:00,66.3,56.2,30.06,SW,235,2.0,8.0,70,0.00,,---,0.00,130.00,VWS V14.01,2012-12-24 18:23:00,
2012-12-24 13:24:00,66.2,56.1,30.06,WSW,239,1.0,8.0,70,0.00,,---,0.00,134.00,VWS V14.01,2012-12-24 18:24:00,
2012-12-24 13:25:00,66.1,56.0,30.06,WSW,247,4.0,8.0,70,0.00,,---,0.00,141.00,VWS V14.01,2012-12-24 18:25:00,
2012-12-24 13:26:00,66.1,56.0,30.06,SW,225,3.0,8.0,70,0.00,,---,0.00,144.00,VWS V14.01,2012-12-24 18:26:00,
2012-12-24 13:27:00,66.0,56.0,30.06,SSW,213,4.0,8.0,70,0.00,,---,0.00,148.00,VWS V14.01,2012-12-24 18:27:00,
2012-12-24 13:28:00,65.9,55.8,30.06,WSW,241,5.0,8.0,70,0.00,,---,0.00,151.00,VWS V14.01,2012-12-24 18:28:00,
2012-12-24 13:29:00,65.9,55.8,30.06,South,191,4.0,8.0,70,0.00,,---,0.00,155.00,VWS V14.01,2012-12-24 18:29:00,
2012-12-24 13:30:00,65.8,55.8,30.06,SSW,208,5.0,8.0,70,0.00,,---,0.00,153.00,VWS V14.01,2012-12-24 18:30:00,
2012-12-24 13:31:00,65.8,56.2,30.06,WSW,249,3.0,8.0,71,0.00,,---,0.00,149.00,VWS V14.01,2012-12-24 18:31:00,
2012-12-24 13:32:00,65.8,56.5,30.06,SSW,198,4.0,8.0,72,0.00,,---,0.00,146.00,VWS V14.01,2012-12-24 18:32:00,
2012-12-24 13:33:00,65.8,56.5,30.06,SW,228,3.0,8.0,72,0.00,,---,0.00,144.00,VWS V14.01,2012-12-24 18:33:00,
2012-12-24 13:34:00,65.8,56.5,30.06,WSW,239,2.0,8.0,72,0.00,,---,0.00,142.00,VWS V14.01,2012-12-24 18:34:00,
2012-12-24 13:35:00,65.8,56.5,30.06,SSW,198,2.0,8.0,72,0.00,,---,0.00,144.00,VWS V14.01,2012-12-24 18:35:00,
2012-12-24 13:36:00,65.7,56.8,30.06,SW,224,3.0,8.0,73,0.00,,---,0.00,149.00,VWS V14.01,2012-12-24 18:36:00,
2012-12-24 13:37:00,65.7,56.4,30.05,SSW,203,0.0,8.0,72,0.00,,---,0.00,169.00,VWS V14.01,2012-12-24 18:37:00,
2012-12-24 13:38:00,65.7,56.4,30.05,WSW,237,2.0,8.0,72,0.00,,---,0.00,181.00,VWS V14.01,2012-12-24 18:38:00,
2012-12-24 13:39:00,65.8,56.9,30.06,SW,222,4.0,8.0,73,0.00,,---,0.00,190.00,VWS V14.01,2012-12-24 18:39:00,
2012-12-24 13:40:00,65.7,56.8,30.06,SW,231,3.0,8.0,73,0.00,,---,0.00,193.00,VWS V14.01,2012-12-24 18:40:00,
2012-12-24 13:41:00,65.8,56.5,30.06,SW,231,1.0,8.0,72,0.00,,---,0.00,193.00,VWS V14.01,2012-12-24 18:41:00,
2012-12-24 13:42:00,65.8,56.9,30.05,WSW,246,2.0,8.0,73,0.00,,---,0.00,190.00,VWS V14.01,2012-12-24 18:42:00,
2012-12-24 13:43:00,65.8,56.9,30.05,WSW,246,2.0,8.0,73,0.00,,---,0.00,188.00,VWS V14.01,2012-12-24 18:43:00,
2012-12-24 13:44:00,65.9,57.0,30.05,SW,218,3.0,8.0,73,0.00,,---,0.00,181.00,VWS V14.01,2012-12-24 18:44:00,
2012-12-24 13:45:00,65.9,57.0,30.05,SW,233,3.0,8.0,73,0.00,,---,0.00,179.00,VWS V14.01,2012-12-24 18:45:00,
2012-12-24 13:46:00,65.9,57.0,30.05,West,260,1.0,8.0,73,0.00,,---,0.00,181.00,VWS V14.01,2012-12-24 18:46:00,
2012-12-24 13:47:00,65.9,56.6,30.05,WSW,247,2.0,8.0,72,0.00,,---,0.00,183.00,VWS V14.01,2012-12-24 18:47:00,
2012-12-24 13:48:00,65.9,56.6,30.05,West,260,4.0,8.0,72,0.00,,---,0.00,197.00,VWS V14.01,2012-12-24 18:48:00,
2012-12-24 13:49:00,65.9,56.2,30.05,SW,233,3.0,8.0,71,0.00,,---,0.00,202.00,VWS V14.01,2012-12-24 18:49:00,
2012-12-24 13:50:00,65.9,56.6,30.05,WSW,241,0.0,8.0,72,0.00,,---,0.00,204.00,VWS V14.01,2012-12-24 18:50:00,
2012-12-24 13:51:00,66.0,57.1,30.05,WSW,248,4.0,8.0,73,0.00,,---,0.00,202.00,VWS V14.01,2012-12-24 18:51:00,
2012-12-24 13:52:00,66.0,56.7,30.05,WSW,240,1.0,8.0,72,0.00,,---,0.00,197.00,VWS V14.01,2012-12-24 18:52:00,
2012-12-24 13:53:00,66.1,56.8,30.05,WSW,239,1.0,8.0,72,0.00,,---,0.00,192.00,VWS V14.01,2012-12-24 18:53:00,
2012-12-24 13:54:00,66.1,56.8,30.05,WSW,239,2.0,8.0,72,0.00,,---,0.00,188.00,VWS V14.01,2012-12-24 18:54:00,
2012-12-24 13:55:00,66.2,56.9,30.05,SW,225,2.0,8.0,72,0.00,,---,0.00,185.00,VWS V14.01,2012-12-24 18:55:00,
2012-12-24 13:56:00,66.2,56.9,30.05,SW,220,2.0,8.0,72,0.00,,---,0.00,186.00,VWS V14.01,2012-12-24 18:56:00,
2012-12-24 13:57:00,66.2,56.5,30.05,SW,235,2.0,8.0,71,0.00,,---,0.00,190.00,VWS V14.01,2012-12-24 18:57:00,
2012-12-24 13:58:00,66.2,56.9,30.05,WSW,245,1.0,8.0,72,0.00,,---,0.00,192.00,VWS V14.01,2012-12-24 18:58:00,
2012-12-24 13:59:00,66.3,56.6,30.05,WSW,248,2.0,8.0,71,0.00,,---,0.00,192.00,VWS V14.01,2012-12-24 18:59:00,
2012-12-24 14:00:00,66.3,56.6,30.05,SW,236,2.0,8.0,71,0.00,,---,0.00,190.00,VWS V14.01,2012-12-24 19:00:00,
2012-12-24 14:01:00,66.4,57.1,30.05,SW,234,2.0,4.0,72,0.00,,---,0.00,188.00,VWS V14.01,2012-12-24 19:01:00,
2012-12-24 14:02:00,66.4,56.7,30.05,SSW,212,4.0,4.0,71,0.00,,---,0.00,190.00,VWS V14.01,2012-12-24 19:02:00,
2012-12-24 14:03:00,66.5,56.8,30.04,SSW,213,2.0,4.0,71,0.00,,---,0.00,190.00,VWS V14.01,2012-12-24 19:03:00,
2012-12-24 14:04:00,66.5,56.8,30.04,SW,219,2.0,5.0,71,0.00,,---,0.00,192.00,VWS V14.01,2012-12-24 19:04:00,
2012-12-24 14:05:00,66.5,56.8,30.04,SW,222,3.0,5.0,71,0.00,,---,0.00,195.00,VWS V14.01,2012-12-24 19:05:00,
2012-12-24 14:06:00,66.5,56.4,30.04,SW,217,3.0,6.0,70,0.00,,---,0.00,199.00,VWS V14.01,2012-12-24 19:06:00,
2012-12-24 14:07:00,66.5,56.4,30.04,SSW,208,6.0,7.0,70,0.00,,---,0.00,204.00,VWS V14.01,2012-12-24 19:07:00,
2012-12-24 14:08:00,66.5,56.0,30.04,SW,226,5.0,7.0,69,0.00,,---,0.00,204.00,VWS V14.01,2012-12-24 19:08:00,
2012-12-24 14:09:00,66.5,56.0,30.04,WSW,245,1.0,7.0,69,0.00,,---,0.00,214.00,VWS V14.01,2012-12-24 19:09:00,
2012-12-24 14:10:00,66.5,56.4,30.04,SSW,208,2.0,7.0,70,0.00,,---,0.00,218.00,VWS V14.01,2012-12-24 19:10:00,
2012-12-24 14:11:00,66.6,56.9,30.04,South,170,3.0,7.0,71,0.00,,---,0.00,214.00,VWS V14.01,2012-12-24 19:11:00,
2012-12-24 14:12:00,66.7,56.6,30.04,SW,221,5.0,7.0,70,0.00,,---,0.00,209.00,VWS V14.01,2012-12-24 19:12:00,
2012-12-24 14:13:00,66.8,56.7,30.04,South,185,3.0,7.0,70,0.00,,---,0.00,206.00,VWS V14.01,2012-12-24 19:13:00,
2012-12-24 14:14:00,66.8,56.7,30.03,SSW,208,2.0,7.0,70,0.00,,---,0.00,200.00,VWS V14.01,2012-12-24 19:14:00,
2012-12-24 14:15:00,66.9,56.8,30.03,SSW,203,4.0,7.0,70,0.00,,---,0.00,195.00,VWS V14.01,2012-12-24 19:15:00,
2012-12-24 14:16:00,66.9,56.4,30.03,SW,224,3.0,7.0,69,0.00,,---,0.00,190.00,VWS V14.01,2012-12-24 19:16:00,
2012-12-24 14:17:00,67.0,56.5,30.03,South,174,5.0,7.0,69,0.00,,---,0.00,181.00,VWS V14.01,2012-12-24 19:17:00,
2012-12-24 14:18:00,66.9,56.4,30.03,SSW,193,3.0,7.0,69,0.00,,---,0.00,178.00,VWS V14.01,2012-12-24 19:18:00,
2012-12-24 14:19:00,66.9,56.4,30.03,SSW,208,3.0,7.0,69,0.00,,---,0.00,174.00,VWS V14.01,2012-12-24 19:19:00,
2012-12-24 14:20:00,66.9,56.4,30.03,SSW,198,5.0,7.0,69,0.00,,---,0.00,169.00,VWS V14.01,2012-12-24 19:20:00,
2012-12-24 14:21:00,66.9,56.4,30.03,SW,232,4.0,7.0,69,0.00,,---,0.00,167.00,VWS V14.01,2012-12-24 19:21:00,
2012-12-24 14:22:00,66.9,56.4,30.03,SSW,203,5.0,7.0,69,0.00,,---,0.00,165.00,VWS V14.01,2012-12-24 19:22:00,
2012-12-24 14:23:00,66.9,56.4,30.02,SW,234,1.0,7.0,69,0.00,,---,0.00,167.00,VWS V14.01,2012-12-24 19:23:00,
2012-12-24 14:24:00,66.9,56.4,30.02,West,267,4.0,7.0,69,0.00,,---,0.00,169.00,VWS V14.01,2012-12-24 19:24:00,
2012-12-24 14:25:00,66.9,56.4,30.02,WSW,256,4.0,7.0,69,0.00,,---,0.00,169.00,VWS V14.01,2012-12-24 19:25:00,
2012-12-24 14:26:00,66.9,56.0,30.02,SW,217,2.0,7.0,68,0.00,,---,0.00,171.00,VWS V14.01,2012-12-24 19:26:00,
2012-12-24 14:27:00,66.9,56.0,30.02,SW,219,5.0,7.0,68,0.00,,---,0.00,171.00,VWS V14.01,2012-12-24 19:27:00,
2012-12-24 14:28:00,67.0,56.1,30.02,SW,228,6.0,9.0,68,0.00,,---,0.00,172.00,VWS V14.01,2012-12-24 19:28:00,
2012-12-24 14:29:00,67.0,56.1,30.02,SSW,208,2.0,9.0,68,0.00,,---,0.00,174.00,VWS V14.01,2012-12-24 19:29:00,
2012-12-24 14:30:00,67.0,56.1,30.02,WSW,242,5.0,9.0,68,0.00,,---,0.00,176.00,VWS V14.01,2012-12-24 19:30:00,
2012-12-24 14:31:00,67.0,56.1,30.02,South,191,3.0,9.0,68,0.00,,---,0.00,181.00,VWS V14.01,2012-12-24 19:31:00,
2012-12-24 14:32:00,67.1,56.2,30.02,SSW,208,4.0,9.0,68,0.00,,---,0.00,183.00,VWS V14.01,2012-12-24 19:32:00,
2012-12-24 14:33:00,67.1,56.2,30.02,SW,236,2.0,9.0,68,0.00,,---,0.00,183.00,VWS V14.01,2012-12-24 19:33:00,
2012-12-24 14:34:00,67.2,56.3,30.02,SSW,198,1.0,9.0,68,0.00,,---,0.00,186.00,VWS V14.01,2012-12-24 19:34:00,
2012-12-24 14:35:00,67.3,56.4,30.02,SW,215,5.0,9.0,68,0.00,,---,0.00,190.00,VWS V14.01,2012-12-24 19:35:00,
2012-12-24 14:36:00,67.4,56.5,30.02,SSW,208,2.0,9.0,68,0.00,,---,0.00,190.00,VWS V14.01,2012-12-24 19:36:00,
2012-12-24 14:37:00,67.4,56.5,30.02,SW,232,3.0,9.0,68,0.00,,---,0.00,190.00,VWS V14.01,2012-12-24 19:37:00,
2012-12-24 14:38:00,67.5,56.2,30.02,SW,234,6.0,9.0,67,0.00,,---,0.00,186.00,VWS V14.01,2012-12-24 19:38:00,
2012-12-24 14:39:00,67.5,56.2,30.02,WSW,245,3.0,9.0,67,0.00,,---,0.00,179.00,VWS V14.01,2012-12-24 19:39:00,
2012-12-24 14:40:00,67.4,56.1,30.01,SSW,208,2.0,9.0,67,0.00,,---,0.00,174.00,VWS V14.01,2012-12-24 19:40:00,
2012-12-24 14:41:00,67.5,56.2,30.01,SSW,208,5.0,9.0,67,0.00,,---,0.00,179.00,VWS V14.01,2012-12-24 19:41:00,
2012-12-24 14:42:00,67.5,56.2,30.01,SW,229,5.0,10.0,67,0.00,,---,0.00,181.00,VWS V14.01,2012-12-24 19:42:00,
2012-12-24 14:43:00,67.5,56.2,30.01,SW,227,10.0,10.0,67,0.00,,---,0.00,183.00,VWS V14.01,2012-12-24 19:43:00,
2012-12-24 14:44:00,67.4,56.1,30.01,WSW,243,6.0,10.0,67,0.00,,---,0.00,181.00,VWS V14.01,2012-12-24 19:44:00,
2012-12-24 14:45:00,67.4,55.7,30.01,SW,229,3.0,10.0,66,0.00,,---,0.00,181.00,VWS V14.01,2012-12-24 19:45:00,
2012-12-24 14:46:00,67.4,55.7,30.01,SSW,212,3.0,10.0,66,0.00,,---,0.00,178.00,VWS V14.01,2012-12-24 19:46:00,
2012-12-24 14:47:00,67.4,55.7,30.01,SSW,213,4.0,10.0,66,0.00,,---,0.00,181.00,VWS V14.01,2012-12-24 19:47:00,
2012-12-24 14:48:00,67.3,55.6,30.00,SW,215,2.0,10.0,66,0.00,,---,0.00,185.00,VWS V14.01,2012-12-24 19:48:00,
2012-12-24 14:49:00,67.3,56.0,30.00,SW,230,4.0,10.0,67,0.00,,---,0.00,185.00,VWS V14.01,2012-12-24 19:49:00,
2012-12-24 14:50:00,67.3,56.0,30.00,SSW,212,5.0,10.0,67,0.00,,---,0.00,179.00,VWS V14.01,2012-12-24 19:50:00,
2012-12-24 14:51:00,67.3,56.0,30.01,SW,233,6.0,10.0,67,0.00,,---,0.00,174.00,VWS V14.01,2012-12-24 19:51:00,
2012-12-24 14:52:00,67.3,55.6,30.00,SW,220,2.0,10.0,66,0.00,,---,0.00,171.00,VWS V14.01,2012-12-24 19:52:00,
2012-12-24 14:53:00,67.3,56.0,30.00,SW,235,7.0,10.0,67,0.00,,---,0.00,162.00,VWS V14.01,2012-12-24 19:53:00,
2012-12-24 14:54:00,67.2,55.5,30.00,SW,233,8.0,12.0,66,0.00,,---,0.00,160.00,VWS V14.01,2012-12-24 19:54:00,
2012-12-24 14:55:00,67.2,55.5,30.00,SSW,203,9.0,12.0,66,0.00,,---,0.00,160.00,VWS V14.01,2012-12-24 19:55:00,
2012-12-24 14:56:00,67.2,55.5,30.00,SW,218,4.0,12.0,66,0.00,,---,0.00,156.00,VWS V14.01,2012-12-24 19:56:00,
2012-12-24 14:57:00,67.1,55.4,30.00,WNW,285,7.0,12.0,66,0.00,,---,0.00,155.00,VWS V14.01,2012-12-24 19:57:00,
2012-12-24 14:58:00,67.1,55.8,30.00,WSW,242,8.0,12.0,67,0.00,,---,0.00,155.00,VWS V14.01,2012-12-24 19:58:00,
2012-12-24 14:59:00,67.1,55.8,30.00,SW,220,6.0,12.0,67,0.00,,---,0.00,151.00,VWS V14.01,2012-12-24 19:59:00,
2012-12-24 15:00:00,67.1,55.4,29.99,SSW,193,5.0,12.0,66,0.00,,---,0.00,149.00,VWS V14.01,2012-12-24 20:00:00,
2012-12-24 15:01:00,67.1,55.8,29.99,WSW,243,7.0,8.0,67,0.00,,---,0.00,148.00,VWS V14.01,2012-12-24 20:01:00,
2012-12-24 15:02:00,67.1,55.8,29.99,SSW,203,4.0,8.0,67,0.00,,---,0.00,146.00,VWS V14.01,2012-12-24 20:02:00,
2012-12-24 15:03:00,67.2,55.9,29.99,SSW,208,8.0,8.0,67,0.00,,---,0.00,146.00,VWS V14.01,2012-12-24 20:03:00,
2012-12-24 15:04:00,67.2,55.9,29.99,SSW,198,5.0,10.0,67,0.00,,---,0.00,146.00,VWS V14.01,2012-12-24 20:04:00,
2012-12-24 15:05:00,67.2,55.9,29.98,South,183,6.0,10.0,67,0.00,,---,0.00,146.00,VWS V14.01,2012-12-24 20:05:00,
2012-12-24 15:06:00,67.2,55.9,29.98,South,185,4.0,10.0,67,0.00,,---,0.00,146.00,VWS V14.01,2012-12-24 20:06:00,
2012-12-24 15:07:00,67.1,55.8,29.98,SSW,198,6.0,11.0,67,0.00,,---,0.00,146.00,VWS V14.01,2012-12-24 20:07:00,
2012-12-24 15:08:00,67.1,55.8,29.98,South,191,5.0,11.0,67,0.00,,---,0.00,141.00,VWS V14.01,2012-12-24 20:08:00,
2012-12-24 15:09:00,67.1,56.2,29.98,SSW,198,6.0,11.0,68,0.00,,---,0.00,141.00,VWS V14.01,2012-12-24 20:09:00,
2012-12-24 15:10:00,67.0,56.1,29.98,SSW,193,9.0,11.0,68,0.00,,---,0.00,139.00,VWS V14.01,2012-12-24 20:10:00,
2012-12-24 15:11:00,67.1,56.2,29.98,SSW,194,12.0,12.0,68,0.00,,---,0.00,139.00,VWS V14.01,2012-12-24 20:11:00,
2012-12-24 15:12:00,67.0,56.1,29.98,SSW,208,5.0,12.0,68,0.00,,---,0.00,139.00,VWS V14.01,2012-12-24 20:12:00,
2012-12-24 15:13:00,67.0,56.1,29.99,SSW,198,3.0,12.0,68,0.00,,---,0.00,139.00,VWS V14.01,2012-12-24 20:13:00,
2012-12-24 15:14:00,67.0,56.1,29.99,SSW,208,3.0,12.0,68,0.00,,---,0.00,141.00,VWS V14.01,2012-12-24 20:14:00,
2012-12-24 15:15:00,67.0,56.1,29.99,SSW,208,5.0,12.0,68,0.00,,---,0.00,142.00,VWS V14.01,2012-12-24 20:15:00,
2012-12-24 15:16:00,66.9,56.0,29.99,SW,233,6.0,12.0,68,0.00,,---,0.00,144.00,VWS V14.01,2012-12-24 20:16:00,
2012-12-24 15:17:00,66.9,56.0,29.99,SW,235,4.0,12.0,68,0.00,,---,0.00,144.00,VWS V14.01,2012-12-24 20:17:00,
2012-12-24 15:18:00,66.8,55.9,29.99,SSW,194,7.0,12.0,68,0.00,,---,0.00,144.00,VWS V14.01,2012-12-24 20:18:00,
2012-12-24 15:19:00,66.8,56.3,29.99,SSW,198,7.0,12.0,69,0.00,,---,0.00,144.00,VWS V14.01,2012-12-24 20:19:00,
2012-12-24 15:20:00,66.8,56.3,29.99,SW,217,7.0,12.0,69,0.00,,---,0.00,142.00,VWS V14.01,2012-12-24 20:20:00,
2012-12-24 15:21:00,66.8,56.3,29.99,SSW,203,6.0,12.0,69,0.00,,---,0.00,142.00,VWS V14.01,2012-12-24 20:21:00,
2012-12-24 15:22:00,66.8,56.3,29.99,WSW,252,6.0,12.0,69,0.00,,---,0.00,137.00,VWS V14.01,2012-12-24 20:22:00,
2012-12-24 15:23:00,66.8,56.3,29.98,South,187,7.0,12.0,69,0.00,,---,0.00,135.00,VWS V14.01,2012-12-24 20:23:00,
2012-12-24 15:24:00,66.8,56.3,29.98,SW,217,9.0,12.0,69,0.00,,---,0.00,134.00,VWS V14.01,2012-12-24 20:24:00,
2012-12-24 15:25:00,66.8,56.3,29.99,South,187,6.0,12.0,69,0.00,,---,0.00,134.00,VWS V14.01,2012-12-24 20:25:00,
2012-12-24 15:26:00,66.8,56.3,29.99,SW,218,4.0,12.0,69,0.00,,---,0.00,134.00,VWS V14.01,2012-12-24 20:26:00,
2012-12-24 15:27:00,66.8,56.7,29.99,SW,223,3.0,12.0,70,0.00,,---,0.00,134.00,VWS V14.01,2012-12-24 20:27:00,
2012-12-24 15:28:00,66.9,56.8,29.99,SSW,208,4.0,12.0,70,0.00,,---,0.00,135.00,VWS V14.01,2012-12-24 20:28:00,
2012-12-24 15:29:00,66.9,56.8,29.99,South,189,3.0,12.0,70,0.00,,---,0.00,144.00,VWS V14.01,2012-12-24 20:29:00,
2012-12-24 15:30:00,67.0,56.9,29.99,WSW,246,7.0,12.0,70,0.00,,---,0.00,149.00,VWS V14.01,2012-12-24 20:30:00,
2012-12-24 15:31:00,67.0,56.9,29.99,SSW,208,3.0,12.0,70,0.00,,---,0.00,149.00,VWS V14.01,2012-12-24 20:31:00,
2012-12-24 15:32:00,67.0,56.5,29.99,SSW,203,7.0,12.0,69,0.00,,---,0.00,146.00,VWS V14.01,2012-12-24 20:32:00,
2012-12-24 15:33:00,67.1,57.0,30.00,WSW,237,5.0,12.0,70,0.00,,---,0.00,137.00,VWS V14.01,2012-12-24 20:33:00,
2012-12-24 15:34:00,67.1,57.0,30.00,SW,220,3.0,12.0,70,0.00,,---,0.00,134.00,VWS V14.01,2012-12-24 20:34:00,
2012-12-24 15:35:00,67.1,57.0,30.00,SW,235,6.0,12.0,70,0.00,,---,0.00,134.00,VWS V14.01,2012-12-24 20:35:00,
2012-12-24 15:36:00,67.2,57.1,30.00,WNW,288,5.0,12.0,70,0.00,,---,0.00,132.00,VWS V14.01,2012-12-24 20:36:00,
2012-12-24 15:37:00,67.2,57.1,30.00,WSW,258,3.0,12.0,70,0.00,,---,0.00,130.00,VWS V14.01,2012-12-24 20:37:00,
2012-12-24 15:38:00,67.2,57.1,30.01,WSW,254,3.0,12.0,70,0.00,,---,0.00,134.00,VWS V14.01,2012-12-24 20:38:00,
2012-12-24 15:39:00,67.2,57.1,30.01,WSW,239,2.0,12.0,70,0.00,,---,0.00,137.00,VWS V14.01,2012-12-24 20:39:00,
2012-12-24 15:40:00,67.3,57.2,30.01,WSW,243,5.0,12.0,70,0.00,,---,0.00,139.00,VWS V14.01,2012-12-24 20:40:00,
2012-12-24 15:41:00,67.3,57.2,30.01,SW,232,1.0,12.0,70,0.00,,---,0.00,137.00,VWS V14.01,2012-12-24 20:41:00,
2012-12-24 15:42:00,67.3,57.2,30.01,WSW,239,2.0,12.0,70,0.00,,---,0.00,135.00,VWS V14.01,2012-12-24 20:42:00,
2012-12-24 15:43:00,67.3,57.2,30.02,SSW,194,1.0,12.0,70,0.00,,---,0.00,134.00,VWS V14.01,2012-12-24 20:43:00,
2012-12-24 15:44:00,67.4,57.3,30.02,West,262,1.0,12.0,70,0.00,,---,0.00,132.00,VWS V14.01,2012-12-24 20:44:00,
2012-12-24 15:45:00,67.4,57.7,30.02,WSW,253,0.0,12.0,71,0.00,,---,0.00,128.00,VWS V14.01,2012-12-24 20:45:00,
2012-12-24 15:46:00,67.4,57.7,30.02,SW,236,3.0,12.0,71,0.00,,---,0.00,123.00,VWS V14.01,2012-12-24 20:46:00,
2012-12-24 15:47:00,67.4,57.3,30.02,SW,231,0.0,12.0,70,0.00,,---,0.00,118.00,VWS V14.01,2012-12-24 20:47:00,
2012-12-24 15:48:00,67.4,57.3,30.02,SW,231,1.0,12.0,70,0.00,,---,0.00,116.00,VWS V14.01,2012-12-24 20:48:00,
2012-12-24 15:49:00,67.4,57.7,30.02,WSW,255,1.0,12.0,71,0.00,,---,0.00,116.00,VWS V14.01,2012-12-24 20:49:00,
2012-12-24 15:50:00,67.4,57.3,30.02,WSW,251,1.0,12.0,70,0.00,,---,0.00,118.00,VWS V14.01,2012-12-24 20:50:00,
2012-12-24 15:51:00,67.4,57.3,30.02,WSW,241,3.0,12.0,70,0.00,,---,0.00,116.00,VWS V14.01,2012-12-24 20:51:00,
2012-12-24 15:52:00,67.5,57.4,30.02,WSW,239,1.0,12.0,70,0.00,,---,0.00,116.00,VWS V14.01,2012-12-24 20:52:00,
2012-12-24 15:53:00,67.5,57.4,30.02,WSW,239,1.0,12.0,70,0.00,,---,0.00,114.00,VWS V14.01,2012-12-24 20:53:00,
2012-12-24 15:54:00,67.5,57.4,30.01,SW,218,1.0,12.0,70,0.00,,---,0.00,114.00,VWS V14.01,2012-12-24 20:54:00,
2012-12-24 15:55:00,67.5,57.4,30.01,South,187,3.0,12.0,70,0.00,,---,0.00,113.00,VWS V14.01,2012-12-24 20:55:00,
2012-12-24 15:56:00,67.5,57.4,30.01,SW,229,5.0,12.0,70,0.00,,---,0.00,111.00,VWS V14.01,2012-12-24 20:56:00,
2012-12-24 15:57:00,67.5,57.4,30.01,WSW,241,3.0,12.0,70,0.00,,---,0.00,107.00,VWS V14.01,2012-12-24 20:57:00,
2012-12-24 15:58:00,67.5,57.4,30.01,SW,214,2.0,12.0,70,0.00,,---,0.00,109.00,VWS V14.01,2012-12-24 20:58:00,
2012-12-24 15:59:00,67.5,57.4,30.01,WSW,240,2.0,12.0,70,0.00,,---,0.00,113.00,VWS V14.01,2012-12-24 20:59:00,
2012-12-24 16:00:00,67.5,57.4,30.01,West,266,1.0,12.0,70,0.00,,---,0.00,113.00,VWS V14.01,2012-12-24 21:00:00,
2012-12-24 16:01:00,67.5,57.4,30.01,SW,225,1.0,3.0,70,0.00,,---,0.00,113.00,VWS V14.01,2012-12-24 21:01:00,
2012-12-24 16:02:00,67.5,57.8,30.00,SW,216,4.0,5.0,71,0.00,,---,0.00,105.00,VWS V14.01,2012-12-24 21:02:00,
2012-12-24 16:03:00,67.6,57.5,30.00,SW,217,7.0,7.0,70,0.00,,---,0.00,105.00,VWS V14.01,2012-12-24 21:03:00,
2012-12-24 16:04:00,67.5,57.4,30.00,SSW,203,3.0,7.0,70,0.00,,---,0.00,95.00,VWS V14.01,2012-12-24 21:04:00,
2012-12-24 16:05:00,67.5,57.4,30.00,SSW,198,2.0,7.0,70,0.00,,---,0.00,90.00,VWS V14.01,2012-12-24 21:05:00,
2012-12-24 16:06:00,67.5,57.4,30.00,WSW,240,1.0,7.0,70,0.00,,---,0.00,84.00,VWS V14.01,2012-12-24 21:06:00,
2012-12-24 16:07:00,67.5,57.8,30.01,WSW,239,2.0,7.0,71,0.00,,---,0.00,81.00,VWS V14.01,2012-12-24 21:07:00,
2012-12-24 16:08:00,67.5,57.8,30.01,SW,220,4.0,7.0,71,0.00,,---,0.00,74.00,VWS V14.01,2012-12-24 21:08:00,
2012-12-24 16:09:00,67.5,57.4,30.01,SW,217,2.0,7.0,70,0.00,,---,0.00,72.00,VWS V14.01,2012-12-24 21:09:00,
2012-12-24 16:10:00,67.5,57.4,30.01,SW,231,2.0,7.0,70,0.00,,---,0.00,70.00,VWS V14.01,2012-12-24 21:10:00,
2012-12-24 16:11:00,67.4,57.7,30.01,SW,226,2.0,7.0,71,0.00,,---,0.00,67.00,VWS V14.01,2012-12-24 21:11:00,
2012-12-24 16:12:00,67.4,57.7,30.01,SSW,193,1.0,7.0,71,0.00,,---,0.00,65.00,VWS V14.01,2012-12-24 21:12:00,
2012-12-24 16:13:00,67.4,57.7,30.01,SSW,193,2.0,7.0,71,0.00,,---,0.00,62.00,VWS V14.01,2012-12-24 21:13:00,
2012-12-24 16:14:00,67.4,57.7,30.00,SSW,194,1.0,7.0,71,0.00,,---,0.00,60.00,VWS V14.01,2012-12-24 21:14:00,
2012-12-24 16:15:00,67.4,57.7,30.00,SSW,208,3.0,7.0,71,0.00,,---,0.00,56.00,VWS V14.01,2012-12-24 21:15:00,
2012-12-24 16:16:00,67.4,57.7,30.00,SSW,198,2.0,7.0,71,0.00,,---,0.00,56.00,VWS V14.01,2012-12-24 21:16:00,
2012-12-24 16:17:00,67.3,57.6,30.01,WSW,255,3.0,7.0,71,0.00,,---,0.00,58.00,VWS V14.01,2012-12-24 21:17:00,
2012-12-24 16:18:00,67.3,57.6,30.01,SW,229,3.0,7.0,71,0.00,,---,0.00,60.00,VWS V14.01,2012-12-24 21:18:00,
2012-12-24 16:19:00,67.3,57.6,30.01,WSW,237,3.0,7.0,71,0.00,,---,0.00,63.00,VWS V14.01,2012-12-24 21:19:00,
2012-12-24 16:20:00,67.3,57.6,30.01,WSW,237,1.0,7.0,71,0.00,,---,0.00,65.00,VWS V14.01,2012-12-24 21:20:00,
2012-12-24 16:21:00,67.3,57.6,30.02,SW,222,0.0,7.0,71,0.00,,---,0.00,65.00,VWS V14.01,2012-12-24 21:21:00,
2012-12-24 16:22:00,67.3,57.6,30.02,SW,224,6.0,7.0,71,0.00,,---,0.00,63.00,VWS V14.01,2012-12-24 21:22:00,
2012-12-24 16:23:00,67.3,57.6,30.02,SW,228,0.0,7.0,71,0.00,,---,0.00,62.00,VWS V14.01,2012-12-24 21:23:00,
2012-12-24 16:24:00,67.3,57.6,30.02,WSW,243,0.0,7.0,71,0.00,,---,0.00,60.00,VWS V14.01,2012-12-24 21:24:00,
2012-12-24 16:25:00,67.3,57.6,30.02,SW,220,2.0,7.0,71,0.00,,---,0.00,60.00,VWS V14.01,2012-12-24 21:25:00,
2012-12-24 16:26:00,67.3,57.6,30.02,South,181,4.0,7.0,71,0.00,,---,0.00,58.00,VWS V14.01,2012-12-24 21:26:00,
2012-12-24 16:27:00,67.2,57.5,30.01,WSW,241,3.0,7.0,71,0.00,,---,0.00,54.00,VWS V14.01,2012-12-24 21:27:00,
2012-12-24 16:28:00,67.2,57.5,30.01,South,185,6.0,7.0,71,0.00,,---,0.00,51.00,VWS V14.01,2012-12-24 21:28:00,
2012-12-24 16:29:00,67.2,57.5,30.01,SW,233,3.0,7.0,71,0.00,,---,0.00,51.00,VWS V14.01,2012-12-24 21:29:00,
2012-12-24 16:30:00,67.2,57.5,30.01,SW,225,3.0,7.0,71,0.00,,---,0.00,47.00,VWS V14.01,2012-12-24 21:30:00,
2012-12-24 16:31:00,67.1,57.4,30.01,SSW,208,4.0,7.0,71,0.00,,---,0.00,46.00,VWS V14.01,2012-12-24 21:31:00,
2012-12-24 16:32:00,67.1,57.4,30.01,West,272,4.0,7.0,71,0.00,,---,0.00,44.00,VWS V14.01,2012-12-24 21:32:00,
2012-12-24 16:33:00,67.1,57.4,30.01,SW,216,3.0,7.0,71,0.00,,---,0.00,44.00,VWS V14.01,2012-12-24 21:33:00,
2012-12-24 16:34:00,67.1,57.8,30.01,SW,215,4.0,7.0,72,0.00,,---,0.00,44.00,VWS V14.01,2012-12-24 21:34:00,
2012-12-24 16:35:00,67.0,57.7,30.01,SW,217,3.0,7.0,72,0.00,,---,0.00,44.00,VWS V14.01,2012-12-24 21:35:00,
2012-12-24 16:36:00,67.0,57.7,30.01,SW,214,3.0,7.0,72,0.00,,---,0.00,42.00,VWS V14.01,2012-12-24 21:36:00,
2012-12-24 16:37:00,67.0,57.7,30.01,South,190,4.0,7.0,72,0.00,,---,0.00,42.00,VWS V14.01,2012-12-24 21:37:00,
2012-12-24 16:38:00,66.9,57.6,30.01,South,191,3.0,7.0,72,0.00,,---,0.00,42.00,VWS V14.01,2012-12-24 21:38:00,
2012-12-24 16:39:00,66.9,57.6,30.01,SW,222,1.0,7.0,72,0.00,,---,0.00,42.00,VWS V14.01,2012-12-24 21:39:00,
2012-12-24 16:40:00,66.9,57.6,30.01,SW,216,1.0,7.0,72,0.00,,---,0.00,42.00,VWS V14.01,2012-12-24 21:40:00,
2012-12-24 16:41:00,66.8,57.9,30.01,SW,221,2.0,7.0,73,0.00,,---,0.00,40.00,VWS V14.01,2012-12-24 21:41:00,
2012-12-24 16:42:00,66.8,57.9,30.01,WSW,247,1.0,7.0,73,0.00,,---,0.00,39.00,VWS V14.01,2012-12-24 21:42:00,
2012-12-24 16:43:00,66.8,57.9,30.01,SSW,208,3.0,7.0,73,0.00,,---,0.00,37.00,VWS V14.01,2012-12-24 21:43:00,
2012-12-24 16:44:00,66.8,57.9,30.01,SSW,208,1.0,7.0,73,0.00,,---,0.00,37.00,VWS V14.01,2012-12-24 21:44:00,
2012-12-24 16:45:00,66.7,57.8,30.01,SSW,208,0.0,7.0,73,0.00,,---,0.00,35.00,VWS V14.01,2012-12-24 21:45:00,
2012-12-24 16:46:00,66.7,57.8,30.01,SSW,208,0.0,7.0,73,0.00,,---,0.00,35.00,VWS V14.01,2012-12-24 21:46:00,
2012-12-24 16:47:00,66.7,57.8,30.01,SW,235,2.0,7.0,73,0.00,,---,0.00,35.00,VWS V14.01,2012-12-24 21:47:00,
2012-12-24 16:48:00,66.6,57.7,30.01,SSW,208,3.0,7.0,73,0.00,,---,0.00,35.00,VWS V14.01,2012-12-24 21:48:00,
2012-12-24 16:49:00,66.6,57.7,30.01,WSW,237,2.0,7.0,73,0.00,,---,0.00,33.00,VWS V14.01,2012-12-24 21:49:00,
2012-12-24 16:50:00,66.6,58.1,30.01,SW,217,1.0,7.0,74,0.00,,---,0.00,33.00,VWS V14.01,2012-12-24 21:50:00,
2012-12-24 16:51:00,66.5,58.0,30.01,SW,233,3.0,7.0,74,0.00,,---,0.00,30.00,VWS V14.01,2012-12-24 21:51:00,
2012-12-24 16:52:00,66.5,58.0,30.01,SSW,208,2.0,7.0,74,0.00,,---,0.00,30.00,VWS V14.01,2012-12-24 21:52:00,
2012-12-24 16:53:00,66.4,57.9,30.01,SSW,208,2.0,7.0,74,0.00,,---,0.00,28.00,VWS V14.01,2012-12-24 21:53:00,
2012-12-24 16:54:00,66.4,58.2,30.01,WSW,237,2.0,7.0,75,0.00,,---,0.00,28.00,VWS V14.01,2012-12-24 21:54:00,
2012-12-24 16:55:00,66.3,58.2,30.01,SW,221,4.0,7.0,75,0.00,,---,0.00,26.00,VWS V14.01,2012-12-24 21:55:00,
2012-12-24 16:56:00,66.3,58.2,30.01,SW,220,4.0,7.0,75,0.00,,---,0.00,25.00,VWS V14.01,2012-12-24 21:56:00,
2012-12-24 16:57:00,66.3,58.2,30.02,SW,218,1.0,7.0,75,0.00,,---,0.00,25.00,VWS V14.01,2012-12-24 21:57:00,
2012-12-24 16:58:00,66.3,58.2,30.01,SW,224,1.0,7.0,75,0.00,,---,0.00,25.00,VWS V14.01,2012-12-24 21:58:00,
2012-12-24 16:59:00,66.2,58.0,30.02,WSW,241,2.0,7.0,75,0.00,,---,0.00,23.00,VWS V14.01,2012-12-24 21:59:00,
2012-12-24 17:00:00,66.2,58.0,30.01,WSW,241,1.0,7.0,75,0.00,,---,0.00,23.00,VWS V14.01,2012-12-24 22:00:00,
2012-12-24 17:01:00,66.2,58.0,30.02,SW,218,1.0,3.0,75,0.00,,---,0.00,21.00,VWS V14.01,2012-12-24 22:01:00,
2012-12-24 17:02:00,66.2,58.0,30.02,SW,221,2.0,3.0,75,0.00,,---,0.00,19.00,VWS V14.01,2012-12-24 22:02:00,
2012-12-24 17:03:00,66.1,58.3,30.02,SW,236,3.0,4.0,76,0.00,,---,0.00,19.00,VWS V14.01,2012-12-24 22:03:00,
2012-12-24 17:04:00,66.0,58.2,30.02,WSW,241,5.0,5.0,76,0.00,,---,0.00,19.00,VWS V14.01,2012-12-24 22:04:00,
2012-12-24 17:05:00,66.0,58.2,30.01,SSW,198,2.0,5.0,76,0.00,,---,0.00,19.00,VWS V14.01,2012-12-24 22:05:00,
2012-12-24 17:06:00,66.0,58.2,30.01,SW,234,3.0,5.0,76,0.00,,---,0.00,18.00,VWS V14.01,2012-12-24 22:06:00,
2012-12-24 17:07:00,65.9,58.1,30.01,SSW,193,1.0,5.0,76,0.00,,---,0.00,16.00,VWS V14.01,2012-12-24 22:07:00,
2012-12-24 17:08:00,65.9,58.1,30.01,SSW,198,2.0,5.0,76,0.00,,---,0.00,16.00,VWS V14.01,2012-12-24 22:08:00,
2012-12-24 17:09:00,65.9,58.5,30.01,SSW,198,4.0,5.0,77,0.00,,---,0.00,14.00,VWS V14.01,2012-12-24 22:09:00,
2012-12-24 17:10:00,65.9,58.5,30.01,SW,221,1.0,5.0,77,0.00,,---,0.00,14.00,VWS V14.01,2012-12-24 22:10:00,
2012-12-24 17:11:00,65.8,58.4,30.01,SSW,198,4.0,5.0,77,0.00,,---,0.00,14.00,VWS V14.01,2012-12-24 22:11:00,
2012-12-24 17:12:00,65.8,58.4,30.01,SW,232,2.0,5.0,77,0.00,,---,0.00,12.00,VWS V14.01,2012-12-24 22:12:00,
2012-12-24 17:13:00,65.8,58.4,30.01,SW,232,2.0,5.0,77,0.00,,---,0.00,12.00,VWS V14.01,2012-12-24 22:13:00,
2012-12-24 17:14:00,65.7,58.3,30.01,SW,222,2.0,5.0,77,0.00,,---,0.00,11.00,VWS V14.01,2012-12-24 22:14:00,
2012-12-24 17:15:00,65.6,58.2,30.01,SW,226,2.0,5.0,77,0.00,,---,0.00,9.00,VWS V14.01,2012-12-24 22:15:00,
2012-12-24 17:16:00,65.6,58.2,30.01,South,180,4.0,5.0,77,0.00,,---,0.00,9.00,VWS V14.01,2012-12-24 22:16:00,
2012-12-24 17:17:00,65.5,58.5,30.01,SW,218,2.0,5.0,78,0.00,,---,0.00,7.00,VWS V14.01,2012-12-24 22:17:00,
2012-12-24 17:18:00,65.4,58.4,30.01,SW,221,3.0,5.0,78,0.00,,---,0.00,7.00,VWS V14.01,2012-12-24 22:18:00,
2012-12-24 17:19:00,65.4,58.4,30.01,SW,220,2.0,5.0,78,0.00,,---,0.00,5.00,VWS V14.01,2012-12-24 22:19:00,
2012-12-24 17:20:00,65.4,58.4,30.01,SW,220,2.0,5.0,78,0.00,,---,0.00,5.00,VWS V14.01,2012-12-24 22:20:00,
2012-12-24 17:21:00,65.4,58.4,30.01,SW,216,0.0,5.0,78,0.00,,---,0.00,5.00,VWS V14.01,2012-12-24 22:21:00,
2012-12-24 17:22:00,65.4,58.4,30.01,WSW,242,1.0,5.0,78,0.00,,---,0.00,0.00,VWS V14.01,2012-12-24 22:22:00,
2012-12-24 17:23:00,65.4,58.4,30.01,SSW,198,3.0,5.0,78,0.00,,---,0.00,0.00,VWS V14.01,2012-12-24 22:23:00,
2012-12-24 17:24:00,65.3,58.6,30.01,SW,233,4.0,5.0,79,0.00,,---,0.00,0.00,VWS V14.01,2012-12-24 22:24:00,
2012-12-24 17:25:00,65.3,58.6,30.01,SSW,198,2.0,5.0,79,0.00,,---,0.00,0.00,VWS V14.01,2012-12-24 22:25:00,
2012-12-24 17:26:00,65.3,58.6,30.01,SSW,198,0.0,5.0,79,0.00,,---,0.00,0.00,VWS V14.01,2012-12-24 22:26:00,
2012-12-24 17:27:00,65.2,58.5,30.01,SSW,198,1.0,5.0,79,0.00,,---,0.00,0.00,VWS V14.01,2012-12-24 22:27:00,
2012-12-24 17:28:00,65.2,58.5,30.01,SSW,198,0.0,5.0,79,0.00,,---,0.00,0.00,VWS V14.01,2012-12-24 22:28:00,
2012-12-24 17:29:00,65.2,58.5,30.01,SW,235,1.0,5.0,79,0.00,,---,0.00,0.00,VWS V14.01,2012-12-24 22:29:00,
2012-12-24 17:30:00,65.1,58.4,30.01,SSW,208,0.0,5.0,79,0.00,,---,0.00,0.00,VWS V14.01,2012-12-24 22:30:00,
2012-12-24 17:31:00,65.1,58.4,30.01,SW,223,1.0,5.0,79,0.00,,---,0.00,0.00,VWS V14.01,2012-12-24 22:31:00,
2012-12-24 17:32:00,65.0,58.3,30.01,SW,214,4.0,5.0,79,0.00,,---,0.00,0.00,VWS V14.01,2012-12-24 22:32:00,
2012-12-24 17:33:00,65.0,58.3,30.01,SW,222,2.0,5.0,79,0.00,,---,0.00,0.00,VWS V14.01,2012-12-24 22:33:00,
2012-12-24 17:34:00,64.9,58.2,30.01,SSW,193,3.0,5.0,79,0.00,,---,0.00,0.00,VWS V14.01,2012-12-24 22:34:00,
2012-12-24 17:35:00,64.8,58.1,30.01,South,187,3.0,5.0,79,0.00,,---,0.00,0.00,VWS V14.01,2012-12-24 22:35:00,
2012-12-24 17:36:00,64.8,58.5,30.00,South,188,1.0,5.0,80,0.00,,---,0.00,0.00,VWS V14.01,2012-12-24 22:36:00,
2012-12-24 17:37:00,64.7,58.4,30.00,South,191,0.0,5.0,80,0.00,,---,0.00,0.00,VWS V14.01,2012-12-24 22:37:00,
2012-12-24 17:38:00,64.7,58.4,30.00,South,191,1.0,5.0,80,0.00,,---,0.00,0.00,VWS V14.01,2012-12-24 22:38:00,
2012-12-24 17:39:00,64.6,58.3,30.00,SW,219,1.0,5.0,80,0.00,,---,0.00,0.00,VWS V14.01,2012-12-24 22:39:00,
2012-12-24 17:40:00,64.5,58.2,30.00,SSW,198,1.0,5.0,80,0.00,,---,0.00,0.00,VWS V14.01,2012-12-24 22:40:00,
2012-12-24 17:41:00,64.5,58.2,30.01,WSW,245,2.0,5.0,80,0.00,,---,0.00,0.00,VWS V14.01,2012-12-24 22:41:00,
2012-12-24 17:42:00,64.4,58.1,30.01,SW,233,1.0,5.0,80,0.00,,---,0.00,0.00,VWS V14.01,2012-12-24 22:42:00,
2012-12-24 17:43:00,64.4,58.1,30.01,SW,233,0.0,5.0,80,0.00,,---,0.00,0.00,VWS V14.01,2012-12-24 22:43:00,
2012-12-24 17:44:00,64.4,58.1,30.01,SSW,198,2.0,5.0,80,0.00,,---,0.00,0.00,VWS V14.01,2012-12-24 22:44:00,
2012-12-24 17:45:00,64.3,58.3,30.01,SW,233,1.0,5.0,81,0.00,,---,0.00,0.00,VWS V14.01,2012-12-24 22:45:00,
2012-12-24 17:46:00,64.4,58.5,30.01,SSW,198,1.0,5.0,81,0.00,,---,0.00,0.00,VWS V14.01,2012-12-24 22:46:00,
2012-12-24 17:47:00,64.4,58.5,30.01,SSW,198,1.0,5.0,81,0.00,,---,0.00,0.00,VWS V14.01,2012-12-24 22:47:00,
2012-12-24 17:48:00,64.3,58.3,30.01,SSW,208,0.0,5.0,81,0.00,,---,0.00,0.00,VWS V14.01,2012-12-24 22:48:00,
2012-12-24 17:49:00,64.4,58.5,30.01,SSW,203,1.0,5.0,81,0.00,,---,0.00,0.00,VWS V14.01,2012-12-24 22:49:00,
2012-12-24 17:50:00,64.4,58.5,30.01,SSW,203,2.0,5.0,81,0.00,,---,0.00,0.00,VWS V14.01,2012-12-24 22:50:00,
2012-12-24 17:51:00,64.3,58.3,30.01,SSW,208,2.0,5.0,81,0.00,,---,0.00,0.00,VWS V14.01,2012-12-24 22:51:00,
2012-12-24 17:52:00,64.3,58.3,30.01,South,174,4.0,5.0,81,0.00,,---,0.00,0.00,VWS V14.01,2012-12-24 22:52:00,
2012-12-24 17:53:00,64.3,58.3,30.01,SSW,198,3.0,5.0,81,0.00,,---,0.00,0.00,VWS V14.01,2012-12-24 22:53:00,
2012-12-24 17:54:00,64.3,58.3,30.01,SSW,203,2.0,5.0,81,0.00,,---,0.00,0.00,VWS V14.01,2012-12-24 22:54:00,
2012-12-24 17:55:00,64.3,58.3,30.01,SSW,203,1.0,5.0,81,0.00,,---,0.00,0.00,VWS V14.01,2012-12-24 22:55:00,
2012-12-24 17:56:00,64.3,58.3,30.01,SSW,203,1.0,5.0,81,0.00,,---,0.00,0.00,VWS V14.01,2012-12-24 22:56:00,
2012-12-24 17:57:00,64.3,58.3,30.01,SSW,203,1.0,5.0,81,0.00,,---,0.00,0.00,VWS V14.01,2012-12-24 22:57:00,
2012-12-24 17:58:00,64.3,58.3,30.01,WSW,237,2.0,5.0,81,0.00,,---,0.00,0.00,VWS V14.01,2012-12-24 22:58:00,
2012-12-24 17:59:00,64.2,58.3,30.01,SW,224,1.0,5.0,81,0.00,,---,0.00,0.00,VWS V14.01,2012-12-24 22:59:00,
2012-12-24 18:00:00,64.2,58.3,30.01,SW,224,0.0,5.0,81,0.00,,---,0.00,0.00,VWS V14.01,2012-12-24 23:00:00,
2012-12-24 18:01:00,64.1,58.5,30.01,SW,224,0.0,1.0,82,0.00,,---,0.00,0.00,VWS V14.01,2012-12-24 23:01:00,
2012-12-24 18:02:00,64.1,58.5,30.00,SW,216,3.0,3.0,82,0.00,,---,0.00,0.00,VWS V14.01,2012-12-24 23:02:00,
2012-12-24 18:03:00,64.1,58.5,30.01,SW,216,0.0,3.0,82,0.00,,---,0.00,0.00,VWS V14.01,2012-12-24 23:03:00,
2012-12-24 18:04:00,64.0,58.4,30.01,SW,216,0.0,3.0,82,0.00,,---,0.00,0.00,VWS V14.01,2012-12-24 23:04:00,
2012-12-24 18:05:00,64.0,58.4,30.01,SW,216,0.0,3.0,82,0.00,,---,0.00,0.00,VWS V14.01,2012-12-24 23:05:00,
2012-12-24 18:06:00,64.0,58.4,30.01,SW,216,0.0,3.0,82,0.00,,---,0.00,0.00,VWS V14.01,2012-12-24 23:06:00,
2012-12-24 18:07:00,64.0,58.4,30.01,SW,216,0.0,3.0,82,0.00,,---,0.00,0.00,VWS V14.01,2012-12-24 23:07:00,
2012-12-24 18:08:00,63.9,58.3,30.01,SW,216,2.0,3.0,82,0.00,,---,0.00,0.00,VWS V14.01,2012-12-24 23:08:00,
2012-12-24 18:09:00,63.9,58.3,30.01,SW,216,0.0,3.0,82,0.00,,---,0.00,0.00,VWS V14.01,2012-12-24 23:09:00,
2012-12-24 18:10:00,63.8,58.2,30.01,SW,216,0.0,3.0,82,0.00,,---,0.00,0.00,VWS V14.01,2012-12-24 23:10:00,
2012-12-24 18:11:00,63.8,58.2,30.01,SW,216,1.0,3.0,82,0.00,,---,0.00,0.00,VWS V14.01,2012-12-24 23:11:00,
2012-12-24 18:12:00,63.8,58.2,30.01,SW,216,1.0,3.0,82,0.00,,---,0.00,0.00,VWS V14.01,2012-12-24 23:12:00,
2012-12-24 18:13:00,63.8,58.2,30.01,SW,216,0.0,3.0,82,0.00,,---,0.00,0.00,VWS V14.01,2012-12-24 23:13:00,
2012-12-24 18:14:00,63.7,58.1,30.01,SW,216,0.0,3.0,82,0.00,,---,0.00,0.00,VWS V14.01,2012-12-24 23:14:00,
2012-12-24 18:15:00,63.6,58.0,30.01,SW,216,0.0,3.0,82,0.00,,---,0.00,0.00,VWS V14.01,2012-12-24 23:15:00,
2012-12-24 18:16:00,63.6,58.3,30.01,SW,216,0.0,3.0,83,0.00,,---,0.00,0.00,VWS V14.01,2012-12-24 23:16:00,
2012-12-24 18:17:00,63.4,58.2,30.01,SW,216,0.0,3.0,83,0.00,,---,0.00,0.00,VWS V14.01,2012-12-24 23:17:00,
2012-12-24 18:18:00,63.4,58.2,30.01,SW,216,0.0,3.0,83,0.00,,---,0.00,0.00,VWS V14.01,2012-12-24 23:18:00,
2012-12-24 18:19:00,63.2,58.0,30.00,SW,216,0.0,3.0,83,0.00,,---,0.00,0.00,VWS V14.01,2012-12-24 23:19:00,
2012-12-24 18:20:00,63.1,57.9,30.01,SW,216,0.0,3.0,83,0.00,,---,0.00,0.00,VWS V14.01,2012-12-24 23:20:00,
2012-12-24 18:21:00,62.9,58.0,30.00,SW,216,0.0,3.0,84,0.00,,---,0.00,0.00,VWS V14.01,2012-12-24 23:21:00,
2012-12-24 18:22:00,62.8,57.9,30.00,SW,216,0.0,3.0,84,0.00,,---,0.00,0.00,VWS V14.01,2012-12-24 23:22:00,
2012-12-24 18:23:00,62.6,57.7,30.00,SW,216,0.0,3.0,84,0.00,,---,0.00,0.00,VWS V14.01,2012-12-24 23:23:00,
2012-12-24 18:24:00,62.5,57.6,30.00,SW,216,0.0,3.0,84,0.00,,---,0.00,0.00,VWS V14.01,2012-12-24 23:24:00,
2012-12-24 18:25:00,62.5,57.9,30.00,SW,216,0.0,3.0,85,0.00,,---,0.00,0.00,VWS V14.01,2012-12-24 23:25:00,
2012-12-24 18:26:00,62.3,57.7,30.00,SW,216,0.0,3.0,85,0.00,,---,0.00,0.00,VWS V14.01,2012-12-24 23:26:00,
2012-12-24 18:27:00,62.2,57.6,30.00,SW,216,0.0,3.0,85,0.00,,---,0.00,0.00,VWS V14.01,2012-12-24 23:27:00,
2012-12-24 18:28:00,62.2,57.6,30.00,SW,216,0.0,3.0,85,0.00,,---,0.00,0.00,VWS V14.01,2012-12-24 23:28:00,
2012-12-24 18:29:00,62.1,57.5,30.00,SW,216,0.0,3.0,85,0.00,,---,0.00,0.00,VWS V14.01,2012-12-24 23:29:00,
2012-12-24 18:30:00,62.0,57.8,30.00,SW,216,0.0,3.0,86,0.00,,---,0.00,0.00,VWS V14.01,2012-12-24 23:30:00,
2012-12-24 18:31:00,61.9,57.7,30.00,SW,216,0.0,3.0,86,0.00,,---,0.00,0.00,VWS V14.01,2012-12-24 23:31:00,
2012-12-24 18:32:00,61.9,57.7,30.01,SW,216,0.0,3.0,86,0.00,,---,0.00,0.00,VWS V14.01,2012-12-24 23:32:00,
2012-12-24 18:33:00,61.8,57.6,30.01,SW,216,0.0,3.0,86,0.00,,---,0.00,0.00,VWS V14.01,2012-12-24 23:33:00,
2012-12-24 18:34:00,61.7,57.5,30.01,SW,216,0.0,3.0,86,0.00,,---,0.00,0.00,VWS V14.01,2012-12-24 23:34:00,
2012-12-24 18:35:00,61.6,57.4,30.01,SW,216,0.0,3.0,86,0.00,,---,0.00,0.00,VWS V14.01,2012-12-24 23:35:00,
2012-12-24 18:36:00,61.6,57.7,30.01,SW,216,0.0,3.0,87,0.00,,---,0.00,0.00,VWS V14.01,2012-12-24 23:36:00,
2012-12-24 18:37:00,61.5,57.6,30.01,SW,216,0.0,3.0,87,0.00,,---,0.00,0.00,VWS V14.01,2012-12-24 23:37:00,
2012-12-24 18:38:00,61.5,57.6,30.01,SW,216,0.0,3.0,87,0.00,,---,0.00,0.00,VWS V14.01,2012-12-24 23:38:00,
2012-12-24 18:39:00,61.5,57.6,30.01,SW,216,0.0,3.0,87,0.00,,---,0.00,0.00,VWS V14.01,2012-12-24 23:39:00,
2012-12-24 18:40:00,61.5,57.6,30.01,SW,216,0.0,3.0,87,0.00,,---,0.00,0.00,VWS V14.01,2012-12-24 23:40:00,
2012-12-24 18:41:00,61.5,57.6,30.01,SW,216,0.0,3.0,87,0.00,,---,0.00,0.00,VWS V14.01,2012-12-24 23:41:00,
2012-12-24 18:42:00,61.4,57.5,30.01,SW,216,0.0,3.0,87,0.00,,---,0.00,0.00,VWS V14.01,2012-12-24 23:42:00,
2012-12-24 18:43:00,61.3,57.4,30.01,SW,216,0.0,3.0,87,0.00,,---,0.00,0.00,VWS V14.01,2012-12-24 23:43:00,
2012-12-24 18:44:00,61.3,57.4,30.01,SW,216,0.0,3.0,87,0.00,,---,0.00,0.00,VWS V14.01,2012-12-24 23:44:00,
2012-12-24 18:45:00,61.3,57.4,30.01,SW,216,0.0,3.0,87,0.00,,---,0.00,0.00,VWS V14.01,2012-12-24 23:45:00,
2012-12-24 18:46:00,61.2,57.6,30.01,SW,216,0.0,3.0,88,0.00,,---,0.00,0.00,VWS V14.01,2012-12-24 23:46:00,
2012-12-24 18:47:00,61.2,57.6,30.00,SW,216,0.0,3.0,88,0.00,,---,0.00,0.00,VWS V14.01,2012-12-24 23:47:00,
2012-12-24 18:48:00,61.2,57.6,30.00,SW,216,0.0,3.0,88,0.00,,---,0.00,0.00,VWS V14.01,2012-12-24 23:48:00,
2012-12-24 18:49:00,61.2,57.6,30.01,SW,216,0.0,3.0,88,0.00,,---,0.00,0.00,VWS V14.01,2012-12-24 23:49:00,
2012-12-24 18:50:00,61.2,57.6,30.01,SW,216,0.0,3.0,88,0.00,,---,0.00,0.00,VWS V14.01,2012-12-24 23:50:00,
2012-12-24 18:51:00,61.2,57.6,30.00,SW,216,0.0,3.0,88,0.00,,---,0.00,0.00,VWS V14.01,2012-12-24 23:51:00,
2012-12-24 18:52:00,61.2,57.6,30.00,SW,216,0.0,3.0,88,0.00,,---,0.00,0.00,VWS V14.01,2012-12-24 23:52:00,
2012-12-24 18:53:00,61.2,57.6,30.00,SW,216,0.0,3.0,88,0.00,,---,0.00,0.00,VWS V14.01,2012-12-24 23:53:00,
2012-12-24 18:54:00,61.2,57.6,30.00,SW,216,0.0,3.0,88,0.00,,---,0.00,0.00,VWS V14.01,2012-12-24 23:54:00,
2012-12-24 18:55:00,61.1,57.5,30.01,SW,216,0.0,3.0,88,0.00,,---,0.00,0.00,VWS V14.01,2012-12-24 23:55:00,
2012-12-24 18:56:00,61.1,57.5,30.00,SW,216,0.0,3.0,88,0.00,,---,0.00,0.00,VWS V14.01,2012-12-24 23:56:00,
2012-12-24 18:57:00,61.1,57.5,30.01,SW,216,0.0,3.0,88,0.00,,---,0.00,0.00,VWS V14.01,2012-12-24 23:57:00,
2012-12-24 18:58:00,61.0,57.4,30.01,SW,216,0.0,3.0,88,0.00,,---,0.00,0.00,VWS V14.01,2012-12-24 23:58:00,
2012-12-24 18:59:00,60.9,57.3,30.01,SW,216,0.0,3.0,88,0.00,,---,0.00,0.00,VWS V14.01,2012-12-24 23:59:00,
2012-12-24 19:00:00,60.9,57.3,30.01,SW,216,0.0,3.0,88,0.00,,---,0.00,0.00,VWS V14.01,2012-12-25 00:00:00,
2012-12-24 19:01:00,60.8,57.2,30.01,SW,216,0.0,0.0,88,0.00,,---,0.00,0.00,VWS V14.01,2012-12-25 00:01:00,
2012-12-24 19:02:00,60.8,57.2,30.01,SW,216,0.0,0.0,88,0.00,,---,0.00,0.00,VWS V14.01,2012-12-25 00:02:00,
2012-12-24 19:03:00,60.8,57.2,30.01,SW,216,0.0,0.0,88,0.00,,---,0.00,0.00,VWS V14.01,2012-12-25 00:03:00,
2012-12-24 19:04:00,60.8,57.2,30.01,SW,216,0.0,0.0,88,0.00,,---,0.00,0.00,VWS V14.01,2012-12-25 00:04:00,
2012-12-24 19:05:00,60.7,57.1,30.00,SW,216,0.0,1.0,88,0.00,,---,0.00,0.00,VWS V14.01,2012-12-25 00:05:00,
2012-12-24 19:06:00,60.7,57.1,30.01,SW,216,0.0,1.0,88,0.00,,---,0.00,0.00,VWS V14.01,2012-12-25 00:06:00,
2012-12-24 19:07:00,60.7,57.1,30.00,SW,216,0.0,1.0,88,0.00,,---,0.00,0.00,VWS V14.01,2012-12-25 00:07:00,
2012-12-24 19:08:00,60.7,57.1,30.01,SW,216,0.0,1.0,88,0.00,,---,0.00,0.00,VWS V14.01,2012-12-25 00:08:00,
2012-12-24 19:09:00,60.7,57.1,30.01,SW,216,0.0,1.0,88,0.00,,---,0.00,0.00,VWS V14.01,2012-12-25 00:09:00,
2012-12-24 19:10:00,60.7,57.1,30.01,SW,216,0.0,1.0,88,0.00,,---,0.00,0.00,VWS V14.01,2012-12-25 00:10:00,
2012-12-24 19:11:00,60.6,57.0,30.01,SW,216,0.0,1.0,88,0.00,,---,0.00,0.00,VWS V14.01,2012-12-25 00:11:00,
2012-12-24 19:12:00,60.5,56.9,30.01,SW,216,0.0,1.0,88,0.00,,---,0.00,0.00,VWS V14.01,2012-12-25 00:12:00,
2012-12-24 19:13:00,60.5,56.9,30.01,SW,216,0.0,1.0,88,0.00,,---,0.00,0.00,VWS V14.01,2012-12-25 00:13:00,
2012-12-24 19:14:00,60.4,57.2,30.01,SW,216,0.0,1.0,89,0.00,,---,0.00,0.00,VWS V14.01,2012-12-25 00:14:00,
2012-12-24 19:15:00,60.4,57.2,30.01,SW,216,0.0,1.0,89,0.00,,---,0.00,0.00,VWS V14.01,2012-12-25 00:15:00,
2012-12-24 19:16:00,60.4,57.2,30.01,SW,216,0.0,1.0,89,0.00,,---,0.00,0.00,VWS V14.01,2012-12-25 00:16:00,
2012-12-24 19:17:00,60.4,57.2,30.01,SW,216,0.0,1.0,89,0.00,,---,0.00,0.00,VWS V14.01,2012-12-25 00:17:00,
2012-12-24 19:18:00,60.4,57.2,30.01,SW,216,0.0,1.0,89,0.00,,---,0.00,0.00,VWS V14.01,2012-12-25 00:18:00,
2012-12-24 19:19:00,60.3,57.4,30.01,SW,216,0.0,1.0,90,0.00,,---,0.00,0.00,VWS V14.01,2012-12-25 00:19:00,
2012-12-24 19:20:00,60.3,57.4,30.01,SW,216,0.0,1.0,90,0.00,,---,0.00,0.00,VWS V14.01,2012-12-25 00:20:00,
2012-12-24 19:21:00,60.3,57.4,30.01,SW,216,0.0,1.0,90,0.00,,---,0.00,0.00,VWS V14.01,2012-12-25 00:21:00,
2012-12-24 19:22:00,60.3,57.4,30.01,SW,216,0.0,1.0,90,0.00,,---,0.00,0.00,VWS V14.01,2012-12-25 00:22:00,
2012-12-24 19:23:00,60.3,57.4,30.01,SW,216,0.0,1.0,90,0.00,,---,0.00,0.00,VWS V14.01,2012-12-25 00:23:00,
2012-12-24 19:24:00,60.2,57.3,30.01,SW,216,0.0,1.0,90,0.00,,---,0.00,0.00,VWS V14.01,2012-12-25 00:24:00,
2012-12-24 19:25:00,60.2,57.3,30.01,SW,216,0.0,1.0,90,0.00,,---,0.00,0.00,VWS V14.01,2012-12-25 00:25:00,
2012-12-24 19:26:00,60.2,57.3,30.02,SW,216,0.0,1.0,90,0.00,,---,0.00,0.00,VWS V14.01,2012-12-25 00:26:00,
2012-12-24 19:27:00,60.2,57.6,30.01,SW,216,0.0,1.0,91,0.00,,---,0.00,0.00,VWS V14.01,2012-12-25 00:27:00,
2012-12-24 19:28:00,60.1,57.5,30.01,SW,216,0.0,1.0,91,0.00,,---,0.00,0.00,VWS V14.01,2012-12-25 00:28:00,
2012-12-24 19:29:00,60.1,57.2,30.01,SW,216,0.0,1.0,90,0.00,,---,0.00,0.00,VWS V14.01,2012-12-25 00:29:00,
2012-12-24 19:30:00,60.1,57.2,30.01,SW,216,0.0,1.0,90,0.00,,---,0.00,0.00,VWS V14.01,2012-12-25 00:30:00,
2012-12-24 19:31:00,60.1,57.2,30.01,SW,216,0.0,1.0,90,0.00,,---,0.00,0.00,VWS V14.01,2012-12-25 00:31:00,
2012-12-24 19:32:00,60.1,57.2,30.01,SW,216,0.0,1.0,90,0.00,,---,0.00,0.00,VWS V14.01,2012-12-25 00:32:00,
2012-12-24 19:33:00,60.1,57.2,30.01,SW,216,0.0,1.0,90,0.00,,---,0.00,0.00,VWS V14.01,2012-12-25 00:33:00,
2012-12-24 19:34:00,60.2,57.3,30.01,SW,216,0.0,1.0,90,0.00,,---,0.00,0.00,VWS V14.01,2012-12-25 00:34:00,
2012-12-24 19:35:00,60.2,57.3,30.01,SW,216,0.0,1.0,90,0.00,,---,0.00,0.00,VWS V14.01,2012-12-25 00:35:00,
2012-12-24 19:36:00,60.2,57.0,30.01,SW,216,0.0,1.0,89,0.00,,---,0.00,0.00,VWS V14.01,2012-12-25 00:36:00,
2012-12-24 19:37:00,60.2,57.0,30.01,SW,216,0.0,1.0,89,0.00,,---,0.00,0.00,VWS V14.01,2012-12-25 00:37:00,
2012-12-24 19:38:00,60.2,57.0,30.01,SW,216,0.0,1.0,89,0.00,,---,0.00,0.00,VWS V14.01,2012-12-25 00:38:00,
2012-12-24 19:39:00,60.2,57.0,30.01,SW,216,0.0,1.0,89,0.00,,---,0.00,0.00,VWS V14.01,2012-12-25 00:39:00,
2012-12-24 19:40:00,60.2,57.0,30.01,SW,216,0.0,1.0,89,0.00,,---,0.00,0.00,VWS V14.01,2012-12-25 00:40:00,
2012-12-24 19:41:00,60.2,57.0,30.01,SW,216,0.0,1.0,89,0.00,,---,0.00,0.00,VWS V14.01,2012-12-25 00:41:00,
2012-12-24 19:42:00,60.2,57.0,30.01,SW,216,0.0,1.0,89,0.00,,---,0.00,0.00,VWS V14.01,2012-12-25 00:42:00,
2012-12-24 19:43:00,60.3,57.0,30.01,SW,216,0.0,1.0,89,0.00,,---,0.00,0.00,VWS V14.01,2012-12-25 00:43:00,
2012-12-24 19:44:00,60.3,57.0,30.01,SW,216,0.0,1.0,89,0.00,,---,0.00,0.00,VWS V14.01,2012-12-25 00:44:00,
2012-12-24 19:45:00,60.3,56.7,30.01,SW,216,0.0,1.0,88,0.00,,---,0.00,0.00,VWS V14.01,2012-12-25 00:45:00,
2012-12-24 19:46:00,60.2,56.6,30.01,SW,216,0.0,1.0,88,0.00,,---,0.00,0.00,VWS V14.01,2012-12-25 00:46:00,
2012-12-24 19:47:00,60.2,56.6,30.01,SW,216,0.0,1.0,88,0.00,,---,0.00,0.00,VWS V14.01,2012-12-25 00:47:00,
2012-12-24 19:48:00,60.2,56.6,30.01,SW,216,0.0,1.0,88,0.00,,---,0.00,0.00,VWS V14.01,2012-12-25 00:48:00,
2012-12-24 19:49:00,60.1,56.5,30.02,SW,216,0.0,1.0,88,0.00,,---,0.00,0.00,VWS V14.01,2012-12-25 00:49:00,
2012-12-24 19:50:00,60.1,56.5,30.02,SW,216,0.0,1.0,88,0.00,,---,0.00,0.00,VWS V14.01,2012-12-25 00:50:00,
2012-12-24 19:51:00,60.0,56.4,30.02,SW,216,0.0,1.0,88,0.00,,---,0.00,0.00,VWS V14.01,2012-12-25 00:51:00,
2012-12-24 19:52:00,60.0,56.4,30.02,SW,216,0.0,1.0,88,0.00,,---,0.00,0.00,VWS V14.01,2012-12-25 00:52:00,
2012-12-24 19:53:00,59.9,56.7,30.02,SW,216,0.0,1.0,89,0.00,,---,0.00,0.00,VWS V14.01,2012-12-25 00:53:00,
2012-12-24 19:54:00,59.9,56.7,30.02,SW,216,0.0,1.0,89,0.00,,---,0.00,0.00,VWS V14.01,2012-12-25 00:54:00,
2012-12-24 19:55:00,59.8,56.6,30.02,SW,216,0.0,1.0,89,0.00,,---,0.00,0.00,VWS V14.01,2012-12-25 00:55:00,
2012-12-24 19:56:00,59.8,56.6,30.02,SW,216,0.0,1.0,89,0.00,,---,0.00,0.00,VWS V14.01,2012-12-25 00:56:00,
2012-12-24 19:57:00,59.7,56.5,30.02,SW,216,0.0,1.0,89,0.00,,---,0.00,0.00,VWS V14.01,2012-12-25 00:57:00,
2012-12-24 19:58:00,59.7,56.5,30.02,SW,216,0.0,1.0,89,0.00,,---,0.00,0.00,VWS V14.01,2012-12-25 00:58:00,
2012-12-24 19:59:00,59.7,56.5,30.02,SW,216,0.0,1.0,89,0.00,,---,0.00,0.00,VWS V14.01,2012-12-25 00:59:00,
2012-12-24 20:00:00,59.7,56.5,30.01,SW,216,0.0,1.0,89,0.00,,---,0.00,0.00,VWS V14.01,2012-12-25 01:00:00,
2012-12-24 20:01:00,59.6,56.4,30.01,SW,216,0.0,0.0,89,0.00,,---,0.00,0.00,VWS V14.01,2012-12-25 01:01:00,
2012-12-24 20:02:00,59.6,56.4,30.01,SW,216,0.0,0.0,89,0.00,,---,0.00,0.00,VWS V14.01,2012-12-25 01:02:00,
2012-12-24 20:03:00,59.6,56.4,30.01,SW,216,0.0,0.0,89,0.00,,---,0.00,0.00,VWS V14.01,2012-12-25 01:03:00,
2012-12-24 20:04:00,59.6,56.4,30.02,SW,216,0.0,0.0,89,0.00,,---,0.00,0.00,VWS V14.01,2012-12-25 01:04:00,
2012-12-24 20:05:00,59.6,56.4,30.02,SW,216,0.0,0.0,89,0.00,,---,0.00,0.00,VWS V14.01,2012-12-25 01:05:00,
2012-12-24 20:06:00,59.6,56.4,30.02,SW,216,0.0,0.0,89,0.00,,---,0.00,0.00,VWS V14.01,2012-12-25 01:06:00,
2012-12-24 20:07:00,59.5,56.3,30.02,SW,216,0.0,0.0,89,0.00,,---,0.00,0.00,VWS V14.01,2012-12-25 01:07:00,
2012-12-24 20:08:00,59.5,56.3,30.02,SW,216,0.0,0.0,89,0.00,,---,0.00,0.00,VWS V14.01,2012-12-25 01:08:00,
2012-12-24 20:09:00,59.5,56.3,30.02,SW,216,0.0,0.0,89,0.00,,---,0.00,0.00,VWS V14.01,2012-12-25 01:09:00,
2012-12-24 20:10:00,59.5,56.6,30.02,SW,216,0.0,0.0,90,0.00,,---,0.00,0.00,VWS V14.01,2012-12-25 01:10:00,
2012-12-24 20:11:00,59.5,56.6,30.02,SW,216,0.0,0.0,90,0.00,,---,0.00,0.00,VWS V14.01,2012-12-25 01:11:00,
2012-12-24 20:12:00,59.4,56.5,30.02,SW,216,0.0,0.0,90,0.00,,---,0.00,0.00,VWS V14.01,2012-12-25 01:12:00,
2012-12-24 20:13:00,59.4,56.5,30.02,SW,216,0.0,0.0,90,0.00,,---,0.00,0.00,VWS V14.01,2012-12-25 01:13:00,
2012-12-24 20:14:00,59.4,56.5,30.02,SW,216,0.0,0.0,90,0.00,,---,0.00,0.00,VWS V14.01,2012-12-25 01:14:00,
2012-12-24 20:15:00,59.3,56.4,30.02,SW,216,0.0,0.0,90,0.00,,---,0.00,0.00,VWS V14.01,2012-12-25 01:15:00,
2012-12-24 20:16:00,59.3,56.4,30.02,SW,216,0.0,0.0,90,0.00,,---,0.00,0.00,VWS V14.01,2012-12-25 01:16:00,
2012-12-24 20:17:00,59.3,56.4,30.02,SW,216,0.0,0.0,90,0.00,,---,0.00,0.00,VWS V14.01,2012-12-25 01:17:00,
2012-12-24 20:18:00,59.2,56.3,30.02,SW,216,0.0,0.0,90,0.00,,---,0.00,0.00,VWS V14.01,2012-12-25 01:18:00,
2012-12-24 20:19:00,59.2,56.3,30.02,SW,216,0.0,0.0,90,0.00,,---,0.00,0.00,VWS V14.01,2012-12-25 01:19:00,
2012-12-24 20:20:00,59.2,56.3,30.02,SW,216,0.0,0.0,90,0.00,,---,0.00,0.00,VWS V14.01,2012-12-25 01:20:00,
2012-12-24 20:21:00,59.1,56.2,30.02,SW,216,0.0,0.0,90,0.00,,---,0.00,0.00,VWS V14.01,2012-12-25 01:21:00,
2012-12-24 20:22:00,59.1,56.2,30.02,SW,216,0.0,0.0,90,0.00,,---,0.00,0.00,VWS V14.01,2012-12-25 01:22:00,
2012-12-24 20:23:00,59.1,56.2,30.02,SW,216,0.0,0.0,90,0.00,,---,0.00,0.00,VWS V14.01,2012-12-25 01:23:00,
2012-12-24 20:24:00,59.1,56.2,30.02,SW,216,0.0,0.0,90,0.00,,---,0.00,0.00,VWS V14.01,2012-12-25 01:24:00,
2012-12-24 20:25:00,59.1,56.2,30.02,SW,216,0.0,0.0,90,0.00,,---,0.00,0.00,VWS V14.01,2012-12-25 01:25:00,
2012-12-24 20:26:00,59.0,56.1,30.02,SW,216,0.0,0.0,90,0.00,,---,0.00,0.00,VWS V14.01,2012-12-25 01:26:00,
2012-12-24 20:27:00,59.0,56.1,30.02,SW,216,0.0,0.0,90,0.00,,---,0.00,0.00,VWS V14.01,2012-12-25 01:27:00,
2012-12-24 20:28:00,59.0,56.1,30.02,SW,216,0.0,0.0,90,0.00,,---,0.00,0.00,VWS V14.01,2012-12-25 01:28:00,
2012-12-24 20:29:00,58.9,56.0,30.02,SW,216,0.0,0.0,90,0.00,,---,0.00,0.00,VWS V14.01,2012-12-25 01:29:00,
2012-12-24 20:30:00,58.9,56.0,30.02,SW,216,0.0,0.0,90,0.00,,---,0.00,0.00,VWS V14.01,2012-12-25 01:30:00,
2012-12-24 20:31:00,58.9,56.3,30.03,SW,216,0.0,0.0,91,0.00,,---,0.00,0.00,VWS V14.01,2012-12-25 01:31:00,
2012-12-24 20:32:00,58.8,56.2,30.02,SW,216,0.0,0.0,91,0.00,,---,0.00,0.00,VWS V14.01,2012-12-25 01:32:00,
2012-12-24 20:33:00,58.9,56.3,30.02,SW,216,0.0,0.0,91,0.00,,---,0.00,0.00,VWS V14.01,2012-12-25 01:33:00,
2012-12-24 20:34:00,58.8,56.2,30.02,SW,216,0.0,0.0,91,0.00,,---,0.00,0.00,VWS V14.01,2012-12-25 01:34:00,
2012-12-24 20:35:00,58.8,56.2,30.03,SW,216,0.0,0.0,91,0.00,,---,0.00,0.00,VWS V14.01,2012-12-25 01:35:00,
2012-12-24 20:36:00,58.7,56.1,30.03,SW,216,0.0,0.0,91,0.00,,---,0.00,0.00,VWS V14.01,2012-12-25 01:36:00,
2012-12-24 20:37:00,58.7,56.1,30.03,SW,216,0.0,0.0,91,0.00,,---,0.00,0.00,VWS V14.01,2012-12-25 01:37:00,
2012-12-24 20:38:00,58.7,56.1,30.03,SW,216,0.0,0.0,91,0.00,,---,0.00,0.00,VWS V14.01,2012-12-25 01:38:00,
2012-12-24 20:39:00,58.6,56.0,30.03,SW,216,0.0,0.0,91,0.00,,---,0.00,0.00,VWS V14.01,2012-12-25 01:39:00,
2012-12-24 20:40:00,58.6,56.0,30.03,SW,216,0.0,0.0,91,0.00,,---,0.00,0.00,VWS V14.01,2012-12-25 01:40:00,
2012-12-24 20:41:00,58.6,56.0,30.03,SW,216,0.0,0.0,91,0.00,,---,0.00,0.00,VWS V14.01,2012-12-25 01:41:00,
2012-12-24 20:42:00,58.6,56.0,30.03,SW,216,0.0,0.0,91,0.00,,---,0.00,0.00,VWS V14.01,2012-12-25 01:42:00,
2012-12-24 20:43:00,58.6,56.0,30.03,SW,216,0.0,0.0,91,0.00,,---,0.00,0.00,VWS V14.01,2012-12-25 01:43:00,
2012-12-24 20:44:00,58.6,56.0,30.03,SW,216,0.0,0.0,91,0.00,,---,0.00,0.00,VWS V14.01,2012-12-25 01:44:00,
2012-12-24 20:45:00,58.5,55.9,30.03,SW,216,0.0,0.0,91,0.00,,---,0.00,0.00,VWS V14.01,2012-12-25 01:45:00,
2012-12-24 20:46:00,58.5,55.9,30.03,SW,216,0.0,0.0,91,0.00,,---,0.00,0.00,VWS V14.01,2012-12-25 01:46:00,
2012-12-24 20:47:00,58.4,55.8,30.03,SW,216,0.0,0.0,91,0.00,,---,0.00,0.00,VWS V14.01,2012-12-25 01:47:00,
2012-12-24 20:48:00,58.4,55.8,30.03,SW,216,0.0,0.0,91,0.00,,---,0.00,0.00,VWS V14.01,2012-12-25 01:48:00,
2012-12-24 20:49:00,58.4,55.8,30.03,SW,216,0.0,0.0,91,0.00,,---,0.00,0.00,VWS V14.01,2012-12-25 01:49:00,
2012-12-24 20:50:00,58.3,55.7,30.03,SW,216,0.0,0.0,91,0.00,,---,0.00,0.00,VWS V14.01,2012-12-25 01:50:00,
2012-12-24 20:51:00,58.3,55.7,30.03,SW,216,0.0,0.0,91,0.00,,---,0.00,0.00,VWS V14.01,2012-12-25 01:51:00,
2012-12-24 20:52:00,58.3,55.7,30.03,SW,216,0.0,0.0,91,0.00,,---,0.00,0.00,VWS V14.01,2012-12-25 01:52:00,
2012-12-24 20:53:00,58.2,55.6,30.03,SW,216,0.0,0.0,91,0.00,,---,0.00,0.00,VWS V14.01,2012-12-25 01:53:00,
2012-12-24 20:54:00,58.3,55.7,30.03,SW,216,0.0,0.0,91,0.00,,---,0.00,0.00,VWS V14.01,2012-12-25 01:54:00,
2012-12-24 20:55:00,58.2,55.6,30.03,SW,216,0.0,0.0,91,0.00,,---,0.00,0.00,VWS V14.01,2012-12-25 01:55:00,
2012-12-24 20:56:00,58.3,55.7,30.03,SW,216,0.0,0.0,91,0.00,,---,0.00,0.00,VWS V14.01,2012-12-25 01:56:00,
2012-12-24 20:57:00,58.2,55.9,30.03,SW,216,0.0,0.0,92,0.00,,---,0.00,0.00,VWS V14.01,2012-12-25 01:57:00,
2012-12-24 20:58:00,58.3,56.0,30.03,SW,216,0.0,0.0,92,0.00,,---,0.00,0.00,VWS V14.01,2012-12-25 01:58:00,
2012-12-24 20:59:00,58.3,56.0,30.03,SW,216,0.0,0.0,92,0.00,,---,0.00,0.00,VWS V14.01,2012-12-25 01:59:00,
2012-12-24 21:00:00,58.3,55.7,30.03,SW,216,0.0,0.0,91,0.00,,---,0.00,0.00,VWS V14.01,2012-12-25 02:00:00,
2012-12-24 21:01:00,58.2,55.9,30.03,SW,216,0.0,0.0,92,0.00,,---,0.00,0.00,VWS V14.01,2012-12-25 02:01:00,
2012-12-24 21:02:00,58.3,56.0,30.03,SW,216,0.0,0.0,92,0.00,,---,0.00,0.00,VWS V14.01,2012-12-25 02:02:00,
2012-12-24 21:03:00,58.3,56.0,30.03,SW,216,0.0,0.0,92,0.00,,---,0.00,0.00,VWS V14.01,2012-12-25 02:03:00,
2012-12-24 21:04:00,58.2,55.6,30.03,SW,216,0.0,0.0,91,0.00,,---,0.00,0.00,VWS V14.01,2012-12-25 02:04:00,
2012-12-24 21:05:00,58.2,55.6,30.03,SW,216,0.0,0.0,91,0.00,,---,0.00,0.00,VWS V14.01,2012-12-25 02:05:00,
2012-12-24 21:06:00,58.2,55.6,30.03,SW,216,0.0,0.0,91,0.00,,---,0.00,0.00,VWS V14.01,2012-12-25 02:06:00,
2012-12-24 21:07:00,58.2,55.6,30.03,SW,216,0.0,0.0,91,0.00,,---,0.00,0.00,VWS V14.01,2012-12-25 02:07:00,
2012-12-24 21:08:00,58.2,55.6,30.03,SW,216,0.0,0.0,91,0.00,,---,0.00,0.00,VWS V14.01,2012-12-25 02:08:00,
2012-12-24 21:09:00,58.2,55.6,30.03,SW,216,0.0,0.0,91,0.00,,---,0.00,0.00,VWS V14.01,2012-12-25 02:09:00,
2012-12-24 21:10:00,58.2,55.6,30.03,SW,216,0.0,0.0,91,0.00,,---,0.00,0.00,VWS V14.01,2012-12-25 02:10:00,
2012-12-24 21:11:00,58.3,55.7,30.03,SW,216,0.0,0.0,91,0.00,,---,0.00,0.00,VWS V14.01,2012-12-25 02:11:00,
2012-12-24 21:12:00,58.3,55.7,30.03,SW,216,0.0,0.0,91,0.00,,---,0.00,0.00,VWS V14.01,2012-12-25 02:12:00,
2012-12-24 21:13:00,58.3,55.7,30.03,SW,216,0.0,0.0,91,0.00,,---,0.00,0.00,VWS V14.01,2012-12-25 02:13:00,
2012-12-24 21:14:00,58.2,55.6,30.03,SW,216,0.0,0.0,91,0.00,,---,0.00,0.00,VWS V14.01,2012-12-25 02:14:00,
2012-12-24 21:15:00,58.2,55.6,30.03,SW,216,0.0,0.0,91,0.00,,---,0.00,0.00,VWS V14.01,2012-12-25 02:15:00,
2012-12-24 21:16:00,58.2,55.6,30.03,SW,216,0.0,0.0,91,0.00,,---,0.00,0.00,VWS V14.01,2012-12-25 02:16:00,
2012-12-24 21:17:00,58.2,55.6,30.04,SW,216,0.0,0.0,91,0.00,,---,0.00,0.00,VWS V14.01,2012-12-25 02:17:00,
2012-12-24 21:18:00,58.2,55.6,30.04,SW,216,0.0,0.0,91,0.00,,---,0.00,0.00,VWS V14.01,2012-12-25 02:18:00,
2012-12-24 21:19:00,58.2,55.6,30.03,SW,216,0.0,0.0,91,0.00,,---,0.00,0.00,VWS V14.01,2012-12-25 02:19:00,
2012-12-24 21:20:00,58.2,55.6,30.04,SW,216,0.0,0.0,91,0.00,,---,0.00,0.00,VWS V14.01,2012-12-25 02:20:00,
2012-12-24 21:21:00,58.2,55.9,30.03,SW,216,0.0,0.0,92,0.00,,---,0.00,0.00,VWS V14.01,2012-12-25 02:21:00,
2012-12-24 21:22:00,58.2,55.6,30.04,SW,216,0.0,0.0,91,0.00,,---,0.00,0.00,VWS V14.01,2012-12-25 02:22:00,
2012-12-24 21:23:00,58.2,55.6,30.04,SW,216,0.0,0.0,91,0.00,,---,0.00,0.00,VWS V14.01,2012-12-25 02:23:00,
2012-12-24 21:24:00,58.2,55.6,30.03,SW,216,0.0,0.0,91,0.00,,---,0.00,0.00,VWS V14.01,2012-12-25 02:24:00,
2012-12-24 21:25:00,58.1,55.8,30.03,SW,216,0.0,0.0,92,0.00,,---,0.00,0.00,VWS V14.01,2012-12-25 02:25:00,
2012-12-24 21:26:00,58.1,55.8,30.03,SW,216,0.0,0.0,92,0.00,,---,0.00,0.00,VWS V14.01,2012-12-25 02:26:00,
2012-12-24 21:27:00,58.0,55.7,30.03,SW,216,0.0,0.0,92,0.00,,---,0.00,0.00,VWS V14.01,2012-12-25 02:27:00,
2012-12-24 21:28:00,58.0,55.4,30.03,SW,216,0.0,0.0,91,0.00,,---,0.00,0.00,VWS V14.01,2012-12-25 02:28:00,
2012-12-24 21:29:00,58.0,55.4,30.03,SW,216,0.0,0.0,91,0.00,,---,0.00,0.00,VWS V14.01,2012-12-25 02:29:00,
2012-12-24 21:30:00,58.0,55.7,30.03,SW,216,0.0,0.0,92,0.00,,---,0.00,0.00,VWS V14.01,2012-12-25 02:30:00,
2012-12-24 21:31:00,58.0,55.7,30.03,SW,216,0.0,0.0,92,0.00,,---,0.00,0.00,VWS V14.01,2012-12-25 02:31:00,
2012-12-24 21:32:00,57.9,55.6,30.03,SW,216,0.0,0.0,92,0.00,,---,0.00,0.00,VWS V14.01,2012-12-25 02:32:00,
2012-12-24 21:33:00,57.9,55.6,30.03,SW,216,0.0,0.0,92,0.00,,---,0.00,0.00,VWS V14.01,2012-12-25 02:33:00,
2012-12-24 21:34:00,57.9,55.6,30.03,SW,216,0.0,0.0,92,0.00,,---,0.00,0.00,VWS V14.01,2012-12-25 02:34:00,
2012-12-24 21:35:00,57.9,55.6,30.03,SW,216,0.0,0.0,92,0.00,,---,0.00,0.00,VWS V14.01,2012-12-25 02:35:00,
2012-12-24 21:36:00,57.9,55.6,30.03,SW,216,0.0,0.0,92,0.00,,---,0.00,0.00,VWS V14.01,2012-12-25 02:36:00,
2012-12-24 21:37:00,57.9,55.6,30.03,SW,216,0.0,0.0,92,0.00,,---,0.00,0.00,VWS V14.01,2012-12-25 02:37:00,
2012-12-24 21:38:00,57.9,55.6,30.03,SW,216,0.0,0.0,92,0.00,,---,0.00,0.00,VWS V14.01,2012-12-25 02:38:00,
2012-12-24 21:39:00,57.8,55.2,30.03,SW,216,0.0,0.0,91,0.00,,---,0.00,0.00,VWS V14.01,2012-12-25 02:39:00,
2012-12-24 21:40:00,57.7,55.1,30.03,SW,216,0.0,0.0,91,0.00,,---,0.00,0.00,VWS V14.01,2012-12-25 02:40:00,
2012-12-24 21:41:00,57.7,55.1,30.03,SW,216,0.0,0.0,91,0.00,,---,0.00,0.00,VWS V14.01,2012-12-25 02:41:00,
2012-12-24 21:42:00,57.7,55.1,30.03,SW,216,0.0,0.0,91,0.00,,---,0.00,0.00,VWS V14.01,2012-12-25 02:42:00,
2012-12-24 21:43:00,57.6,55.3,30.03,SW,216,0.0,0.0,92,0.00,,---,0.00,0.00,VWS V14.01,2012-12-25 02:43:00,
2012-12-24 21:44:00,57.6,55.3,30.03,SW,216,0.0,0.0,92,0.00,,---,0.00,0.00,VWS V14.01,2012-12-25 02:44:00,
2012-12-24 21:45:00,57.6,55.3,30.03,SW,216,0.0,0.0,92,0.00,,---,0.00,0.00,VWS V14.01,2012-12-25 02:45:00,
2012-12-24 21:46:00,57.6,55.3,30.03,SW,216,0.0,0.0,92,0.00,,---,0.00,0.00,VWS V14.01,2012-12-25 02:46:00,
2012-12-24 21:47:00,57.5,55.2,30.03,SW,216,0.0,0.0,92,0.00,,---,0.00,0.00,VWS V14.01,2012-12-25 02:47:00,
2012-12-24 21:48:00,57.5,55.2,30.03,SW,216,0.0,0.0,92,0.00,,---,0.00,0.00,VWS V14.01,2012-12-25 02:48:00,
2012-12-24 21:49:00,57.5,55.2,30.03,SW,216,0.0,0.0,92,0.00,,---,0.00,0.00,VWS V14.01,2012-12-25 02:49:00,
2012-12-24 21:50:00,57.5,55.2,30.03,SW,216,0.0,0.0,92,0.00,,---,0.00,0.00,VWS V14.01,2012-12-25 02:50:00,
2012-12-24 21:51:00,57.5,55.2,30.03,SW,216,0.0,0.0,92,0.00,,---,0.00,0.00,VWS V14.01,2012-12-25 02:51:00,
2012-12-24 21:52:00,57.4,55.1,30.03,SW,216,0.0,0.0,92,0.00,,---,0.00,0.00,VWS V14.01,2012-12-25 02:52:00,
2012-12-24 21:53:00,57.3,55.0,30.03,SW,216,0.0,0.0,92,0.00,,---,0.00,0.00,VWS V14.01,2012-12-25 02:53:00,
2012-12-24 21:54:00,57.3,55.0,30.03,SW,216,0.0,0.0,92,0.00,,---,0.00,0.00,VWS V14.01,2012-12-25 02:54:00,
2012-12-24 21:55:00,57.3,55.0,30.03,SW,216,0.0,0.0,92,0.00,,---,0.00,0.00,VWS V14.01,2012-12-25 02:55:00,
2012-12-24 21:56:00,57.3,55.0,30.03,SW,216,0.0,0.0,92,0.00,,---,0.00,0.00,VWS V14.01,2012-12-25 02:56:00,
2012-12-24 21:57:00,57.2,54.9,30.03,SW,216,0.0,0.0,92,0.00,,---,0.00,0.00,VWS V14.01,2012-12-25 02:57:00,
2012-12-24 21:58:00,57.2,54.9,30.03,SW,216,0.0,0.0,92,0.00,,---,0.00,0.00,VWS V14.01,2012-12-25 02:58:00,
2012-12-24 21:59:00,57.2,54.9,30.03,SW,216,0.0,0.0,92,0.00,,---,0.00,0.00,VWS V14.01,2012-12-25 02:59:00,
2012-12-24 22:00:00,57.1,54.8,30.04,SW,216,0.0,0.0,92,0.00,,---,0.00,0.00,VWS V14.01,2012-12-25 03:00:00,
2012-12-24 22:01:00,57.1,54.8,30.04,SW,216,0.0,0.0,92,0.00,,---,0.00,0.00,VWS V14.01,2012-12-25 03:01:00,
2012-12-24 22:02:00,57.1,54.8,30.04,SW,216,0.0,0.0,92,0.00,,---,0.00,0.00,VWS V14.01,2012-12-25 03:02:00,
2012-12-24 22:03:00,57.1,54.8,30.04,SW,216,0.0,0.0,92,0.00,,---,0.00,0.00,VWS V14.01,2012-12-25 03:03:00,
2012-12-24 22:04:00,57.0,54.7,30.04,SW,216,0.0,0.0,92,0.00,,---,0.00,0.00,VWS V14.01,2012-12-25 03:04:00,
2012-12-24 22:05:00,57.0,54.7,30.04,SW,216,0.0,0.0,92,0.00,,---,0.00,0.00,VWS V14.01,2012-12-25 03:05:00,
2012-12-24 22:06:00,57.0,54.7,30.04,SW,216,0.0,0.0,92,0.00,,---,0.00,0.00,VWS V14.01,2012-12-25 03:06:00,
2012-12-24 22:07:00,56.9,54.6,30.04,SW,216,0.0,0.0,92,0.00,,---,0.00,0.00,VWS V14.01,2012-12-25 03:07:00,
2012-12-24 22:08:00,56.9,54.6,30.04,SW,216,0.0,0.0,92,0.00,,---,0.00,0.00,VWS V14.01,2012-12-25 03:08:00,
2012-12-24 22:09:00,56.9,54.6,30.04,SW,216,0.0,0.0,92,0.00,,---,0.00,0.00,VWS V14.01,2012-12-25 03:09:00,
2012-12-24 22:10:00,56.9,54.9,30.04,SW,216,0.0,0.0,93,0.00,,---,0.00,0.00,VWS V14.01,2012-12-25 03:10:00,
2012-12-24 22:11:00,56.9,54.9,30.04,SW,216,0.0,0.0,93,0.00,,---,0.00,0.00,VWS V14.01,2012-12-25 03:11:00,
2012-12-24 22:12:00,56.9,54.9,30.04,SW,216,0.0,0.0,93,0.00,,---,0.00,0.00,VWS V14.01,2012-12-25 03:12:00,
2012-12-24 22:13:00,56.9,54.9,30.04,SW,216,0.0,0.0,93,0.00,,---,0.00,0.00,VWS V14.01,2012-12-25 03:13:00,
2012-12-24 22:14:00,56.9,54.9,30.04,SW,216,0.0,0.0,93,0.00,,---,0.00,0.00,VWS V14.01,2012-12-25 03:14:00,
2012-12-24 22:15:00,56.9,54.9,30.04,SW,216,0.0,0.0,93,0.00,,---,0.00,0.00,VWS V14.01,2012-12-25 03:15:00,
2012-12-24 22:16:00,57.0,55.0,30.04,SW,216,0.0,0.0,93,0.00,,---,0.00,0.00,VWS V14.01,2012-12-25 03:16:00,
2012-12-24 22:17:00,57.0,55.0,30.04,SW,216,0.0,0.0,93,0.00,,---,0.00,0.00,VWS V14.01,2012-12-25 03:17:00,
2012-12-24 22:18:00,57.0,55.0,30.04,SW,216,0.0,0.0,93,0.00,,---,0.00,0.00,VWS V14.01,2012-12-25 03:18:00,
2012-12-24 22:19:00,57.1,55.1,30.04,SW,216,0.0,0.0,93,0.00,,---,0.00,0.00,VWS V14.01,2012-12-25 03:19:00,
2012-12-24 22:20:00,57.1,55.1,30.04,SW,216,0.0,0.0,93,0.00,,---,0.00,0.00,VWS V14.01,2012-12-25 03:20:00,
2012-12-24 22:21:00,57.1,55.1,30.04,SW,216,0.0,0.0,93,0.00,,---,0.00,0.00,VWS V14.01,2012-12-25 03:21:00,
2012-12-24 22:22:00,57.1,54.8,30.04,SW,216,0.0,0.0,92,0.00,,---,0.00,0.00,VWS V14.01,2012-12-25 03:22:00,
2012-12-24 22:23:00,57.0,54.7,30.04,SW,216,0.0,0.0,92,0.00,,---,0.00,0.00,VWS V14.01,2012-12-25 03:23:00,
2012-12-24 22:24:00,57.0,54.7,30.04,SW,216,0.0,0.0,92,0.00,,---,0.00,0.00,VWS V14.01,2012-12-25 03:24:00,
2012-12-24 22:25:00,57.0,54.7,30.04,SW,216,0.0,0.0,92,0.00,,---,0.00,0.00,VWS V14.01,2012-12-25 03:25:00,
2012-12-24 22:26:00,57.0,54.7,30.04,SW,216,0.0,0.0,92,0.00,,---,0.00,0.00,VWS V14.01,2012-12-25 03:26:00,
2012-12-24 22:27:00,57.0,54.7,30.04,SW,216,0.0,0.0,92,0.00,,---,0.00,0.00,VWS V14.01,2012-12-25 03:27:00,
2012-12-24 22:28:00,56.9,54.6,30.04,SW,216,0.0,0.0,92,0.00,,---,0.00,0.00,VWS V14.01,2012-12-25 03:28:00,
2012-12-24 22:29:00,56.9,54.6,30.04,SW,216,0.0,0.0,92,0.00,,---,0.00,0.00,VWS V14.01,2012-12-25 03:29:00,
2012-12-24 22:30:00,56.9,54.6,30.04,SW,216,0.0,0.0,92,0.00,,---,0.00,0.00,VWS V14.01,2012-12-25 03:30:00,
2012-12-24 22:31:00,56.9,54.6,30.04,SW,216,0.0,0.0,92,0.00,,---,0.00,0.00,VWS V14.01,2012-12-25 03:31:00,
2012-12-24 22:32:00,56.9,54.6,30.04,SW,216,0.0,0.0,92,0.00,,---,0.00,0.00,VWS V14.01,2012-12-25 03:32:00,
2012-12-24 22:33:00,56.9,54.6,30.04,SW,216,0.0,1.0,92,0.00,,---,0.00,0.00,VWS V14.01,2012-12-25 03:33:00,
2012-12-24 22:34:00,56.9,54.6,30.04,SW,216,0.0,1.0,92,0.00,,---,0.00,0.00,VWS V14.01,2012-12-25 03:34:00,
2012-12-24 22:35:00,56.9,54.6,30.04,SW,216,0.0,1.0,92,0.00,,---,0.00,0.00,VWS V14.01,2012-12-25 03:35:00,
2012-12-24 22:36:00,56.9,54.6,30.03,SSW,193,0.0,2.0,92,0.00,,---,0.00,0.00,VWS V14.01,2012-12-25 03:36:00,
2012-12-24 22:37:00,56.8,54.5,30.04,SSW,193,0.0,2.0,92,0.00,,---,0.00,0.00,VWS V14.01,2012-12-25 03:37:00,
2012-12-24 22:38:00,56.8,54.5,30.03,SSW,193,1.0,2.0,92,0.00,,---,0.00,0.00,VWS V14.01,2012-12-25 03:38:00,
2012-12-24 22:39:00,56.9,54.6,30.04,SSW,193,0.0,2.0,92,0.00,,---,0.00,0.00,VWS V14.01,2012-12-25 03:39:00,
2012-12-24 22:40:00,56.9,54.6,30.03,SSW,193,0.0,2.0,92,0.00,,---,0.00,0.00,VWS V14.01,2012-12-25 03:40:00,
2012-12-24 22:41:00,56.9,54.6,30.03,SSW,193,0.0,2.0,92,0.00,,---,0.00,0.00,VWS V14.01,2012-12-25 03:41:00,
2012-12-24 22:42:00,56.9,54.6,30.03,SSW,193,0.0,2.0,92,0.00,,---,0.00,0.00,VWS V14.01,2012-12-25 03:42:00,
2012-12-24 22:43:00,56.9,54.6,30.04,SSW,193,0.0,2.0,92,0.00,,---,0.00,0.00,VWS V14.01,2012-12-25 03:43:00,
2012-12-24 22:44:00,56.9,54.6,30.04,SSW,193,0.0,2.0,92,0.00,,---,0.00,0.00,VWS V14.01,2012-12-25 03:44:00,
2012-12-24 22:45:00,56.9,54.6,30.03,SSW,193,0.0,2.0,92,0.00,,---,0.00,0.00,VWS V14.01,2012-12-25 03:45:00,
2012-12-24 22:46:00,56.9,54.6,30.04,SSW,193,0.0,2.0,92,0.00,,---,0.00,0.00,VWS V14.01,2012-12-25 03:46:00,
2012-12-24 22:47:00,56.9,54.6,30.04,SSW,193,0.0,2.0,92,0.00,,---,0.00,0.00,VWS V14.01,2012-12-25 03:47:00,
2012-12-24 22:48:00,56.9,54.6,30.03,SSW,193,0.0,2.0,92,0.00,,---,0.00,0.00,VWS V14.01,2012-12-25 03:48:00,
2012-12-24 22:49:00,56.9,54.6,30.03,SSW,193,1.0,2.0,92,0.00,,---,0.00,0.00,VWS V14.01,2012-12-25 03:49:00,
2012-12-24 22:50:00,57.0,54.7,30.03,SSW,193,0.0,2.0,92,0.00,,---,0.00,0.00,VWS V14.01,2012-12-25 03:50:00,
2012-12-24 22:51:00,57.0,54.7,30.03,SSW,193,0.0,2.0,92,0.00,,---,0.00,0.00,VWS V14.01,2012-12-25 03:51:00,
2012-12-24 22:52:00,57.0,54.7,30.03,SSW,193,0.0,2.0,92,0.00,,---,0.00,0.00,VWS V14.01,2012-12-25 03:52:00,
2012-12-24 22:53:00,57.1,54.8,30.03,SSW,193,1.0,2.0,92,0.00,,---,0.00,0.00,VWS V14.01,2012-12-25 03:53:00,
2012-12-24 22:54:00,57.0,54.7,30.03,SSE,164,1.0,2.0,92,0.00,,---,0.00,0.00,VWS V14.01,2012-12-25 03:54:00,
2012-12-24 22:55:00,57.1,54.8,30.03,SSE,164,1.0,3.0,92,0.00,,---,0.00,0.00,VWS V14.01,2012-12-25 03:55:00,
2012-12-24 22:56:00,57.1,54.8,30.03,SSE,164,1.0,3.0,92,0.00,,---,0.00,0.00,VWS V14.01,2012-12-25 03:56:00,
2012-12-24 22:57:00,57.2,54.9,30.03,SSE,164,1.0,3.0,92,0.00,,---,0.00,0.00,VWS V14.01,2012-12-25 03:57:00,
2012-12-24 22:58:00,57.2,54.9,30.03,SSE,168,1.0,3.0,92,0.00,,---,0.00,0.00,VWS V14.01,2012-12-25 03:58:00,
2012-12-24 22:59:00,57.2,54.9,30.03,SSE,168,0.0,3.0,92,0.00,,---,0.00,0.00,VWS V14.01,2012-12-25 03:59:00,
2012-12-24 23:00:00,57.2,54.9,30.03,SSE,168,1.0,3.0,92,0.00,,---,0.00,0.00,VWS V14.01,2012-12-25 04:00:00,
2012-12-24 23:01:00,57.3,54.7,30.03,SSE,168,0.0,1.0,91,0.00,,---,0.00,0.00,VWS V14.01,2012-12-25 04:01:00,
2012-12-24 23:02:00,57.3,54.7,30.03,SSE,168,0.0,2.0,91,0.00,,---,0.00,0.00,VWS V14.01,2012-12-25 04:02:00,
2012-12-24 23:03:00,57.2,54.6,30.03,SSE,168,0.0,2.0,91,0.00,,---,0.00,0.00,VWS V14.01,2012-12-25 04:03:00,
2012-12-24 23:04:00,57.2,54.6,30.04,SSE,149,0.0,2.0,91,0.00,,---,0.00,0.00,VWS V14.01,2012-12-25 04:04:00,
2012-12-24 23:05:00,57.2,54.6,30.04,SSE,149,1.0,2.0,91,0.00,,---,0.00,0.00,VWS V14.01,2012-12-25 04:05:00,
2012-12-24 23:06:00,57.2,54.6,30.04,SSE,149,0.0,2.0,91,0.00,,---,0.00,0.00,VWS V14.01,2012-12-25 04:06:00,
2012-12-24 23:07:00,57.2,54.6,30.03,SSE,149,0.0,2.0,91,0.00,,---,0.00,0.00,VWS V14.01,2012-12-25 04:07:00,
2012-12-24 23:08:00,57.2,54.6,30.03,SSE,149,0.0,2.0,91,0.00,,---,0.00,0.00,VWS V14.01,2012-12-25 04:08:00,
2012-12-24 23:09:00,57.2,54.6,30.04,SSE,149,0.0,2.0,91,0.00,,---,0.00,0.00,VWS V14.01,2012-12-25 04:09:00,
2012-12-24 23:10:00,57.2,54.6,30.03,SSE,149,0.0,2.0,91,0.00,,---,0.00,0.00,VWS V14.01,2012-12-25 04:10:00,
2012-12-24 23:11:00,57.2,54.6,30.04,SSE,149,0.0,2.0,91,0.00,,---,0.00,0.00,VWS V14.01,2012-12-25 04:11:00,
2012-12-24 23:12:00,57.2,54.6,30.04,SSE,149,0.0,2.0,91,0.00,,---,0.00,0.00,VWS V14.01,2012-12-25 04:12:00,
2012-12-24 23:13:00,57.2,54.6,30.04,SSE,149,0.0,2.0,91,0.00,,---,0.00,0.00,VWS V14.01,2012-12-25 04:13:00,
2012-12-24 23:14:00,57.2,54.6,30.04,SSE,149,0.0,2.0,91,0.00,,---,0.00,0.00,VWS V14.01,2012-12-25 04:14:00,
2012-12-24 23:15:00,57.2,54.6,30.03,SSE,149,0.0,2.0,91,0.00,,---,0.00,0.00,VWS V14.01,2012-12-25 04:15:00,
2012-12-24 23:16:00,57.3,54.7,30.04,SSE,149,0.0,2.0,91,0.00,,---,0.00,0.00,VWS V14.01,2012-12-25 04:16:00,
2012-12-24 23:17:00,57.2,54.6,30.03,SSE,149,0.0,2.0,91,0.00,,---,0.00,0.00,VWS V14.01,2012-12-25 04:17:00,
2012-12-24 23:18:00,57.3,54.7,30.03,SSE,152,0.0,2.0,91,0.00,,---,0.00,0.00,VWS V14.01,2012-12-25 04:18:00,
2012-12-24 23:19:00,57.2,54.6,30.03,South,170,2.0,2.0,91,0.00,,---,0.00,0.00,VWS V14.01,2012-12-25 04:19:00,
2012-12-24 23:20:00,57.2,54.6,30.03,South,176,0.0,2.0,91,0.00,,---,0.00,0.00,VWS V14.01,2012-12-25 04:20:00,
2012-12-24 23:21:00,57.2,54.6,30.03,South,176,0.0,2.0,91,0.00,,---,0.00,0.00,VWS V14.01,2012-12-25 04:21:00,
2012-12-24 23:22:00,57.2,54.6,30.03,South,176,0.0,2.0,91,0.00,,---,0.00,0.00,VWS V14.01,2012-12-25 04:22:00,
2012-12-24 23:23:00,57.2,54.6,30.03,South,176,0.0,2.0,91,0.00,,---,0.00,0.00,VWS V14.01,2012-12-25 04:23:00,
2012-12-24 23:24:00,57.1,54.5,30.03,South,176,0.0,2.0,91,0.00,,---,0.00,0.00,VWS V14.01,2012-12-25 04:24:00,
2012-12-24 23:25:00,57.1,54.5,30.03,South,176,2.0,2.0,91,0.00,,---,0.00,0.00,VWS V14.01,2012-12-25 04:25:00,
2012-12-24 23:26:00,57.2,54.6,30.03,South,176,0.0,2.0,91,0.00,,---,0.00,0.00,VWS V14.01,2012-12-25 04:26:00,
2012-12-24 23:27:00,57.2,54.6,30.03,South,176,1.0,2.0,91,0.00,,---,0.00,0.00,VWS V14.01,2012-12-25 04:27:00,
2012-12-24 23:28:00,57.2,54.6,30.03,South,176,0.0,2.0,91,0.00,,---,0.00,0.00,VWS V14.01,2012-12-25 04:28:00,
2012-12-24 23:29:00,57.2,54.6,30.03,South,176,0.0,2.0,91,0.00,,---,0.00,0.00,VWS V14.01,2012-12-25 04:29:00,
2012-12-24 23:30:00,57.2,54.6,30.03,South,176,1.0,2.0,91,0.00,,---,0.00,0.00,VWS V14.01,2012-12-25 04:30:00,
2012-12-24 23:31:00,57.2,54.6,30.03,South,176,1.0,2.0,91,0.00,,---,0.00,0.00,VWS V14.01,2012-12-25 04:31:00,
2012-12-24 23:32:00,57.3,54.7,30.03,South,176,1.0,2.0,91,0.00,,---,0.00,0.00,VWS V14.01,2012-12-25 04:32:00,
2012-12-24 23:33:00,57.3,54.7,30.03,South,176,1.0,2.0,91,0.00,,---,0.00,0.00,VWS V14.01,2012-12-25 04:33:00,
2012-12-24 23:34:00,57.3,54.7,30.03,South,176,0.0,2.0,91,0.00,,---,0.00,0.00,VWS V14.01,2012-12-25 04:34:00,
2012-12-24 23:35:00,57.3,54.7,30.03,South,176,1.0,2.0,91,0.00,,---,0.00,0.00,VWS V14.01,2012-12-25 04:35:00,
2012-12-24 23:36:00,57.3,54.7,30.03,South,176,1.0,2.0,91,0.00,,---,0.00,0.00,VWS V14.01,2012-12-25 04:36:00,
2012-12-24 23:37:00,57.4,54.8,30.03,South,176,0.0,2.0,91,0.00,,---,0.00,0.00,VWS V14.01,2012-12-25 04:37:00,
2012-12-24 23:38:00,57.4,54.8,30.03,South,176,0.0,2.0,91,0.00,,---,0.00,0.00,VWS V14.01,2012-12-25 04:38:00,
2012-12-24 23:39:00,57.4,54.8,30.03,South,176,0.0,2.0,91,0.00,,---,0.00,0.00,VWS V14.01,2012-12-25 04:39:00,
2012-12-24 23:40:00,57.4,54.8,30.03,South,176,1.0,2.0,91,0.00,,---,0.00,0.00,VWS V14.01,2012-12-25 04:40:00,
2012-12-24 23:41:00,57.4,54.8,30.03,South,176,0.0,2.0,91,0.00,,---,0.00,0.00,VWS V14.01,2012-12-25 04:41:00,
2012-12-24 23:42:00,57.5,54.9,30.03,South,176,0.0,2.0,91,0.00,,---,0.00,0.00,VWS V14.01,2012-12-25 04:42:00,
2012-12-24 23:43:00,57.5,54.9,30.03,South,176,1.0,2.0,91,0.00,,---,0.00,0.00,VWS V14.01,2012-12-25 04:43:00,
2012-12-24 23:44:00,57.5,54.9,30.03,SSE,159,1.0,2.0,91,0.00,,---,0.00,0.00,VWS V14.01,2012-12-25 04:44:00,
2012-12-24 23:45:00,57.6,55.0,30.03,South,179,2.0,3.0,91,0.00,,---,0.00,0.00,VWS V14.01,2012-12-25 04:45:00,
2012-12-24 23:46:00,57.6,55.0,30.03,South,179,1.0,3.0,91,0.00,,---,0.00,0.00,VWS V14.01,2012-12-25 04:46:00,
2012-12-24 23:47:00,57.7,55.1,30.03,South,179,1.0,3.0,91,0.00,,---,0.00,0.00,VWS V14.01,2012-12-25 04:47:00,
2012-12-24 23:48:00,57.7,54.8,30.03,South,179,2.0,3.0,90,0.00,,---,0.00,0.00,VWS V14.01,2012-12-25 04:48:00,
2012-12-24 23:49:00,57.8,55.2,30.02,South,170,1.0,3.0,91,0.00,,---,0.00,0.00,VWS V14.01,2012-12-25 04:49:00,
2012-12-24 23:50:00,57.8,55.2,30.03,South,177,2.0,3.0,91,0.00,,---,0.00,0.00,VWS V14.01,2012-12-25 04:50:00,
2012-12-24 23:51:00,57.9,55.0,30.02,South,179,2.0,4.0,90,0.00,,---,0.00,0.00,VWS V14.01,2012-12-25 04:51:00,
2012-12-24 23:52:00,58.0,55.1,30.02,SSW,193,1.0,4.0,90,0.00,,---,0.00,0.00,VWS V14.01,2012-12-25 04:52:00,
2012-12-24 23:53:00,58.0,55.1,30.02,South,178,2.0,4.0,90,0.00,,---,0.00,0.00,VWS V14.01,2012-12-25 04:53:00,
2012-12-24 23:54:00,58.0,55.1,30.02,South,169,0.0,4.0,90,0.00,,---,0.00,0.00,VWS V14.01,2012-12-25 04:54:00,
2012-12-24 23:55:00,58.0,55.1,30.02,South,170,1.0,4.0,90,0.00,,---,0.00,0.00,VWS V14.01,2012-12-25 04:55:00,
2012-12-24 23:56:00,58.1,55.2,30.02,South,170,0.0,4.0,90,0.00,,---,0.00,0.00,VWS V14.01,2012-12-25 04:56:00,
2012-12-24 23:57:00,58.1,55.2,30.02,South,170,1.0,4.0,90,0.00,,---,0.00,0.00,VWS V14.01,2012-12-25 04:57:00,
2012-12-24 23:58:00,58.1,54.9,30.02,South,183,3.0,4.0,89,0.00,,---,0.00,0.00,VWS V14.01,2012-12-25 04:58:00,
2012-12-24 23:59:00,58.2,55.3,30.02,South,187,0.0,4.0,90,0.00,,---,0.00,0.00,VWS V14.01,2012-12-25 04:59:00,